[[{"header":{"parameterUnit":"m.s-1","parameterCategory":1,"la1":31.0,"la2":29.5877,"lo1":-88.7671,"lo2":-86.6584,"dy":0.0162,"dx":0.0185,"nx":115,"ny":88,"refTime":"2023-04-28T12:00:00:Z","depth":0,"parameterNumber":2,"parameterNumberName":"U-component_of_WINDS"},"data":[0.0,0.0,0.0,0.0,0.0,0.0,0.0,0.0,0.0,0.0,0.0,0.0,0.0,0.0,0.0,0.0,0.0,0.0,0.0,0.0,0.0,0.0,0.0,0.0,0.0,0.0,0.0,0.0,0.0,0.0,0.0,0.0,0.0,0.0,0.0,0.0,0.0,0.0,0.0,0.0,0.0,0.0,0.0,0.0,0.0,0.0,0.0,0.0,0.0,0.0,0.0,0.0,0.0,0.0,0.0,0.0,0.0,0.0,0.0,0.0,0.0,0.0,0.0,0.0,0.0,0.0,0.0,0.0,0.0,0.0,0.0,0.0,0.0,0.0,0.0,0.0,0.0,0.0,0.0,0.0,0.0,0.0,0.0,0.0,0.0,0.0,0.0,0.0,0.0,0.0,0.0,0.0,0.0,0.0,0.0,0.0,0.0,0.0,0.0,0.0,0.0,0.0,0.0,0.0,0.0,0.0,0.0,0.0,0.0,0.0,0.0,0.0,0.0,0.0,0.0,0.0,0.0,0.0,0.0,0.0,0.0,0.0,0.0,0.0,0.0,0.0,0.0,0.0,0.0,0.0,0.0,0.0,0.0,0.0,0.0,0.0,0.0,0.0,0.0,0.0,0.0,0.0,0.0,0.0,0.0,0.0,0.0,0.0,0.0,0.0,0.0,0.0,0.0,0.0,0.0,0.0,0.0,0.0,0.0,0.0,0.0,0.0,0.0,0.0,0.0,0.0,0.0,0.0,0.0,0.0,0.0,0.0,0.0,0.0,0.0,0.0,0.0,0.0,0.0,0.0,0.0,0.0,0.0,0.0,0.0,0.0,0.0,0.0,0.0,0.0,0.0,0.0,0.0,0.0,0.0,0.0,0.0,0.0,0.0,0.0,0.0,0.0,0.0,0.0,0.0,0.0,0.0,0.0,0.0,0.0,0.0,0.0,0.0,0.0,0.0,0.0,0.0,0.0,0.0,0.0,0.0,0.0,0.0,0.0,0.0,0.0,0.0,0.0,0.0,0.0,0.0,0.0,0.0,0.0,0.0,0.0,0.0,0.0,0.0,0.0,0.0,0.0,0.0,0.0,0.0,0.0,0.0,0.0,0.0,0.0,0.0,0.0,0.0,0.0,0.0,0.0,0.0,0.0,0.0,0.0,0.0,0.0,0.0,0.0,0.0,0.0,0.0,0.0,0.0,0.0,0.0,0.0,0.0,0.0,0.0,0.0,0.0,0.0,0.0,0.0,0.0,0.0,0.0,0.0,0.0,0.0,0.0,0.0,0.0,0.0,0.0,0.0,0.0,0.0,0.0,0.0,0.0,0.0,0.0,0.0,0.0,0.0,0.0,0.0,0.0,0.0,0.0,0.0,0.0,0.0,0.0,0.0,0.0,0.0,0.0,0.0,0.0,0.0,0.0,0.0,0.0,0.0,0.0,0.0,0.0,0.0,0.0,0.0,0.0,0.0,0.0,0.0,0.0,0.0,0.0,0.0,0.0,0.0,0.0,0.0,0.0,0.0,0.0,0.0,0.0,0.0,0.0,0.0,0.0,0.0,0.0,0.0,0.0,0.0,0.0,0.0,0.0,0.0,0.0,0.0,0.0,0.0,0.0,0.0,0.0,0.0,0.0,0.0,0.0,0.0,0.0,0.0,0.0,0.0,0.0,0.0,0.0,0.0,0.0,0.0,0.0,0.0,0.0,0.0,0.0,0.0,0.0,0.0,0.0,0.0,0.0,0.0,0.0,0.0,0.0,0.0,0.0,0.0,0.0,0.0,0.0,0.0,0.0,0.0,0.0,0.0,0.0,0.0,0.0,0.0,0.0,0.0,0.0,0.0,0.0,0.0,0.0,0.0,0.0,0.0,0.0,0.0,0.0,0.0,0.0,0.0,0.0,0.0,0.0,0.0,0.0,0.0,0.0,0.0,0.0,0.0,0.0,0.0,0.0,0.0,0.0,0.0,0.0,0.0,0.0,0.0,0.0,0.0,0.0,0.0,0.0,0.0,0.0,0.0,0.0,0.0,0.0,0.0,0.0,0.0,0.0,0.0,0.0,0.0,0.0,0.0,0.0,0.0,0.0,0.0,0.0,0.0,0.0,0.0,0.0,0.0,0.0,0.0,0.0,0.0,0.0,0.0,0.0,0.0,0.0,0.0,0.0,0.0,0.0,0.0,0.0,0.0,0.0,0.0,0.0,0.0,0.0,0.0,0.0,0.0,0.0,0.0,0.0,0.0,0.0,0.0,0.0,0.0,0.0,0.0,0.0,0.0,0.0,0.0,0.0,0.0,0.0,0.0,0.0,0.0,0.0,0.0,0.0,0.0,0.0,0.0,0.0,0.0,0.0,0.0,0.0,0.0,0.0,0.0,0.0,0.0,0.0,0.0,0.0,0.0,0.0,0.0,0.0,0.0,0.0,0.0,0.0,0.0,0.0,0.0,0.0,0.0,0.0,0.0,0.0,0.0,0.0,0.0,0.0,0.0,0.0,0.0,0.0,0.0,0.0,0.0,0.0,0.0,0.0,0.0,0.0,0.0,0.0,0.0,0.0,0.0,0.0,0.0,0.0,0.0,0.0,0.0,0.0,0.0,0.0,0.0,0.0,0.0,0.0,0.0,0.0,0.0,0.0,0.0,0.0,0.0,0.0,0.0,0.0,0.0,0.0,0.0,0.0,0.0,0.0,0.0,0.0,0.0,0.0,0.0,0.0,0.0,0.0,0.0,0.0,0.0,0.0,0.0,0.0,0.0,0.0,0.0,0.0,0.0,0.0,0.0,0.0,0.0,0.0,0.0,0.0,0.0,0.0,0.0,0.0,0.0,0.0,0.0,0.0,0.0,0.0,0.0,0.0,0.0,0.0,0.0,0.0,0.0,0.0,0.0,0.0,0.0,0.0,0.0,0.0,0.0,0.0,0.0,0.0,0.0,0.0,0.0,0.0,0.0,0.0,0.0,0.0,0.0,0.0,0.0,0.0,0.0,0.0,0.0,0.0,0.0,0.0,0.0,0.0,0.0,0.0,0.0,0.0,0.0,0.0,0.0,0.0,0.0,0.0,0.0,0.0,0.0,0.0,0.0,0.0,0.0,0.0,0.0,0.0,0.0,0.0,0.0,0.0,0.0,0.0,0.0,0.0,0.0,0.0,0.0,0.0,0.0,0.0,0.0,0.0,0.0,0.0,0.0,0.0,0.0,0.0,0.0,0.0,0.0,0.0,0.0,0.0,0.0,0.0,0.0,0.0,0.0,0.0,0.0,0.0,0.0,0.0,0.0,0.0,0.0,0.0,0.0,0.0,0.0,0.0,0.0,0.0,0.0,0.0,0.0,0.0,0.0,0.0,0.0,0.0,0.0,0.0,0.0,0.0,0.0,0.0,0.0,0.0,0.0,0.0,0.0,0.0,0.0,0.0,0.0,0.0,0.0,0.0,0.0,0.0,0.0,0.0,0.0,0.0,0.0,0.0,0.0,0.0,0.0,0.0,0.0,0.0,0.0,0.0,0.0,0.0,0.0,0.0,0.0,0.0,0.0,0.0,0.0,0.0,0.0,0.0,0.0,0.0,0.0,0.0,0.0,0.0,0.0,0.0,0.0,0.0,0.0,0.0,0.0,0.0,0.0,0.0,0.0,0.0,0.0,0.0,0.0,0.0,0.0,0.0,0.0,0.0,0.0,0.0,0.0,0.0,0.0,0.0,0.0,0.0,0.0,0.0,0.0,0.0,0.0,0.0,0.0,0.0,0.0,0.0,0.0,0.0,0.0,0.0,0.0,0.0,0.0,0.0,0.0,0.0,0.0,0.0,0.0,0.0,0.0,0.0,0.0,0.0,0.0,0.0,0.0,0.0,0.0,0.0,0.0,0.0,0.0,0.0,0.0,0.0,0.0,0.0,0.0,0.0,0.0,0.0,0.0,0.0,0.0,0.0,0.0,0.0,0.0,0.0,0.0,0.0,0.0,0.0,0.0,0.0,0.0,0.0,0.0,0.0,0.0,0.0,0.0,0.0,0.0,0.0,0.0,0.0,0.0,0.0,0.0,0.0,0.0,0.0,0.0,0.0,0.0,0.0,0.0,0.0,0.0,0.0,0.0,0.0,0.0,0.0,0.0,0.0,0.0,0.0,0.0,0.0,0.0,0.0,0.0,0.0,0.0,0.0,0.0,0.0,0.0,0.0,0.0,0.0,0.0,0.0,0.0,0.0,0.0,0.0,0.0,0.0,0.0,0.0,0.0,0.0,0.0,0.0,0.0,0.0,0.0,0.0,0.0,0.0,0.0,0.0,0.0,0.154,0.0,0.0,0.0,0.0,0.0,0.0,0.0,0.0,0.0,0.0,0.0,0.0,0.0,0.0,0.0,0.0,0.0,0.0,0.0,0.0,0.0,0.0,0.0,0.0,0.0,0.0,0.0,0.0,0.0,0.0,0.0,0.0,0.0,0.0,0.0,0.0,0.0,0.0,0.0,0.0,0.0,0.0,0.0,0.0,0.0,0.0,0.0,0.0,0.0,0.0,0.0,0.0,0.0,0.0,0.0,0.0,0.0,0.0,0.0,0.0,0.0,0.0,0.0,0.0,0.0,0.0,0.0,0.0,0.0,0.0,0.0,0.0,0.0,0.0,0.0,0.0,0.0,0.0,0.0,0.0,0.0,0.0,0.0,0.0,0.0,0.0,0.0,0.0,0.0,0.0,0.0,0.0,0.0,0.0,0.0,0.0,0.0,0.0,0.0,0.0,0.0,0.0,0.0,0.0,0.0,0.0,0.0,0.0,0.0,0.0,0.8523,0.7446,0.5914,0.4083,0.19,0.0,0.0,0.0,0.0,0.0,0.0,0.0,0.0,0.0,0.0,0.0,0.0,0.0,0.0,0.0,0.0,0.0,0.0,0.0,0.0,0.0,0.0,0.0,0.0,0.0,0.0,0.0,0.0,0.0,0.0,0.0,0.0,0.0,0.0,0.0,0.0,0.0,0.0,0.0,0.0,0.0,0.0,0.0,0.0,0.0,0.0,0.0,0.0,0.0,0.0,0.0,0.0,0.0,0.0,0.0,0.0,0.0,0.0,0.0,0.0,0.0,0.0,0.0,0.0,0.0,0.0,0.0,0.0,0.0,0.0,0.0,0.0,0.0,0.0,0.0,0.0,0.0,0.0,0.0,0.0,0.0,0.0,0.0,0.0,0.0,0.0,0.0,0.0,0.0,0.0,0.0,0.0,0.0,0.0,0.0,0.0,0.0,0.0,0.0,0.0,0.0,0.0,0.0,0.0,0.0,0.0,0.0,0.0,0.0,0.0,0.0,0.0,0.5969,0.3784,0.1131,0.0,0.0,0.0,0.0,0.0,0.0,0.0,0.0,0.0,0.0,0.0,0.0,0.0,0.0,0.0,0.0,0.0,0.0,0.0,0.0,0.0,0.0,0.0,0.0,0.0,0.0,0.0,0.0,0.0,0.0,0.0,0.0,0.0,0.0,0.0,0.0,0.0,0.0,0.0,0.0,0.0,0.0,0.0,0.0,0.0,0.0,0.0,0.0,0.0,0.0,0.0,0.0,0.0,0.0,0.0,0.0,0.0,0.0,0.0,0.0,0.0,0.0,0.0,0.0,0.0,0.0,0.0,0.0,0.0,0.0,0.0,0.0,0.0,0.0,0.0,0.0,0.0,0.0,0.0,0.0,0.0,0.0,0.0,0.0,0.0,0.0,0.0,0.0,0.0,0.0,0.0,0.0,0.0,0.0,0.0,0.0,0.0,0.0,0.0,0.0,0.0,0.0,0.0,0.0,0.0,0.0,0.0,0.0,0.0,0.0,0.8789,0.7719,0.5835,0.0,-0.1645,0.0,0.0,0.0,0.0,0.0,0.0,0.0,0.0,0.0,0.0,0.0,0.0,0.0,0.0,0.0,0.0,0.0,0.0,0.0,0.0,0.0,0.0,0.0,0.0,0.0,0.0,0.0,0.0,0.0,0.0,0.0,0.0,0.0,0.0,0.0,0.0,0.0,0.0,0.0,0.0,0.0,0.0,0.0,0.0,0.0,0.0,0.0,0.0,0.0,0.0,0.0,0.0,0.0,0.0,0.0,0.0,0.0,0.0,0.0,0.0,0.0,0.0,0.0,0.0,0.0,0.0,0.0,0.0,0.0,0.0,0.0,0.0,0.0,0.0,0.0,0.0,0.0,0.0,0.0,0.0,0.0,0.0,0.0,0.0,0.0,0.0,0.0,0.0,0.0,0.0,0.0,0.0,0.0,0.0,0.0,0.0,0.0,0.0,0.0,0.0,0.0,0.0,0.0,0.0,0.0,0.0,0.0,0.0,0.0,0.0,0.8551,0.7711,0.5314,0.2452,0.0,0.0,0.0,0.0,0.0,0.0,0.0,0.0,0.0,0.0,0.0,0.0,0.0,0.0,0.0,0.0,0.0,0.0,0.0,0.0,0.0,0.0,0.0,0.0,0.0,0.0,0.0,0.0,0.0,0.0,0.0,0.0,0.0,0.0,0.0,0.0,0.0,0.0,0.0,0.0,0.0,0.0,0.0,0.0,0.0,0.0,0.0,0.0,0.0,0.0,0.0,0.0,0.0,0.0,0.0,0.0,0.0,0.0,0.0,0.0,0.0,0.0,0.0,0.0,0.0,0.0,0.0,0.0,0.0,0.0,0.0,0.0,0.0,0.0,0.0,0.0,0.0,0.0,0.0,0.0,0.0,0.0,0.0,0.0,0.0,0.0,0.0,0.0,0.0,0.0,0.0,0.0,0.0,0.0,0.0,0.0,0.0,0.0,0.0,0.0,0.0,0.0,0.0,0.0,0.0,0.0,0.0,0.0,0.0,0.0,0.8559,0.7971,0.6618,0.4209,0.1896,-0.0175,0.0,0.0,0.0,0.0,0.0,0.0,0.0,0.0,0.0,0.0,0.0,0.0,0.0,0.0,0.0,0.0,0.0,0.0,0.0,0.0,0.0,0.0,0.0,0.0,0.0,0.0,0.0,0.0,0.0,0.0,0.0,0.0,0.0,0.0,0.0,0.0,0.0,0.0,0.0,0.0,0.0,0.0,0.0,0.0,0.0,0.0,0.0,0.0,0.0,0.0,0.0,0.0,0.0,0.0,0.0,0.0,0.0,0.0,0.0,0.0,0.0,0.0,0.0,0.0,0.0,0.0,0.0,0.0,0.0,0.0,0.0,0.0,0.0,0.0,0.0,0.0,0.0,0.0,0.0,0.0,0.0,0.0,0.0,0.0,0.0,0.0,0.0,0.0,0.0,0.0,0.0,0.0,0.0,0.0,0.0,0.0,0.0,0.0,0.0,0.0,0.0,0.0,0.0,0.0,0.0,0.0,0.0,0.0,0.8622,0.8432,0.696,0.4212,0.2331,0.0692,0.0,0.0,0.0,0.0,0.0,0.0,0.0,0.0,0.0,0.0,0.0,0.0,0.0,0.0,0.0,0.0,0.0,0.0,0.0,0.0,0.0,0.0,0.0,0.0,0.0,0.0,0.0,0.0,0.0,0.0,0.0,0.0,0.0,0.0,0.0,0.0,0.0,0.0,0.0,0.0,0.0,0.0,0.0,0.0,0.0,0.0,0.0,0.0,0.0,0.0,0.0,0.0,0.0,0.0,0.0,0.0,0.0,0.0,0.0,0.0,0.0,0.0,0.0,0.0,0.0,0.0,0.0,0.0,0.0,0.0,0.0,0.0,0.0,0.0,0.0,0.0,0.0,0.0,0.0,0.0,0.0,0.0,0.0,0.0,0.0,0.0,0.0,0.0,0.0,0.0,0.0,0.0,0.0,0.0,0.0,0.0,0.0,0.0,0.0,0.0,0.0,0.0,0.0,0.0,0.0,0.0,0.0,0.0,0.0,0.8402,0.7586,0.6137,0.4129,0.2132,0.0532,0.0,0.0,0.0,0.0,0.0,0.0,0.0,0.0,0.0,0.0,0.0,0.0,0.0,0.0,0.0,0.0,0.0,0.0,0.0,0.0,0.0,0.0,0.0,0.0,0.0,0.0,0.0,0.0,0.0,0.0,0.0,0.0,0.0,0.0,0.0,0.0,0.0,0.0,0.0,0.0,0.0,0.0,0.0,0.0,0.0,0.0,0.0,0.0,0.0,0.0,0.0,0.0,0.0,0.0,0.0,0.0,0.0,0.0,0.0,0.0,0.0,0.0,0.0,0.0,0.0,0.0,0.0,0.0,0.0,0.0,0.0,0.0,0.0,0.0,0.0,0.0,0.0,0.0,0.0,0.0,0.0,0.0,0.0,0.0,0.0,0.0,0.0,0.0,0.0,0.0,0.0,0.0,0.0,0.0,0.0,0.0,0.0,0.0,0.0,0.0,0.0,0.0,0.0,0.0,0.0,0.0,0.0,0.0,0.0,0.693,0.0,0.2281,0.1971,0.0135,-0.1226,0.0,0.0,0.0,0.0,0.0,0.0,0.0,0.0,0.0,0.0,0.0,0.0,0.0,0.0,0.0,0.0,0.0,0.0,0.0,0.0,0.0,0.0,0.0,0.0,0.0,0.0,0.0,0.0,0.0,0.0,0.0,0.0,0.0,0.0,0.0,0.0,0.0,0.0,0.0,0.0,0.0,0.0,0.0,0.0,0.0,0.0,0.0,0.0,0.0,0.0,0.0,0.0,0.0,0.0,0.0,0.0,0.0,0.0,0.0,0.0,0.0,0.0,0.0,0.0,0.0,0.0,0.0,0.0,0.0,0.0,0.0,0.0,0.0,0.0,0.0,0.0,0.0,0.0,0.0,0.0,0.0,0.0,0.0,0.0,0.0,0.0,0.0,0.0,0.0,0.0,0.0,0.0,0.0,0.0,0.0,0.0,0.0,0.0,0.0,0.0,0.0,0.0,0.0,0.0,0.0,0.0,0.0,0.0,0.4591,0.3958,-0.2214,-0.4337,-0.2695,-0.3804,-0.4741,0.0,0.0,0.0,0.0,0.0,0.0,0.0,0.0,0.0,0.0,0.0,0.0,0.0,0.0,0.0,0.0,0.0,0.0,0.0,0.0,0.0,0.0,0.0,0.0,0.0,0.0,0.0,0.0,0.0,0.0,0.0,0.0,0.0,0.0,0.0,0.0,0.0,0.0,0.0,0.0,0.0,0.0,0.0,0.0,0.0,0.0,0.0,0.0,0.0,0.0,0.0,0.0,0.0,0.0,0.0,0.0,0.0,0.0,0.0,0.0,0.0,0.0,0.0,0.0,0.0,0.0,0.0,0.0,0.0,0.0,0.0,0.0,0.0,0.0,0.0,0.0,0.0,0.0,0.0,0.0,0.0,0.0,0.0,0.0,0.0,0.0,0.0,0.0,0.0,0.0,0.0,0.0,0.0,0.0,0.0,0.0,0.0,0.0,0.0,0.0,0.0,0.0,0.0,0.0,0.0,0.0,0.0,0.0,0.0,0.075,-0.2484,-0.4187,-0.3973,-0.5478,-0.6451,0.0,0.0,0.0,0.0,0.0,0.0,0.0,0.0,0.0,0.0,0.0,0.0,0.0,0.0,0.0,0.0,0.0,0.0,0.0,0.0,0.0,0.0,0.0,0.0,0.0,0.0,0.0,0.0,0.0,0.0,0.0,0.0,0.0,0.0,0.0,0.0,0.0,0.0,0.0,0.0,0.0,0.0,0.0,0.0,0.0,0.0,0.0,0.0,0.0,0.0,0.0,0.0,0.0,0.0,0.0,0.0,0.0,0.0,0.0,0.0,0.0,0.0,0.0,0.0,0.0,0.0,0.0,0.0,0.0,0.0,0.0,0.0,0.0,0.0,0.0,0.0,0.0,0.0,0.0,0.0,0.0,0.0,0.0,0.0,0.0,0.0,0.0,0.0,0.0,0.0,0.0,0.0,0.0,0.0,0.0,0.0,0.0,0.0,0.0,0.0,0.0,0.0,0.0,0.0,0.0,0.0,0.0,0.0,0.0,-0.4704,-0.6582,-0.7829,-0.8116,-0.9333,-0.9577,-0.8771,0.0,0.0,0.0,0.0,0.0,0.0,0.0,0.0,0.0,0.0,0.0,0.0,0.0,0.0,0.0,0.0,0.0,0.0,0.0,0.0,0.0,0.0,0.0,0.0,0.0,0.0,0.0,0.0,0.0,0.0,0.0,0.0,0.0,0.0,0.0,0.0,0.0,0.0,0.0,0.0,0.0,0.0,0.0,0.0,0.0,0.0,0.0,0.0,0.0,0.0,0.0,0.0,0.0,0.0,0.0,0.0,0.0,0.0,0.0,0.0,0.0,0.0,0.0,0.0,0.0,0.0,0.0,0.0,0.0,0.0,0.0,0.0,0.0,0.0,0.0,0.0,0.0,0.0,0.0,0.0,0.0,0.0,0.0,0.0,0.0,0.0,0.0,0.0,0.0,0.0,0.0,0.0,0.0,0.0,0.0,0.0,0.0,0.0,0.0,0.0,0.0,0.0,0.0,0.0,0.0,0.0,0.0,0.0,-1.1287,-1.3746,-1.4814,-1.4419,-1.466,-1.3752,0.0,0.0,0.0,0.0,0.0,0.0,0.0,0.0,0.0,0.0,0.0,0.0,0.0,0.0,0.0,0.0,0.0,0.0,0.0,0.0,0.0,0.0,0.0,0.0,0.0,0.0,0.0,0.0,0.0,0.0,0.0,0.0,0.0,0.0,0.0,0.0,0.0,0.0,0.0,0.0,0.0,0.0,0.0,0.0,0.0,0.0,0.0,0.0,0.0,0.0,0.0,0.0,0.0,0.0,0.0,0.0,0.0,0.0,0.0,0.0,0.0,0.0,0.0,0.0,0.0,0.0,0.0,0.0,0.0,0.0,0.0,0.0,0.0,0.0,0.0,0.0,0.0,0.0,0.0,0.0,0.0,0.0,0.0,0.0,0.0,0.0,0.0,0.0,0.0,0.0,0.0,0.0,0.0,0.0,0.0,0.0,0.0,0.0,0.0,0.0,0.0,0.0,0.0,0.0,0.0,0.0,0.0,0.0,0.0,-1.3766,-1.8273,-1.9746,-1.7729,-1.6528,-1.5597,0.0,0.0,0.0,0.0,0.0,0.0,0.0,0.0,0.0,0.0,0.0,0.0,0.0,0.0,0.0,0.0,0.0,0.0,0.0,0.0,0.0,0.0,0.0,0.0,0.0,0.0,0.0,0.0,0.0,0.0,0.0,0.0,0.0,0.0,0.0,0.0,0.0,0.0,0.0,0.0,0.0,0.0,0.0,0.0,0.0,0.0,0.0,0.0,0.0,0.0,0.0,0.0,0.0,0.0,0.0,0.0,0.0,0.0,0.0,0.0,0.0,0.0,0.0,0.0,0.0,0.0,0.0,0.0,0.0,0.0,0.0,0.0,0.0,0.0,0.0,0.0,0.0,0.0,0.0,0.0,0.0,0.0,0.0,0.0,0.0,0.0,0.0,0.0,0.0,0.0,0.0,0.0,0.0,0.0,0.0,0.0,0.0,0.0,0.0,0.0,0.0,0.0,0.0,0.0,0.0,0.0,0.0,0.0,-1.3594,-1.5176,-2.0899,-2.3179,-2.1656,-1.9265,-1.747,0.0,0.0,0.0,0.0,0.0,0.0,0.0,0.0,0.0,0.0,0.0,0.0,0.0,0.0,0.0,0.0,0.0,0.0,0.0,0.0,0.0,0.0,0.0,0.0,0.0,0.0,0.0,0.0,0.0,0.0,0.0,0.0,0.0,0.0,0.0,0.0,0.0,0.0,0.0,0.0,0.0,0.0,0.0,0.0,0.0,0.0,0.0,0.0,0.0,0.0,0.0,0.0,0.0,0.0,0.0,0.0,0.0,0.0,0.0,0.0,0.0,0.0,0.0,0.0,0.0,0.0,0.0,0.0,0.0,0.0,0.0,0.0,0.0,0.0,0.0,0.0,0.0,0.0,0.0,0.0,0.0,0.0,0.0,0.0,0.0,0.0,0.0,0.0,0.0,0.0,0.0,0.0,0.0,0.0,0.0,0.0,0.0,0.0,0.0,0.0,0.0,0.0,0.0,0.0,0.0,0.0,0.0,0.0,-1.5116,-1.601,-2.2092,-2.533,-2.5297,-2.2158,-1.9294,0.0,0.0,0.0,0.0,0.0,0.0,0.0,0.0,0.0,0.0,0.0,0.0,0.0,0.0,0.0,0.0,0.0,0.0,0.0,0.0,0.0,0.0,0.0,0.0,0.0,0.0,0.0,0.0,0.0,0.0,0.0,0.0,0.0,0.0,0.0,0.0,0.0,0.0,0.0,0.0,0.0,0.0,0.0,0.0,0.0,0.0,0.0,0.0,0.0,0.0,0.0,0.0,0.0,0.0,0.0,0.0,0.0,0.0,0.0,0.0,0.0,0.0,0.0,0.0,0.0,0.0,0.0,0.0,0.0,0.0,0.0,0.0,0.0,0.0,0.0,0.0,0.0,0.0,0.0,0.0,0.0,0.0,0.0,0.0,0.0,0.0,0.0,0.0,0.0,0.0,0.0,0.0,0.0,0.0,0.0,0.0,0.0,0.0,0.0,0.0,0.0,0.0,0.0,0.0,0.0,0.0,0.0,0.0,-1.5288,-1.6453,-2.2219,-2.533,-2.5398,-2.2711,-2.0654,0.0,0.0,0.0,0.0,0.0,0.0,0.0,0.0,0.0,0.0,0.0,0.0,0.0,0.0,0.0,0.0,0.0,0.0,0.0,0.0,0.0,0.0,0.0,0.0,0.0,0.0,0.0,0.0,0.0,0.0,0.0,0.0,0.0,0.0,0.0,0.0,0.0,0.0,0.0,0.0,0.0,0.0,0.0,0.0,0.0,0.0,0.0,0.0,1.016,0.0,0.0,0.0,0.0,0.0,0.0,0.0,0.0,0.0,0.0,0.0,0.0,0.0,0.0,0.0,0.0,0.0,0.0,0.0,0.0,0.0,0.0,0.0,0.0,0.0,0.0,0.0,0.0,0.0,0.0,0.0,0.0,0.0,0.0,0.0,0.0,0.0,0.0,0.0,0.0,0.0,0.0,0.0,0.0,0.0,0.0,0.0,0.0,0.0,0.0,0.0,0.0,0.0,0.0,0.0,0.0,0.0,0.0,0.0,-1.4446,-1.2932,-2.0966,-2.5391,-2.542,-2.3718,-2.1933,0.0,0.0,0.0,0.0,0.0,0.0,0.0,0.0,0.0,0.0,0.0,0.0,0.0,0.0,0.0,0.0,0.0,0.0,0.0,0.0,0.0,0.0,0.0,0.0,0.0,0.0,0.0,0.0,0.0,0.0,0.0,0.0,0.0,0.0,0.0,0.0,0.0,0.0,0.0,0.0,0.0,0.0,0.0,0.0,0.0,0.0,0.0,0.0,0.0,0.0,0.0,0.0,0.0,0.0,0.0,0.0,0.0,0.0,0.0,0.0,0.0,0.0,0.0,0.0,0.0,0.0,0.0,0.0,0.0,0.0,0.0,0.0,0.0,0.0,0.0,0.0,0.0,0.0,0.0,0.0,0.0,0.0,0.0,0.0,0.0,0.0,0.0,0.0,0.0,0.0,0.0,0.0,0.0,0.0,0.0,0.0,0.0,0.0,0.0,0.0,0.0,0.0,0.0,0.0,0.0,0.0,0.0,-1.0721,-1.437,-1.1015,-2.0231,-2.5477,-2.5559,-2.455,-2.2754,-2.0087,0.0,0.0,0.0,0.0,0.0,0.0,0.0,0.0,0.0,0.0,0.0,0.0,0.0,0.0,0.0,0.0,0.0,0.0,0.0,0.0,0.0,0.0,0.0,0.0,0.0,0.0,0.0,0.0,0.0,0.0,0.0,0.0,0.0,0.0,0.0,0.0,0.0,0.0,0.3149,-0.1091,0.0,0.0,0.0,0.0,0.0,0.0,0.0,0.0,0.5952,0.0,0.0,0.0,0.0,0.0,0.0,0.0,0.0,0.0,0.0,0.0,0.0,0.0,0.0,0.0,0.0,0.0,0.0,0.0,0.0,0.0,0.0,0.0,0.0,0.0,0.0,0.0,0.0,0.0,0.0,0.0,0.0,0.0,0.0,0.0,0.0,0.0,0.0,0.0,0.0,0.0,0.0,0.0,0.0,0.0,0.0,0.0,0.0,0.0,0.0,0.0,0.0,0.0,0.0,0.0,0.0,-1.0042,-1.5201,-1.8528,-2.002,-2.3514,-2.5477,-2.554,-2.3984,-2.2135,-2.0051,0.0,0.0,0.0,0.0,0.0,0.0,0.0,0.0,0.0,0.0,0.0,0.0,0.0,0.0,0.0,0.0,0.0,0.0,0.0,0.0,0.0,0.0,0.0,0.0,0.0,0.0,0.0,0.0,0.0,0.0,0.0,0.0,0.0,0.0,0.0,0.0,0.0,0.0,0.0,0.0091,-0.1097,0.0,0.0,0.0,0.0,0.0,0.0,0.0,0.0,0.2479,0.0,0.0,0.0,0.0,0.0,0.0,0.0,0.0,0.0,0.0,0.0,0.0,0.0,0.0,0.0,0.0,0.0,0.0,0.0,0.0,0.0,0.0,0.0,0.0,0.0,0.0,0.0,0.0,0.0,0.0,0.0,0.0,0.0,0.0,0.0,0.0,0.0,0.0,0.0,0.0,0.0,0.0,0.0,0.0,0.0,0.0,0.0,0.0,0.0,0.0,0.0,0.0,0.0,0.0,0.0,-0.8169,-1.1147,-1.4289,-1.7258,-1.8344,-2.1037,-2.5404,-2.3901,-2.2065,0.0,0.0,0.0,0.0,0.0,0.0,0.0,0.0,0.0,0.0,0.0,0.0,0.0,0.0,0.0,0.0,0.0,0.0,0.0,0.0,0.0,0.0,0.0,0.0,0.0,0.0,0.0,0.0,0.0,0.0,0.0,0.0,0.0,0.0,0.0,0.0,0.0,0.0,0.0,0.0,0.2592,0.5371,0.3155,0.0,0.0,0.0,0.0,0.0,0.0,-0.291,-0.3142,0.0,0.0,0.0,0.0,0.0,0.0,0.0,0.0,0.0,0.0,0.0,0.0,0.0,0.0,0.0,0.0,0.0,0.0,0.0,0.0,0.0,0.0,0.0,0.0,0.0,0.0,0.0,0.0,0.0,0.0,0.0,0.0,0.0,0.0,0.0,0.0,0.0,0.0,0.0,0.0,0.0,0.0,0.0,0.0,0.0,0.0,0.0,0.0,0.0,0.0,0.0,0.0,0.0,0.0,0.0,-0.4224,-0.6492,-0.9426,-1.2613,-1.2785,-1.6921,-2.5293,-2.3615,-2.1812,0.0,0.0,0.0,0.0,0.0,0.0,0.0,0.0,0.0,0.0,0.0,0.0,0.0,0.0,0.0,0.0,0.0,0.0,0.0,0.0,0.0,0.0,0.0,0.0,0.0,0.0,0.0,0.0,0.0,0.0,0.0,0.0,0.0,0.0,0.0,0.0,0.0,0.0,0.0,0.0,0.0,0.8609,1.0055,0.1045,0.0,0.0,0.0,0.0,-0.5438,-0.8299,0.0,0.0,0.0,0.0,0.0,0.0,0.0,0.0,0.0,0.0,0.0,0.0,0.0,0.0,0.0,0.0,0.0,0.0,0.0,0.0,0.0,0.0,0.0,0.0,0.0,0.0,0.0,0.0,0.0,0.0,0.0,0.0,0.0,0.0,0.0,0.0,0.0,0.0,0.0,0.0,0.0,0.0,0.0,0.0,0.0,0.0,0.0,0.0,0.0,0.0,0.0,0.0,0.0,0.0,0.0,0.0,-0.5036,-0.6765,-0.9421,-1.2593,-1.2784,-1.6921,-2.5332,-2.2524,-2.0692,0.0,0.0,0.0,0.0,0.0,0.0,0.0,0.0,0.0,0.0,0.0,0.0,0.0,0.0,0.0,0.0,0.0,0.0,0.0,0.0,0.0,0.0,0.0,0.0,0.0,0.0,0.0,0.0,0.0,0.0,0.0,0.0,0.0,0.0,0.0,0.0,0.0,0.0,0.0,0.0,0.0,0.2173,0.955,0.2489,-0.567,0.0,0.0,-1.3019,-1.1272,-1.1659,0.0,0.0,0.0,0.0,0.0,0.0,0.0,0.0,0.0,0.0,0.0,0.0,0.0,0.0,0.0,0.0,0.0,0.0,0.0,0.0,0.0,0.0,0.0,0.0,0.0,0.0,0.0,0.0,0.0,0.0,0.0,0.0,0.0,0.0,0.0,0.0,0.0,0.0,0.0,0.0,0.0,0.0,0.0,0.0,0.0,0.0,0.0,0.0,0.0,0.0,0.0,0.0,0.0,0.0,0.0,-1.0673,-0.5289,-0.3219,-0.5677,-1.232,-0.8066,-1.1984,-2.5352,-2.2311,-2.0508,0.0,0.0,0.0,0.0,0.0,0.0,0.0,0.0,0.0,0.0,0.0,0.0,0.0,0.0,0.0,0.0,0.0,0.0,0.0,0.0,0.0,0.0,0.0,0.0,0.0,0.0,0.0,0.0,0.0,0.0,0.0,0.0,0.0,0.0,0.0,0.0,0.0,0.0,0.0,0.0,0.0,0.0,-0.131,0.7256,0.0,0.0,0.0,-1.4137,-1.3344,0.0,0.0,0.0,0.0,0.0,0.0,0.0,0.0,0.0,0.0,0.0,0.0,0.0,0.0,0.0,0.0,0.0,0.0,0.0,0.0,0.0,0.0,0.0,0.0,0.0,0.0,0.0,0.0,0.0,0.0,0.0,0.0,0.0,0.0,0.0,0.0,0.0,0.0,0.0,0.0,0.0,0.0,0.0,0.0,0.0,0.0,0.0,0.0,0.0,0.0,0.0,0.0,0.0,0.0,0.0,0.0,0.0,-0.2283,0.0897,-0.145,-0.9097,-0.3338,-0.7187,-2.1816,-1.9539,0.0,0.0,0.0,0.0,0.0,0.0,0.0,0.0,0.0,0.0,0.0,0.0,0.0,0.0,0.0,0.0,0.0,0.0,0.0,0.0,0.0,0.0,0.0,0.0,0.0,0.0,0.0,-0.7717,0.0,0.0,0.0,0.0,0.0,0.0,0.0,0.0,0.0,0.0,0.0,0.0,0.0,0.0,-1.1867,-1.0436,0.4541,0.7968,0.0,0.0,-1.5089,-1.476,-1.5871,-1.5613,0.0,0.0,0.0,0.0,0.0,0.0,0.0,0.0,0.0,0.0,0.0,0.0,0.0,0.0,0.0,0.0,0.0,0.0,0.0,0.0,0.0,0.0,0.0,0.0,0.0,0.0,0.0,0.0,0.0,0.0,0.0,0.0,0.0,0.0,0.0,0.0,0.0,0.0,0.0,0.0,0.0,0.0,0.0,0.0,0.0,0.0,0.0,0.0,0.0,0.0,0.0,0.0,0.0,0.0,0.0,0.5941,0.464,0.2058,-0.076,-0.033,-0.4395,-1.3359,-1.1899,-1.0229,0.0,0.0,0.0,0.0,0.0,0.0,0.0,0.0,0.0,0.0,0.0,0.0,0.0,0.0,0.0,0.0,0.0,0.0,0.0,0.0,0.0,0.0,0.0,0.0,0.0,0.0,0.0,0.0,0.0,0.0,0.0,0.0,0.0,0.0,0.0,0.0,0.0,0.0,0.0,0.0,0.0,-0.9889,-1.2968,-1.2612,-1.2643,0.0,0.0,-1.6086,-1.6277,-1.6837,-1.6232,-1.3279,0.0,0.0,0.0,0.0,0.0,0.0,0.0,0.0,0.0,0.0,0.0,0.0,0.0,0.0,0.0,0.0,0.0,0.0,0.0,0.0,0.0,0.0,0.0,0.0,0.0,0.0,0.0,0.0,0.0,0.0,0.0,0.0,0.0,0.0,0.0,0.0,0.0,0.0,0.0,0.0,0.0,0.0,0.0,0.0,0.0,0.0,0.0,0.0,0.0,0.0,0.0,0.0,0.0,-0.7901,0.6487,-0.0964,-0.3406,-0.0352,-0.5176,-0.9531,-1.2812,-1.1137,-0.9649,0.0,0.0,0.0,0.0,0.0,0.0,0.0,0.0,0.0,0.0,0.0,0.0,0.0,0.0,0.0,0.0,0.0,0.0,0.0,0.0,0.0,0.0,0.0,0.0,0.0,0.0,0.0,0.0,-0.8559,-0.9278,-1.1169,0.0,0.0,0.0,0.0,0.0,0.0,0.0,0.0,0.0,0.0,-1.2555,-1.2071,-1.4732,0.0,0.0,-1.5696,-1.6232,-1.5942,-1.5785,-1.4917,-1.259,-1.1435,0.0,0.0,0.0,0.0,0.0,0.0,0.0,0.0,0.0,0.0,0.0,0.0,0.0,0.0,0.0,0.0,0.0,0.0,0.0,0.0,0.0,0.0,0.0,0.0,0.0,0.0,0.0,0.0,0.0,0.0,0.0,0.0,0.0,0.0,0.0,0.0,0.0,0.0,0.0,0.0,0.0,0.0,0.0,0.0,0.0,0.0,0.0,0.0,0.0,0.0,0.0,0.0,-0.882,0.5929,-0.4947,-0.718,-0.0195,-0.8437,-1.168,-0.9141,-0.7802,-0.5421,0.0,0.0,0.0,0.0,0.0,0.0,0.0,0.0,0.0,0.0,0.0,0.0,0.0,0.0,0.0,0.0,0.0,0.0,0.0,0.0,0.0,0.0,0.0,0.0,0.0,0.0,0.0,0.0,-0.731,-0.8365,-1.3914,0.0,0.0,0.0,0.0,0.0,0.0,0.0,0.0,0.0,0.0,-1.48,-1.1431,-1.4745,-1.6851,-1.4702,-1.504,-1.535,-1.4889,-1.44,-1.3532,-1.1871,0.0,0.0,0.0,0.0,0.0,0.0,0.0,0.0,0.0,0.0,0.0,0.0,0.0,0.0,0.0,0.0,0.0,0.0,0.0,0.0,0.0,0.0,0.0,0.0,0.0,0.0,0.0,0.0,0.0,0.0,-1.0723,0.0,0.0,0.0,0.0,0.0,0.0,0.0,0.0,0.0,0.0,0.0,0.0,0.0,0.0,0.0,0.0,0.0,0.0,0.0,0.0,0.0,0.0,-0.964,0.458,-0.5877,-0.7662,-0.0703,-0.8516,-0.9102,-0.0879,0.0,0.4458,1.4185,0.0,0.0,0.0,0.0,0.0,0.0,0.0,0.0,0.0,0.0,0.0,0.0,0.0,0.0,0.0,0.0,0.0,0.0,0.0,0.0,0.0,0.0,0.0,0.0,0.0,0.0,-0.7351,-0.6924,-0.7676,0.0,0.0,0.0,0.0,0.0,0.0,0.0,0.0,0.0,0.0,-1.454,-1.5904,-1.1625,-1.4144,-1.5721,-1.3622,-1.3273,-1.3261,-1.3304,-1.2967,-1.2378,0.0,0.0,0.0,0.0,0.0,0.0,0.0,0.0,0.0,0.0,0.0,0.0,0.0,0.0,0.0,0.0,0.0,0.0,0.0,0.0,0.0,0.0,0.0,0.0,0.0,0.0,0.0,-1.3789,-1.3495,0.0,0.0,0.0,0.0,0.0,0.0,0.0,0.0,0.0,0.0,0.0,-1.9478,-1.9771,0.0,0.0,0.0,0.0,0.0,0.0,0.0,0.0,0.0,0.0,0.0,0.0,-1.3111,-0.4721,-1.4455,-1.6268,-0.9043,-1.6973,-1.457,0.0,0.0,0.4885,1.5001,0.0,0.0,0.0,0.0,0.0,0.0,0.0,0.0,0.0,0.0,0.0,0.0,0.0,0.0,0.0,0.0,0.0,0.0,0.0,0.0,0.0,0.0,0.0,0.0,0.0,-0.9802,0.0,0.0,0.0,0.0,0.0,0.0,0.0,0.0,0.0,0.0,0.0,-0.7635,-0.9684,-1.2139,-1.3868,-1.4224,-1.4305,-1.4335,0.0,0.0,0.0,0.0,0.0,0.0,0.0,0.0,0.0,0.0,0.0,0.0,0.0,0.0,-0.2367,-0.2209,-0.2334,-0.2691,-0.3474,0.0,0.0,0.0,0.0,0.0,0.0,0.0,0.0,0.0,0.0,0.0,0.0,0.0,0.0,-1.6977,0.0,-1.6002,0.0,0.0,0.0,0.0,0.0,0.0,0.0,0.0,-2.0186,-2.1222,-2.1223,-2.1479,-2.162,0.0,-2.139,-2.0633,0.0,0.0,0.0,0.0,0.0,0.0,0.0,0.0,-1.5687,-0.9557,-1.9303,-2.0873,-1.3637,-2.1269,-1.8945,-0.4941,0.1367,0.627,1.002,0.3374,-0.2009,0.0,0.0,0.0,0.0,0.0,0.0,0.0,0.0,0.0,0.0,0.0,0.0,0.0,0.0,0.0,0.0,0.0,0.0,0.0,0.0,0.0,0.0,0.0,-1.0998,0.0,0.0,0.0,0.0,0.0,0.0,0.0,0.0,0.0,-0.6102,-0.7357,-0.9291,-1.1729,-1.2753,-1.3807,-1.5173,0.0,0.0,0.0,0.0,0.0,0.0,0.0,-1.1246,-1.1023,-1.0143,-0.9404,-0.9113,-0.7755,-0.6635,-0.6458,0.0,0.0,-0.4605,-0.512,-0.5818,-0.6389,-0.4929,-0.4001,-0.5326,-0.5708,-0.66,0.0,0.0,0.0,0.0,0.0,0.0,0.0,0.0,-2.0342,-2.0331,0.0,-1.9373,0.0,0.0,0.0,0.0,0.0,-2.0435,0.0,0.0,-2.3733,-2.4508,-2.3098,-2.375,-2.4128,-2.409,-2.3352,-2.2959,-2.286,-2.1285,0.0,0.0,0.0,0.0,0.0,0.0,-1.7321,-1.0992,-2.0203,-2.1313,-1.3924,-2.1439,-2.1582,-1.2715,0.3828,0.9004,0.1504,0.9961,0.7735,-0.8162,-1.3119,0.0,0.0,0.0,0.0,0.0,0.0,0.0,0.0,0.0,0.0,0.0,0.0,0.0,0.0,0.0,0.0,0.0,0.0,0.0,0.0,-1.0464,0.0,0.0,0.0,0.0,0.0,0.0,0.0,0.0,0.0,0.0,-1.1784,-1.1836,-1.2877,-1.5726,0.0,0.0,0.0,0.0,-1.4479,-1.1325,-1.3071,-1.386,-1.1374,-1.1433,-1.1915,-1.2168,0.0,0.0,-1.0595,-1.0287,-0.9856,-0.9306,-0.9118,-0.845,-0.6615,-0.7662,-0.8496,-0.7658,-0.8282,-0.909,-0.926,-0.9477,-0.9999,-2.362,0.0,0.0,0.0,0.0,-2.1804,-2.1903,-2.2152,-2.2103,-2.21,-2.2023,-2.1118,0.0,0.0,0.0,0.0,0.0,0.0,-2.1885,-2.2289,-2.3879,-2.4666,-2.4771,-2.4993,-2.5098,-2.5084,-2.4903,-2.4829,-2.4813,-2.4374,-2.2681,-1.984,0.0,0.0,0.0,0.0,-2.062,-2.019,-2.3423,-2.4152,-2.1996,-2.4391,-2.1621,-1.3086,0.3867,1.1738,0.9336,1.2129,1.2064,0.8083,-1.1206,0.0,0.0,0.0,0.0,0.0,0.0,0.0,0.0,0.0,0.0,0.0,0.0,0.0,0.0,0.0,0.0,0.0,0.0,0.0,-1.2883,-1.3586,-1.3557,0.0,0.0,0.0,0.0,0.0,0.0,0.0,0.0,0.0,-1.4862,-1.1861,-1.0355,0.0,0.0,-1.2606,-1.2784,-1.2711,-1.287,-1.3741,-1.3765,0.0,0.0,-1.3139,-1.2401,-1.2838,-1.2784,-1.2555,-1.2381,-1.2195,-1.1958,-1.17,-1.3111,-1.3037,-0.9121,-0.9951,-1.1652,-1.2263,-1.1684,-1.128,-1.2136,-1.2498,-1.2779,-2.5006,-2.4056,-2.3602,-2.3456,-2.3484,-2.3358,-2.3521,-2.386,-2.3801,-2.3793,-2.3735,-2.2863,-2.2488,-2.2474,-2.166,0.0,0.0,0.0,-2.315,-2.3991,-2.4526,-2.5031,-2.5432,-2.5479,-2.5513,-2.5513,-2.5584,-2.5601,-2.5601,-2.531,-2.4101,-2.1971,0.0,0.0,-2.1208,-2.197,-2.2939,-2.41,-2.4938,-2.544,-2.5597,-2.567,-2.3221,-1.7891,-0.4551,0.4258,0.7715,1.1152,1.3437,1.4316,0.2239,-0.9071,0.0,0.0,0.0,0.0,0.0,0.0,0.0,0.0,0.0,0.0,0.0,-1.3347,-1.0816,0.0,0.0,0.0,-1.4499,-1.5641,-1.5796,-1.516,0.0,0.0,0.0,0.0,0.0,0.0,0.0,-1.685,-1.6472,-1.61,-1.6353,-1.3591,-1.2053,-1.3429,-1.2927,-1.2567,-1.2839,0.0,-1.3658,-1.495,-1.4792,-1.4651,-1.498,-1.4312,-1.3782,-1.4109,-1.3917,-1.3747,-1.3723,-1.3657,-1.3532,-1.3653,-1.5702,-1.6498,-1.2508,-1.3564,-1.5186,-1.5879,-1.4882,-1.4183,-1.4944,-1.528,-1.5557,-2.5601,-2.5515,-2.4655,-2.4266,-2.4205,-2.4206,-2.4601,-2.5293,-2.5293,-2.5313,-2.5245,-2.4505,-2.4187,-2.4149,-2.3431,0.0,-2.4283,-2.43,-2.4677,-2.5406,-2.5482,-2.5482,-2.5427,-2.5473,-2.5503,-2.5522,-2.557,-2.5605,-2.5568,-2.4881,-2.4492,-2.4512,-2.4506,-2.3998,-2.3108,-2.3856,-2.43,-2.43,-2.5138,-2.5606,-2.5604,-2.5668,-2.5694,-2.5547,-1.7383,-0.875,-0.0234,0.832,1.3242,1.418,2.0859,1.0784,-1.8066,0.0,0.0,0.0,0.0,0.0,0.0,0.0,0.0,0.0,0.0,0.0,0.0,0.0,0.0,0.0,-1.653,0.0,-1.7293,-1.4954,0.0,0.0,0.0,-1.0725,-1.3775,-1.4374,-1.657,-2.1726,0.0,0.0,-1.6995,-1.648,-1.6462,-1.7441,-1.6018,-1.4671,-1.4084,-1.5176,-1.5873,-1.5362,-1.5942,-1.5926,-1.4811,-1.5081,-1.5411,-1.5316,-1.5074,-1.4767,-1.4835,-1.4869,-1.4687,-1.437,-1.7232,-1.9069,-1.7107,-1.776,-1.8641,-1.8366,-1.7733,-1.7244,-1.733,-1.7666,-1.7946,-2.5584,-2.5511,-2.5289,-2.5156,-2.5085,-2.5023,-2.513,-2.5313,-2.5313,-2.5313,-2.5284,-2.5101,-2.5024,-2.5005,-2.4812,-2.485,-2.5051,-2.5101,-2.5207,-2.5401,-2.5531,-2.5547,-2.5473,-2.5601,-2.5611,-2.5573,-2.5657,-2.5682,-2.5662,-2.5488,-2.5391,-2.5391,-2.539,-2.4627,-2.3179,-2.3886,-2.43,-2.43,-2.5169,-2.5629,-2.5658,-2.5701,-2.5703,-2.5644,-1.7383,-0.8848,-0.0273,0.8301,1.5937,2.2148,1.8535,1.5406,1.3751,0.2766,0.0,0.0,0.0,0.0,0.0,0.0,0.0,0.0,0.0,-1.4727,-1.267,0.0,-1.8001,0.0,-1.8495,-1.7704,-1.1121,-0.9694,0.0,0.0,-0.8414,-1.4343,-1.9563,-2.0247,-2.0827,-2.2147,-2.0783,-1.9635,-1.9325,-1.8965,-1.9028,-1.9939,-1.9105,-1.7773,-1.595,-1.6007,-1.6471,-1.6683,-1.6585,-1.6388,-1.5989,-1.5732,-1.5514,-1.4998,-1.5189,-1.5531,-1.5915,-1.6039,-1.6051,-1.6046,-1.7825,-1.9591,-2.059,-2.0392,-2.0066,-2.04,-1.9441,-1.8521,-1.8788,-1.8786,-1.8617,-2.5479,-2.5459,-2.5441,-2.5391,-2.5354,-2.5365,-2.5357,-2.5329,-2.5313,-2.5313,-2.5313,-2.5313,-2.5313,-2.5313,-2.5313,-2.5303,-2.5357,-2.5395,-2.5386,-2.5401,-2.5517,-2.5526,-2.5451,-2.5561,-2.5605,-2.5603,-2.5636,-2.5662,-2.5703,-2.5703,-2.5703,-2.5703,-2.5703,-2.5019,-2.3769,-2.4508,-2.4934,-2.4915,-2.5412,-2.5673,-2.5703,-2.5701,-2.5523,-2.5017,-2.0546,-1.3769,-0.4863,0.0078,0.6562,1.4746,1.0996,1.3769,2.457,0.6256,-0.7009,0.0,0.0,0.0,0.0,0.0,0.0,0.0,0.0,0.0,0.0,0.0,-2.049,-1.878,-2.0948,-1.856,-0.9108,-0.7695,-0.377,0.5046,0.0152,-0.8646,-2.0916,-2.2561,-2.2598,-2.2321,-2.1737,-1.9467,-1.4729,-1.3782,-1.2824,-1.0931,-1.2157,-1.4429,-1.7211,-1.7822,-1.7855,-1.7678,-1.6994,-1.6602,-1.6832,-1.6638,-1.6437,-1.6303,-1.6468,-1.6844,-1.7136,-1.7531,-1.7733,-1.7436,-1.8788,-2.0542,-2.194,-2.1374,-2.0787,-2.1147,-2.0687,-2.0088,-2.0088,-1.9758,-1.9483,-2.5394,-2.5386,-2.532,-2.5322,-2.5321,-2.5376,-2.5386,-2.5383,-2.534,-2.5313,-2.5313,-2.5313,-2.5313,-2.5313,-2.5303,-2.5357,-2.5394,-2.542,-2.542,-2.5415,-2.5482,-2.5451,-2.5401,-2.5477,-2.5535,-2.5587,-2.5573,-2.5629,-2.5683,-2.5683,-2.5703,-2.5703,-2.5703,-2.5332,-2.4629,-2.5312,-2.5703,-2.5703,-2.5696,-2.5694,-2.5703,-2.5696,-2.5278,-2.4459,-2.4411,-1.9941,-1.0741,-1.0215,-0.625,0.1973,0.2656,0.8788,2.146,0.5151,-0.7228,0.0,-1.1893,0.0,0.0,0.0,0.0,0.0,0.0,0.0,0.0,-1.9816,-2.1185,-2.252,-2.3217,-1.9114,-0.8244,-0.7054,-0.143,1.1819,1.1585,0.31,-1.3761,-1.8417,-1.9041,-1.649,-1.7912,-1.5323,-0.5751,-0.5479,-0.4783,-0.2046,-0.5952,-1.1925,-1.7998,-1.9703,-1.9192,-1.8302,-1.731,-1.6918,-1.7326,-1.7679,-1.7866,-1.8021,-1.8051,-1.821,-1.826,-1.8881,-1.9236,-1.8806,-1.9977,-2.1387,-2.2175,-2.1702,-2.131,-2.1632,-2.154,-2.1352,-2.1134,-2.0699,-2.0416,-2.5386,-2.5386,-2.5391,-2.5408,-2.5465,-2.5415,-2.536,-2.5303,-2.5303,-2.5313,-2.5313,-2.5313,-2.5313,-2.5293,-2.5354,-2.5391,-2.5394,-2.5446,-2.5493,-2.5473,-2.5484,-2.5457,-2.5401,-2.5457,-2.5488,-2.546,-2.5479,-2.5554,-2.5629,-2.5629,-2.5658,-2.5703,-2.5703,-2.5625,-2.5488,0.0,0.0,0.0,-2.5703,-2.5703,-2.5703,-2.5703,-2.5292,-2.4453,-2.4424,0.0,-1.0896,-1.0287,-0.6289,0.1992,0.2617,0.0,0.0,0.0,0.0,0.0,0.0,0.0,0.0,0.0,0.0,0.0,-2.0485,-2.0392,-1.9659,-2.0457,-2.1585,-2.2812,-2.3621,-1.7741,-0.2591,-0.4891,0.0806,2.0289,2.2578,2.0692,1.6461,0.4562,0.1218,1.482,0.5167,-0.0646,0.4413,-0.2508,-0.8884,-0.7577,-1.3944,-1.8825,-2.04,-2.0035,-1.9391,-1.8626,-1.7909,-1.7531,-1.7882,-1.8615,-1.8897,-1.8384,-1.8446,-1.8844,-1.9244,-1.9411,-1.9858,-2.0184,-2.1336,-2.2039,-2.2265,-2.2157,-2.2024,-2.2158,-2.213,-2.2123,-2.2032,-2.1415,-2.0862,-2.5346,0.0,-2.5346,-2.5379,0.0,-2.5371,-2.533,-2.5313,-2.5313,-2.5313,-2.5313,-2.5313,-2.5313,-2.5313,-2.5339,-2.5346,-2.5346,-2.5383,-2.5386,-2.5406,-2.5386,-2.5383,-2.5354,-2.5383,-2.5406,-2.5386,-2.5415,-2.5513,-2.5598,-2.5601,-2.5634,-2.5703,-2.5703,-2.5703,-2.5703,-2.5703,-2.5703,-2.5703,-2.5703,-2.5703,-2.5703,-2.5703,-2.5273,-2.4449,0.0,0.0,0.0,0.0,0.0,0.0,0.0,0.0,0.0,0.0,0.0,-1.0324,-1.251,-1.416,-1.4531,-1.4917,-1.7381,-2.243,-2.3121,-2.2853,-2.1859,-2.254,-2.322,-2.3739,-2.4155,-1.753,-0.1557,-0.4258,0.1426,2.2461,2.5703,2.5703,2.4883,1.8374,1.6477,2.1606,0.8076,-0.0904,0.8394,-0.1961,-0.7911,-0.5506,-1.1083,-1.6159,-1.5988,-1.8041,-1.9626,-1.9676,-1.8617,-1.819,-1.8994,-1.9722,-2.0143,-1.9671,-1.9728,-1.9958,-2.0235,-2.0429,-2.0667,-2.1007,-2.172,-2.2293,-2.2304,-2.2327,-2.2327,-2.2327,-2.2327,-2.2327,-2.2254,-2.1615,-2.1007,-2.5313,-2.5313,-2.5313,-2.5313,-2.5313,-2.5313,-2.5313,-2.5313,0.0,0.0,0.0,-2.5313,-2.5313,-2.5313,-2.5293,-2.5322,-2.5322,-2.533,-2.5339,-2.5339,-2.5331,-2.5322,-2.5322,-2.5293,-2.533,-2.5383,-2.5383,-2.5453,-2.5561,-2.5561,-2.5603,-2.5682,-2.5663,-2.5703,-2.5703,-2.5703,-2.5703,-2.5703,-2.5703,-2.5703,-2.5703,-2.5703,-2.5272,-2.4422,-2.4413,-2.4002,-2.3153,-2.3124,-2.3125,-2.3125,-2.3105,-2.25,-2.1191,-2.1777,-2.3223,-2.5293,-2.1572,-1.9781,-2.1106,-2.1149,-2.235,-2.5153,-2.5164,-2.4767,-2.4064,-2.4542,-2.4817,-2.4654,-2.4631,-1.8125,-0.2574,-0.3759,0.2451,2.3389,2.5701,2.3828,1.7949,1.999,1.9521,1.8136,0.3283,-0.4255,0.5938,-0.2616,-0.8073,-0.3286,-0.8683,-1.2283,-1.2563,-1.6961,-2.0307,-2.088,-1.9832,-1.9104,-2.0089,-2.1,-2.129,-2.1006,-2.1134,-2.1291,-2.1327,-2.1564,-2.1606,-2.1323,-2.191,-2.2349,-2.2456,-2.2456,-2.2389,-2.2327,-2.2327,-2.2327,-2.2254,-2.1675,-2.1134,-2.5313,-2.5313,-2.5313,-2.5313,-2.5313,-2.5313,-2.5313,-2.5313,-2.5313,-2.5313,-2.5313,-2.5313,-2.5313,-2.5293,-2.5363,-2.5391,-2.5398,-2.5447,-2.5463,0.0,-2.5427,-2.5383,-2.5395,-2.5331,-2.5293,-2.5313,-2.5313,-2.5346,-2.5421,-2.5428,-2.5479,-2.5603,-2.5607,-2.5657,-2.5703,-2.5703,-2.5703,-2.5703,-2.5703,-2.5703,-2.5703,-2.5703,-2.5293,-2.4472,-2.4434,-2.4023,-2.3222,-2.3223,-2.3203,-2.3184,-2.3125,-2.3008,-2.2871,-2.3574,-2.4531,-2.5195,-1.8359,-1.4082,-1.4413,-1.4186,-1.7385,-2.4444,-2.5284,-2.5135,-2.4858,-2.4807,-2.4808,-2.4775,-2.4779,-1.992,-0.8237,-0.3446,0.522,2.2009,2.5265,1.4824,-1.1309,-0.3716,0.3261,0.0065,-0.0562,-0.0669,0.0877,-0.5266,-1.069,-1.0116,-1.4765,-2.0167,-1.9812,-2.0603,-2.1195,-2.1786,-2.1289,-2.0749,-2.1052,-2.204,-2.232,-2.1553,-2.1961,-2.2317,-2.2288,-2.235,-2.2344,-2.2152,-2.2468,-2.2813,-2.3007,-2.2928,-2.2664,-2.2389,-2.2327,-2.2327,-2.2282,-2.184,-2.1399,-2.5313,-2.5313,-2.5313,-2.5313,-2.5313,-2.5313,-2.5313,-2.5313,-2.5313,-2.5313,-2.5313,-2.5313,-2.5313,-2.5293,-2.533,-2.5357,-2.5346,-2.5368,-2.5391,-2.5391,-2.5363,-2.5337,-2.5348,-2.5293,-2.5313,-2.5313,-2.5313,-2.5339,-2.5398,-2.5386,-2.5457,-2.5598,-2.5634,-2.5662,-2.5703,-2.5703,-2.5703,-2.5703,-2.5703,-2.5703,-2.5703,-2.5703,-2.5508,-2.5117,-2.5098,-2.4941,-2.457,-2.4551,-2.4551,-2.4551,-2.4531,-2.4531,-2.457,-2.4902,-2.5293,-2.5547,-2.2051,-1.9863,-1.9844,-1.9721,-2.1262,-2.4999,-2.5322,-2.5264,-2.5182,-2.5096,-2.5056,-2.5006,-2.4949,-2.0954,-1.164,-1.1945,-0.63,1.0513,0.4437,-0.7447,-1.9974,-1.8191,-1.0311,-0.4464,-0.4423,-0.5297,-0.529,-1.2124,-1.7077,-1.7615,-2.102,-2.2669,-2.2377,-2.2181,-2.2197,-2.2608,-2.2181,-2.1936,-2.2152,-2.2712,-2.2915,-2.2463,-2.2695,-2.2895,-2.294,-2.2925,-2.2902,-2.2798,-2.2863,-2.2975,-2.3147,-2.283,-2.2537,-2.2389,-2.2327,-2.2327,-2.2254,-2.1928,-2.1413,-2.5774,-2.5591,-2.5601,-2.5476,-2.5303,-2.5313,-2.5313,-2.5313,-2.5313,-2.5313,-2.5313,-2.5313,-2.5313,-2.5313,-2.5313,-2.5313,-2.5313,-2.5313,-2.5313,-2.5313,-2.5313,-2.5313,-2.5313,-2.5313,-2.5313,-2.5313,-2.5313,-2.534,-2.5379,-2.5376,-2.5453,-2.5567,-2.5637,-2.5683,-2.5703,-2.5703,-2.5703,-2.5703,-2.5703,-2.5703,-2.5703,-2.5703,-2.5703,-2.5703,-2.5684,-2.5703,-2.5703,-2.5703,-2.5703,-2.5703,-2.5703,-2.5703,-2.5703,-2.5703,-2.5703,-2.5703,-2.5703,-2.5683,-2.5659,-2.5567,-2.5498,-2.5406,-2.5346,-2.5293,-2.5331,-2.5303,-2.5283,-2.5212,-2.5128,-2.2276,-1.7468,-2.062,-1.9463,-0.7512,-1.614,-2.2612,-2.4099,-2.419,-1.9734,-0.7713,-1.0106,-1.3772,-1.4827,-1.9018,-2.2265,-2.2629,-2.32,-2.2993,-2.2624,-2.2755,-2.3003,-2.3183,-2.2798,-2.2517,-2.3087,-2.3369,-2.3397,-2.3338,-2.3383,-2.3446,-2.3454,-2.3446,-2.3437,-2.3432,-2.3312,-2.3153,-2.3014,-2.2775,-2.2453,-2.2371,-2.2327,-2.2327,-2.2282,-2.2049,-2.1552,-2.7159,-2.6544,-2.6428,-2.6024,-2.5322,-2.5313,-2.5313,-2.5313,-2.5313,-2.5313,-2.5313,-2.5313,-2.5313,-2.5313,-2.5313,-2.5313,-2.5313,-2.5313,-2.5313,-2.5313,-2.5313,-2.5313,-2.5313,-2.5313,-2.5313,-2.5313,-2.5313,-2.5293,-2.5313,-2.5313,-2.5395,-2.5493,-2.557,-2.5637,-2.5703,-2.5703,-2.5703,-2.5703,-2.5703,-2.5703,-2.5703,-2.5703,-2.5703,-2.5703,-2.5703,-2.5703,-2.5703,-2.5703,-2.5703,-2.5703,-2.5703,-2.5703,-2.5703,-2.5703,-2.5703,-2.5703,-2.5703,-2.5638,-2.5527,-2.558,-2.5539,-2.5408,-2.5348,-2.5333,-2.5364,-2.5339,-2.5303,-2.5293,-2.5284,-2.463,-2.4197,-2.4783,-2.4099,-2.1421,-2.2756,-2.419,-2.419,-2.419,-2.3343,-2.2041,-2.0791,-2.2233,-2.1226,-2.2328,-2.3059,-2.3223,-2.333,-2.3265,-2.3056,-2.3047,-2.3294,-2.3678,-2.3146,-2.2738,-2.3183,-2.3735,-2.3873,-2.3703,-2.3891,-2.3996,-2.3998,-2.4018,-2.4094,-2.3912,-2.3957,-2.358,-2.2851,-2.2563,-2.2686,-2.2398,-2.2327,-2.2327,-2.2327,-2.2254,-2.1974,-2.7082,-2.5899,-2.639,-2.6101,-2.536,-2.5313,-2.5313,-2.5313,-2.5313,-2.5313,-2.5313,-2.5313,-2.5313,-2.5313,-2.5313,-2.5313,-2.5313,-2.5313,-2.5313,-2.5313,-2.5313,-2.5313,-2.5313,-2.5313,-2.5313,-2.5313,-2.5313,-2.5313,-2.5303,-2.532,-2.5413,-2.5489,-2.5564,-2.5634,-2.5684,-2.5703,-2.5703,-2.5703,-2.5703,-2.5683,-2.5658,-2.5683,-2.5703,-2.5703,-2.5703,-2.5703,-2.5703,-2.5703,-2.5703,-2.5703,-2.5703,-2.5703,-2.5703,-2.5703,-2.5703,-2.5703,-2.5703,-2.5682,-2.5611,-2.5605,-2.5567,-2.5526,-2.5454,-2.5408,-2.5386,-2.5397,-2.539,-2.5313,-2.5313,-2.5313,-2.5313,-2.5313,-2.5236,-2.4998,-2.4518,-2.419,-2.419,-2.419,-2.4135,-2.4005,-2.3817,-2.3712,-2.3617,-2.3692,-2.3692,-2.361,-2.3732,-2.378,-2.3351,-2.345,-2.3928,-2.4369,-2.4222,-2.3989,-2.3905,-2.3976,-2.413,-2.4071,-2.4092,-2.419,-2.419,-2.419,-2.419,-2.419,-2.4024,-2.3519,-2.2473,-2.2405,-2.2453,-2.231,-2.2327,-2.2327,-2.2327,-2.2327,-2.218,-2.7236,-2.5822,-2.6101,-2.589,-2.5303,-2.5313,-2.5313,-2.5313,-2.5313,-2.5313,-2.5313,-2.5313,-2.5313,-2.5313,-2.5313,-2.5313,-2.5313,-2.5313,-2.5313,-2.5313,-2.5313,-2.5313,-2.5313,-2.5313,-2.5313,-2.5313,-2.5313,-2.5313,-2.5293,-2.5348,-2.5394,-2.5463,-2.5526,-2.5593,-2.5661,-2.5682,-2.5683,-2.5703,-2.5703,-2.5662,-2.5609,-2.5658,-2.5662,-2.5681,-2.5659,-2.5681,-2.5703,-2.5702,-2.5683,-2.5703,-2.5703,-2.5703,-2.5703,-2.5703,-2.5703,-2.5703,-2.5703,-2.5703,-2.5662,-2.5637,-2.5629,-2.5601,-2.5554,-2.5489,-2.5447,-2.5443,-2.539,-2.5332,-2.5313,-2.5313,-2.5313,-2.5313,-2.5179,-2.494,-2.4513,-2.4209,-2.419,-2.419,-2.419,-2.4171,-2.3986,-2.3932,-2.4097,-2.4059,-2.3891,-2.3983,-2.4245,-2.4364,-2.3852,-2.4061,-2.4478,-2.476,-2.5049,-2.4975,-2.4444,-2.4392,-2.4357,-2.4228,-2.4228,-2.4284,-2.4228,-2.419,-2.419,-2.4168,-2.3851,-2.338,-2.2586,-2.2344,-2.2372,-2.2327,-2.2327,-2.2327,-2.2327,-2.2327,-2.2327,-2.8063,-2.6505,-2.5697,-2.5399,-2.5313,-2.5313,-2.5313,-2.5313,-2.5313,-2.5313,-2.5313,-2.5313,-2.5313,-2.5313,-2.5313,-2.5313,-2.5313,-2.5313,-2.5313,-2.5313,-2.5313,-2.5313,-2.5313,-2.5313,-2.5313,-2.5313,-2.5313,-2.5313,-2.5313,-2.5293,-2.5339,-2.5394,-2.5415,-2.5468,-2.5595,-2.5607,-2.5636,-2.5684,-2.5703,-2.5681,-2.5605,-2.5603,-2.5603,-2.5601,-2.5551,-2.5567,-2.5681,-2.5654,-2.5634,-2.5703,-2.5684,-2.5703,-2.5703,-2.5703,-2.5703,-2.5703,-2.5703,-2.5682,-2.5633,-2.566,-2.5662,-2.5627,-2.5601,-2.5564,-2.5479,-2.5398,-2.534,-2.5313,-2.5313,-2.5313,-2.5313,-2.5313,-2.529,-2.5227,-2.4631,-2.4303,-2.4246,-2.4321,-2.4209,-2.4208,-2.4209,-2.4229,-2.4209,-2.3822,-2.3971,-2.4276,-2.4524,-2.4582,-2.4606,-2.4697,-2.4785,-2.4855,-2.5056,-2.5096,-2.4636,-2.4588,-2.4572,-2.4389,-2.4301,-2.441,-2.4284,-2.419,-2.419,-2.419,-2.4121,-2.3647,-2.2798,-2.244,-2.2491,-2.2457,-2.2344,-2.2327,-2.2327,-2.2327,-2.2327,-2.8121,-2.6582,-2.6255,-2.5832,-2.5303,-2.5313,-2.5313,-2.5313,-2.5313,-2.5313,-2.5313,-2.5313,-2.5313,-2.5313,-2.5313,-2.5313,-2.5313,-2.5313,-2.5313,-2.5313,-2.5313,-2.5313,-2.5313,-2.5313,-2.5313,-2.5313,-2.5313,-2.5313,-2.5313,-2.5313,-2.533,-2.5398,-2.5447,-2.5479,-2.5547,-2.5631,-2.5641,-2.5637,-2.5682,-2.5662,-2.5601,-2.5558,-2.5543,-2.5539,-2.5503,-2.5531,-2.5567,-2.5531,-2.5564,-2.5634,-2.5634,-2.5659,-2.5703,-2.5703,-2.5703,-2.5703,-2.5703,-2.5683,-2.5662,-2.5703,-2.5703,-2.5662,-2.5661,-2.5607,-2.552,-2.5453,-2.5376,-2.5318,-2.5313,-2.5313,-2.5313,-2.5313,-2.5301,-2.5263,-2.507,-2.4884,-2.4904,-2.49,-2.4794,-2.4542,-2.4524,-2.4607,-2.4508,-2.4353,-2.4348,-2.4629,-2.4755,-2.4809,-2.4831,-2.4981,-2.5103,-2.5126,-2.5212,-2.5182,-2.4902,-2.4785,-2.4704,-2.4447,-2.4312,-2.4338,-2.4284,-2.4209,-2.419,-2.419,-2.419,-2.3915,-2.3052,-2.2532,-2.259,-2.2479,-2.2338,-2.2327,-2.2327,-2.2327,-2.2327,-2.8044,-2.7063,-2.6717,-2.6447,-2.613,-2.5851,-2.5909,-2.612,-2.613,-2.614,-2.612,-2.586,-2.588,-2.5986,-2.5563,-2.5668,-2.5995,-2.561,-2.5313,-2.5313,-2.5313,-2.5313,-2.5313,-2.5313,-2.5313,-2.5313,-2.5313,-2.5313,-2.5313,-2.5313,-2.5312,-2.5371,-2.5408,-2.5453,-2.5493,-2.5573,-2.5605,-2.5576,-2.5634,-2.5634,-2.5564,-2.5513,-2.5471,-2.5471,-2.5453,-2.5465,-2.5508,-2.5531,-2.5554,-2.5579,-2.5629,-2.564,-2.5664,-2.5684,-2.5703,-2.5664,-2.5703,-2.5703,-2.5703,-2.5703,-2.5703,-2.5703,-2.5703,-2.5637,-2.5535,-2.5514,-2.5437,-2.5348,-2.5313,-2.5313,-2.5313,-2.5313,-2.5292,-2.5305,-2.5301,-2.5286,-2.5308,-2.5287,-2.5144,-2.4892,-2.4789,-2.481,-2.4808,-2.4724,-2.4752,-2.4842,-2.4943,-2.501,-2.5012,-2.5138,-2.5313,-2.5313,-2.5274,-2.5205,-2.5022,-2.4911,-2.4762,-2.4511,-2.4364,-2.4355,-2.4303,-2.4228,-2.419,-2.419,-2.4074,-2.3855,-2.3427,-2.2849,-2.2571,-2.2453,-2.2366,-2.2327,-2.2327,-2.2327,-2.2327,-2.7948,-2.7736,-2.6986,-2.714,-2.7525,-2.6909,-2.7082,-2.7621,-2.7736,-2.7621,-2.7448,-2.6909,-2.689,-2.7313,-2.612,-2.6236,-2.7198,-2.6217,-2.5601,-2.5563,-2.536,-2.538,-2.5543,-2.536,-2.5313,-2.5313,-2.5313,-2.5313,-2.5313,-2.5313,-2.5293,-2.5293,-2.5312,-2.5363,-2.5394,-2.5488,-2.5498,-2.5503,-2.5584,-2.5564,-2.5493,-2.5441,-2.5413,-2.5398,-2.5365,-2.5368,-2.5498,-2.5547,-2.5584,-2.5595,-2.5637,-2.5664,-2.5624,-2.5664,-2.5664,-2.5625,-2.5644,-2.5684,-2.5703,-2.5703,-2.5703,-2.5703,-2.5703,-2.5637,-2.5538,-2.55,-2.5441,-2.5352,-2.5322,-2.5313,-2.5303,-2.5303,-2.5313,-2.5303,-2.5303,-2.5302,-2.5302,-2.5293,-2.5303,-2.5201,-2.5038,-2.4832,-2.4832,-2.4872,-2.4937,-2.5012,-2.5138,-2.5234,-2.5233,-2.5264,-2.5284,-2.5313,-2.5293,-2.5225,-2.5107,-2.4965,-2.4788,-2.4613,-2.4505,-2.4426,-2.4284,-2.419,-2.419,-2.419,-2.419,-2.3976,-2.3638,-2.3109,-2.2764,-2.2625,-2.249,-2.2338,-2.2327,-2.2327,-2.2327,-2.8967,-2.7986,-2.8217,-2.814,-2.789,-2.7601,-2.7659,-2.789,-2.789,-2.789,-2.7736,-2.6986,-2.7082,-2.7505,-2.6697,-2.6832,-2.7794,-2.7313,-2.7101,-2.6909,-2.588,-2.5986,-2.6678,-2.587,-2.5313,-2.5313,-2.5313,-2.5313,-2.5313,-2.5313,-2.5313,-2.5322,-2.5348,-2.5346,-2.5348,-2.5441,-2.5473,-2.5434,-2.5489,-2.5526,-2.5489,-2.5434,-2.5386,-2.5386,-2.5376,-2.5368,-2.5371,-2.5376,-2.5408,-2.5471,-2.5488,-2.5498,-2.5524,-2.554,-2.558,-2.5603,-2.562,-2.5659,-2.5703,-2.5703,-2.5703,-2.5703,-2.5703,-2.5644,-2.558,-2.5571,-2.5506,-2.5398,-2.5394,-2.542,-2.535,-2.5348,-2.5357,-2.5293,-2.5313,-2.5313,-2.5313,-2.5313,-2.5313,-2.5303,-2.5212,-2.5149,-2.5138,-2.5152,-2.5171,-2.519,-2.5253,-2.5303,-2.5313,-2.5313,-2.5313,-2.5313,-2.5293,-2.5254,-2.5146,-2.4996,-2.4799,-2.462,-2.4493,-2.4409,-2.4266,-2.419,-2.419,-2.419,-2.419,-2.4072,-2.3739,-2.3417,-2.3087,-2.278,-2.2652,-2.249,-2.2349,-2.2327,-2.2327,-2.9794,-2.889,-2.9025,-2.9025,-2.8775,-2.8506,-2.8544,-2.8736,-2.8467,-2.8343,-2.814,-2.7101,-2.7274,-2.7909,-2.714,-2.7486,-2.864,-2.8217,-2.8236,-2.8467,-2.7063,-2.6928,-2.7659,-2.6486,-2.5572,-2.5341,-2.5313,-2.5313,-2.5313,-2.5313,-2.5313,-2.5303,-2.5329,-2.5348,-2.5313,-2.5386,-2.5428,-2.5383,-2.5428,-2.5451,-2.544,-2.5386,-2.5368,-2.5398,-2.5376,-2.5329,-2.5293,-2.5313,-2.533,-2.5398,-2.5415,-2.5449,-2.5453,-2.5434,-2.5476,-2.5542,-2.559,-2.5613,-2.5703,-2.5703,-2.5703,-2.5703,-2.5703,-2.5664,-2.5611,-2.5605,-2.5549,-2.5471,-2.5464,-2.5459,-2.5395,-2.5408,-2.5413,-2.5393,-2.5322,-2.5293,-2.5313,-2.5313,-2.5313,-2.5303,-2.5284,-2.5313,-2.5313,-2.5313,-2.5313,-2.5313,-2.5313,-2.5313,-2.5313,-2.5313,-2.5313,-2.5313,-2.5293,-2.5244,-2.5163,-2.5005,-2.4847,-2.4642,-2.4462,-2.4358,-2.4228,-2.4209,-2.419,-2.419,-2.419,-2.419,-2.3891,-2.3624,-2.3328,-2.3093,-2.2797,-2.2563,-2.2415,-2.231,-2.2327,-3.0379,-3.0283,-2.9514,-2.961,-3.0129,-2.9486,-2.9563,-3.0102,-2.9525,-2.9179,-2.8852,-2.764,-2.7736,-2.8563,-2.7659,-2.8179,-2.9775,-2.8929,-2.8948,-2.9486,-2.8621,-2.789,-2.7544,-2.6794,-2.6043,-2.538,-2.5313,-2.5313,-2.5313,-2.5313,-2.5313,-2.5293,-2.5293,-2.5293,-2.5313,-2.539,-2.5371,-2.5321,-2.5352,-2.5398,-2.5398,-2.5348,-2.5321,-2.5376,-2.5339,-2.5293,-2.5293,-2.5293,-2.5321,-2.5398,-2.5441,-2.5425,-2.5408,-2.5344,-2.5391,-2.5503,-2.5561,-2.5633,-2.5684,-2.5703,-2.5703,-2.5703,-2.5703,-2.5684,-2.5625,-2.5625,-2.5588,-2.5519,-2.5525,-2.5503,-2.5481,-2.5492,-2.5493,-2.5493,-2.5365,-2.5303,-2.5313,-2.5313,-2.5313,-2.5313,-2.5313,-2.5313,-2.5313,-2.5313,-2.5313,-2.5313,-2.5313,-2.5313,-2.5313,-2.5313,-2.5313,-2.5313,-2.5313,-2.5264,-2.5203,-2.5,-2.4832,-2.47,-2.453,-2.4411,-2.4266,-2.4247,-2.419,-2.419,-2.419,-2.419,-2.4113,-2.3837,-2.3522,-2.3189,-2.2915,-2.2643,-2.2453,-2.2349,-2.2327,-3.0209,-3.0348,-2.9947,-3.0017,-3.0359,-3.0121,-3.0179,-3.0359,-3.014,-2.9929,-2.9737,-2.8929,-2.889,-2.9852,-2.8929,-2.9198,-2.9975,-2.991,-2.9871,-3.016,-2.9313,-2.8044,-2.714,-2.6717,-2.614,-2.5399,-2.5313,-2.5313,-2.5313,-2.5313,-2.5313,-2.5313,-2.5313,-2.5313,-2.5322,-2.5322,-2.5303,-2.5293,-2.5313,-2.533,-2.5321,-2.5313,-2.5303,-2.5322,-2.5322,-2.5313,-2.5313,-2.5313,-2.5303,-2.5312,-2.5348,-2.5343,-2.534,-2.539,-2.5446,-2.5517,-2.5561,-2.5633,-2.5684,-2.5703,-2.5703,-2.5703,-2.5703,-2.5703,-2.5684,-2.5664,-2.5644,-2.5588,-2.5613,-2.5605,-2.5541,-2.5539,-2.5563,-2.5512,-2.5391,-2.5312,-2.5322,-2.5313,-2.5313,-2.5313,-2.5313,-2.5303,-2.5313,-2.5303,-2.5293,-2.5293,-2.5313,-2.5313,-2.5313,-2.5313,-2.5313,-2.5313,-2.5303,-2.5274,-2.5192,-2.4987,-2.4847,-2.476,-2.4623,-2.4512,-2.4393,-2.4321,-2.4247,-2.419,-2.419,-2.419,-2.419,-2.4074,-2.3714,-2.3346,-2.3135,-2.2883,-2.2508,-2.231,-2.2327,-3.0155,-3.0114,-3.0155,-3.0196,-3.0254,-3.0355,-3.0198,-2.989,-2.9852,-2.964,-2.9294,-2.8832,-2.9083,-2.9737,-2.9313,-2.9583,-3.0321,-3.0398,-3.0379,-3.0198,-2.9102,-2.7852,-2.6871,-2.6601,-2.614,-2.539,-2.5313,-2.5313,-2.5313,-2.5313,-2.5313,-2.5313,-2.5313,-2.5313,-2.5313,-2.5313,-2.5313,-2.5313,-2.5313,-2.5313,-2.5313,-2.5313,-2.5313,-2.5313,-2.5313,-2.5313,-2.5313,-2.5313,-2.5313,-2.5313,-2.5293,-2.5301,-2.5297,-2.5365,-2.5433,-2.5489,-2.5562,-2.5633,-2.5684,-2.5703,-2.5703,-2.5703,-2.5703,-2.5703,-2.5703,-2.5703,-2.5662,-2.5659,-2.5683,-2.5657,-2.5612,-2.5622,-2.5609,-2.5576,-2.5517,-2.5469,-2.5469,-2.5441,-2.5363,-2.533,-2.5357,-2.5354,-2.5322,-2.5302,-2.5293,-2.5303,-2.5313,-2.5313,-2.5313,-2.5313,-2.5313,-2.5313,-2.5274,-2.5264,-2.5224,-2.5061,-2.491,-2.4814,-2.478,-2.4666,-2.4613,-2.4481,-2.4414,-2.4339,-2.4283,-2.419,-2.419,-2.417,-2.3917,-2.361,-2.3392,-2.3063,-2.266,-2.236,-2.2349,-3.0071,-2.9731,-3.0142,-3.0215,-3.0075,-3.026,-3.0025,-2.9371,-2.941,-2.9044,-2.8544,-2.8255,-2.889,-2.9236,-2.9467,-2.9698,-3.0379,-3.0398,-3.0263,-2.9833,-2.8852,-2.7629,-2.6636,-2.636,-2.5937,-2.537,-2.5313,-2.5313,-2.5313,-2.5313,-2.5313,-2.5313,-2.5313,-2.5313,-2.5313,-2.5313,-2.5313,-2.5313,-2.5313,-2.5313,-2.5313,-2.5313,-2.5313,-2.5313,-2.5313,-2.5313,-2.5313,-2.5313,-2.5313,-2.5313,-2.5313,-2.5303,-2.5293,-2.5298,-2.5371,-2.5481,-2.5556,-2.5633,-2.5703,-2.5703,-2.5703,-2.5703,-2.5703,-2.5703,-2.5703,-2.5703,-2.5684,-2.5684,-2.5703,-2.5703,-2.5684,-2.5703,-2.5684,-2.5664,-2.5664,-2.5684,-2.5684,-2.5598,-2.5463,-2.5363,-2.544,-2.5421,-2.5379,-2.5324,-2.531,-2.5303,-2.5313,-2.5313,-2.5313,-2.5313,-2.5313,-2.5313,-2.5274,-2.5243,-2.5203,-2.5122,-2.5005,-2.4904,-2.4924,-2.4872,-2.487,-2.4779,-2.4668,-2.4543,-2.4357,-2.4246,-2.419,-2.4113,-2.3996,-2.3783,-2.3516,-2.3153,-2.2772,-2.2537,-2.2463,-2.9662,-2.9713,-2.9815,-2.9893,-3.0028,-3.0286,-3.0283,-3.0063,-3.0083,-2.989,-2.9833,-2.9813,-2.991,-3.0083,-3.0044,-3.0256,-3.0379,-3.0359,-3.0063,-2.9352,-2.9121,-2.7842,-2.6627,-2.6069,-2.5553,-2.5303,-2.5284,-2.5303,-2.5303,-2.5313,-2.5313,-2.5313,-2.5313,-2.5313,-2.5313,-2.5313,-2.5313,-2.5313,-2.5313,-2.5313,-2.5313,-2.5313,-2.5313,-2.5313,-2.5313,-2.5313,-2.5313,-2.5313,-2.5313,-2.5313,-2.5313,-2.5313,-2.5303,-2.5292,-2.5376,-2.5505,-2.5576,-2.5633,-2.5664,-2.5684,-2.5684,-2.5684,-2.5684,-2.5703,-2.5703,-2.5703,-2.5703,-2.5703,-2.5703,-2.5684,-2.5703,-2.5703,-2.5703,-2.5703,-2.5703,-2.5703,-2.5684,-2.5664,-2.5625,-2.5605,-2.5547,-2.5535,-2.5573,-2.5453,-2.5394,-2.5321,-2.5293,-2.5293,-2.5313,-2.5313,-2.5313,-2.5313,-2.5284,-2.5264,-2.5224,-2.5184,-2.5118,-2.5037,-2.5053,-2.5077,-2.505,-2.5025,-2.4892,-2.4662,-2.4375,-2.4301,-2.4208,-2.419,-2.4075,-2.3846,-2.3608,-2.3275,-2.2972,-2.2738,-2.25,-2.9927,-2.9397,-2.9607,-2.9765,-2.9893,-3.0109,-3.0049,-2.9917,-3.0256,-3.016,-2.9948,-3.0179,-3.0379,-3.0398,-3.0398,-3.0379,-3.0398,-3.0398,-3.0179,-2.9698,-2.9333,-2.8549,-2.7754,-2.6779,-2.6167,-2.5384,-2.5152,-2.5203,-2.5274,-2.5303,-2.5313,-2.5313,-2.5313,-2.5313,-2.5313,-2.5313,-2.5313,-2.5313,-2.5313,-2.5313,-2.5313,-2.5313,-2.5313,-2.5313,-2.5313,-2.5313,-2.5313,-2.5313,-2.5313,-2.5313,-2.5313,-2.5313,-2.5313,-2.5313,-2.5376,-2.5438,-2.5576,-2.5581,-2.5615,-2.5618,-2.5644,-2.5615,-2.5648,-2.5625,-2.5633,-2.5659,-2.566,-2.5631,-2.5625,-2.5644,-2.5658,-2.5664,-2.5664,-2.5703,-2.5703,-2.5703,-2.5703,-2.5703,-2.5703,-2.5684,-2.5654,-2.5636,-2.5629,-2.5543,-2.549,-2.5437,-2.536,-2.5343,-2.5313,-2.5313,-2.5313,-2.5313,-2.5313,-2.5284,-2.5274,-2.5234,-2.5214,-2.5182,-2.5192,-2.5203,-2.5201,-2.5187,-2.5111,-2.4798,-2.4468,-2.4264,-2.419,-2.4171,-2.4171,-2.4019,-2.3801,-2.3441,-2.3141,-2.2873,-2.259,-3.0359,-2.9062,-2.9456,-2.9643,-2.9696,-2.9842,-2.9699,-2.941,-2.9997,-2.9965,-2.949,-3.0047,-3.0299,-3.0311,-3.0273,-3.0286,-3.0286,-3.0323,-3.0183,-3.0087,-2.9667,-2.9121,-2.8624,-2.7992,-2.6941,-2.5329,-2.5297,-2.5367,-2.5261,-2.5264,-2.5234,-2.5284,-2.5313,-2.5313,-2.5313,-2.5313,-2.5313,-2.5313,-2.5313,-2.5313,-2.5313,-2.5313,-2.5313,-2.5313,-2.5313,-2.5313,-2.5313,-2.5313,-2.5313,-2.5313,-2.5313,-2.5313,-2.5313,-2.5313,-2.5313,-2.5303,-2.5477,-2.5547,-2.5545,-2.5554,-2.5576,-2.5519,-2.5565,-2.5552,-2.5535,-2.5556,-2.5559,-2.5554,-2.555,-2.559,-2.5598,-2.5618,-2.5643,-2.5684,-2.5703,-2.5703,-2.5703,-2.5703,-2.5703,-2.5703,-2.5684,-2.5684,-2.5664,-2.5627,-2.5582,-2.5526,-2.5453,-2.5381,-2.5337,-2.5313,-2.5313,-2.5313,-2.5313,-2.5313,-2.5284,-2.5274,-2.5234,-2.5253,-2.5264,-2.5293,-2.5303,-2.5253,-2.5157,-2.4865,-2.4566,-2.4339,-2.419,-2.419,-2.417,-2.4151,-2.3996,-2.3671,-2.3369,-2.3021,-2.2747,-3.0039,-2.9021,-2.9312,-2.9472,-2.9474,-2.9661,-2.9687,-2.9677,-2.9923,-2.9999,-2.9884,-2.9999,-3.0075,-3.0047,-2.9896,-2.9832,-2.9943,-3.0018,-3.0075,-3.0136,-2.9934,-2.966,-2.8879,-2.8712,-2.7627,-2.6337,-2.5923,-2.5755,-2.521,-2.5065,-2.5173,-2.5274,-2.5313,-2.5313,-2.5274,-2.5284,-2.5264,-2.5264,-2.5264,-2.5274,-2.5303,-2.5313,-2.5313,-2.5313,-2.5313,-2.5313,-2.5313,-2.5313,-2.5313,-2.5313,-2.5313,-2.5313,-2.5313,-2.5313,-2.5313,-2.5331,-2.5398,-2.5457,-2.5484,-2.5504,-2.5527,-2.5522,-2.551,-2.5504,-2.5479,-2.5444,-2.544,-2.5474,-2.5498,-2.5546,-2.5598,-2.559,-2.5619,-2.5664,-2.5703,-2.5703,-2.5703,-2.5703,-2.5703,-2.5703,-2.5703,-2.5703,-2.5684,-2.5659,-2.5618,-2.5582,-2.5522,-2.5465,-2.541,-2.5339,-2.5313,-2.5313,-2.5313,-2.5313,-2.5303,-2.5284,-2.5274,-2.5274,-2.5293,-2.5264,-2.5293,-2.5303,-2.5149,-2.4884,-2.4582,-2.4284,-2.419,-2.419,-2.419,-2.417,-2.4054,-2.3896,-2.3584,-2.323,-2.2958,-3.0474,-2.9053,-2.9156,-2.9267,-2.9394,-2.9494,-2.9607,-2.9713,-2.9815,-2.9845,-2.9845,-2.9845,-2.9908,-2.9954,-2.9905,-2.9842,-2.9861,-2.9813,-2.9908,-3.0018,-2.9999,-2.9865,-2.9204,-2.9266,-2.8506,-2.7497,-2.6953,-2.6174,-2.5256,-2.5163,-2.5203,-2.5274,-2.5303,-2.5253,-2.5163,-2.5122,-2.5152,-2.5152,-2.5152,-2.5203,-2.5293,-2.5303,-2.5303,-2.5303,-2.5313,-2.5313,-2.5313,-2.5313,-2.5313,-2.5313,-2.5313,-2.5313,-2.5313,-2.5313,-2.5313,-2.5313,-2.5363,-2.5379,-2.542,-2.5421,-2.5434,-2.5406,-2.5406,-2.5398,-2.5383,-2.5333,-2.5328,-2.5367,-2.5386,-2.5447,-2.5527,-2.5556,-2.5602,-2.5664,-2.5703,-2.5703,-2.5703,-2.5703,-2.5703,-2.5703,-2.5703,-2.5703,-2.5703,-2.5681,-2.5654,-2.562,-2.5587,-2.5537,-2.548,-2.5401,-2.5332,-2.5313,-2.5313,-2.5313,-2.5313,-2.5313,-2.5313,-2.5313,-2.5284,-2.5274,-2.5233,-2.5233,-2.5141,-2.4936,-2.4615,-2.4228,-2.419,-2.419,-2.419,-2.419,-2.4113,-2.3996,-2.3732,-2.3432,-2.3177,-3.0762,-2.8975,-2.8975,-2.9115,-2.9289,-2.933,-2.9395,-2.9551,-2.9626,-2.9625,-2.9625,-2.9643,-2.9712,-2.9845,-2.9877,-2.9858,-2.9924,-2.9782,-2.9796,-2.9861,-2.9815,-2.9777,-2.9777,-2.9666,-2.9113,-2.8101,-2.7525,-2.6654,-2.5704,-2.5288,-2.5234,-2.5264,-2.5274,-2.5163,-2.5034,-2.5005,-2.4974,-2.4962,-2.4981,-2.5072,-2.5212,-2.5292,-2.5302,-2.5303,-2.5313,-2.5313,-2.5313,-2.5313,-2.5313,-2.5313,-2.5313,-2.5313,-2.5313,-2.5313,-2.5313,-2.5303,-2.5354,-2.5329,-2.5339,-2.5357,-2.5352,-2.5321,-2.5303,-2.5293,-2.5303,-2.5312,-2.5313,-2.5313,-2.5303,-2.5363,-2.5471,-2.5509,-2.5561,-2.5664,-2.5703,-2.5703,-2.5703,-2.5703,-2.5703,-2.5703,-2.5703,-2.5703,-2.5703,-2.5703,-2.566,-2.5659,-2.5633,-2.559,-2.5522,-2.544,-2.537,-2.5332,-2.5313,-2.5313,-2.5313,-2.5313,-2.5313,-2.5313,-2.5284,-2.5274,-2.5203,-2.513,-2.5013,-2.4875,-2.4515,-2.419,-2.419,-2.419,-2.419,-2.419,-2.419,-2.4054,-2.3753,-2.3628,-2.3477,-3.0089,-2.8975,-2.8975,-2.8998,-2.9044,-2.9067,-2.9067,-2.9138,-2.9353,-2.9434,-2.9415,-2.9434,-2.9454,-2.9513,-2.9513,-2.9589,-2.9678,-2.966,-2.966,-2.9765,-2.9696,-2.9644,-2.957,-2.9643,-2.9194,-2.8462,-2.7827,-2.7023,-2.6211,-2.5478,-2.5141,-2.5224,-2.5152,-2.5022,-2.501,-2.4904,-2.4814,-2.4832,-2.4847,-2.491,-2.5049,-2.5199,-2.5286,-2.5292,-2.5303,-2.5313,-2.5313,-2.5313,-2.5313,-2.5313,-2.5313,-2.5313,-2.5313,-2.5313,-2.5313,-2.5313,-2.5303,-2.5303,-2.5293,-2.5322,-2.5312,-2.5293,-2.5313,-2.5313,-2.5313,-2.5313,-2.5313,-2.5313,-2.5313,-2.5348,-2.5454,-2.5483,-2.5576,-2.5644,-2.5703,-2.5703,-2.5703,-2.5703,-2.5703,-2.5703,-2.5703,-2.5703,-2.5703,-2.5703,-2.5703,-2.5703,-2.5684,-2.5644,-2.5566,-2.5464,-2.539,-2.5332,-2.5313,-2.5313,-2.5313,-2.5313,-2.5313,-2.5313,-2.5284,-2.5264,-2.5163,-2.5084,-2.4936,-2.4764,-2.4426,-2.4247,-2.419,-2.419,-2.419,-2.419,-2.419,-2.4016,-2.3774,-2.3714,-2.3735,-2.9406,-2.9017,-2.8975,-2.8975,-2.8975,-2.8975,-2.8975,-2.904,-2.913,-2.9178,-2.9178,-2.9178,-2.9246,-2.9353,-2.9373,-2.9472,-2.9494,-2.9415,-2.9476,-2.9644,-2.9607,-2.9607,-2.9731,-2.9713,-2.9325,-2.8984,-2.843,-2.7818,-2.6899,-2.5822,-2.5173,-2.5122,-2.5152,-2.5111,-2.4998,-2.4869,-2.4818,-2.4823,-2.4856,-2.4865,-2.4966,-2.5133,-2.5237,-2.5141,-2.5253,-2.5284,-2.5313,-2.5313,-2.5313,-2.5313,-2.5313,-2.5313,-2.5313,-2.5313,-2.5313,-2.5313,-2.5313,-2.5293,-2.5313,-2.5313,-2.5313,-2.5313,-2.5313,-2.5313,-2.5313,-2.5313,-2.5313,-2.5313,-2.5313,-2.5339,-2.5415,-2.5438,-2.5551,-2.5625,-2.5703,-2.5703,-2.5703,-2.5703,-2.5703,-2.5703,-2.5703,-2.5703,-2.5703,-2.5703,-2.5703,-2.5703,-2.5703,-2.5684,-2.5566,-2.5447,-2.5376,-2.5313,-2.5313,-2.5313,-2.5313,-2.5313,-2.5313,-2.5313,-2.5313,-2.5264,-2.5152,-2.503,-2.4962,-2.4883,-2.4708,-2.4508,-2.4303,-2.4228,-2.4247,-2.4228,-2.419,-2.4054,-2.3917,-2.3937,-2.3837,-2.9177,-2.8975,-2.8975,-2.8975,-2.8975,-2.8975,-2.8975,-2.8975,-2.8998,-2.8998,-2.8975,-2.9017,-2.9156,-2.9351,-2.9394,-2.9453,-2.9493,-2.9243,-2.9332,-2.9474,-2.9532,-2.957,-2.9584,-2.9564,-2.9451,-2.9639,-2.849,-2.8006,-2.7352,-2.6308,-2.5359,-2.5096,-2.5141,-2.5111,-2.4998,-2.4864,-2.4804,-2.479,-2.4712,-2.4727,-2.4851,-2.5056,-2.5095,-2.5122,-2.5192,-2.5313,-2.5313,-2.5313,-2.5313,-2.5313,-2.5313,-2.5313,-2.5313,-2.5313,-2.5313,-2.5313,-2.5313,-2.5313,-2.5313,-2.5313,-2.5313,-2.5313,-2.5313,-2.5313,-2.5313,-2.5313,-2.5313,-2.5313,-2.5313,-2.5322,-2.5374,-2.5411,-2.5519,-2.5611,-2.5703,-2.5703,-2.5703,-2.5703,-2.5703,-2.5703,-2.5703,-2.5703,-2.5703,-2.5703,-2.5703,-2.5703,-2.5703,-2.5703,-2.5586,-2.5449,-2.5371,-2.5322,-2.5303,-2.5293,-2.5313,-2.5313,-2.5313,-2.5313,-2.5313,-2.5274,-2.5203,-2.5163,-2.5149,-2.5049,-2.493,-2.4732,-2.4487,-2.4395,-2.4284,-2.4228,-2.419,-2.419,-2.4151,-2.4113,-2.3878,-2.9696,-2.8975,-2.8975,-2.8975,-2.8994,-2.8975,-2.9012,-2.8975,-2.8975,-2.8975,-2.8975,-2.8998,-2.9156,-2.9312,-2.9353,-2.9435,-2.9625,-2.9455,-2.9414,-2.9394,-2.9433,-2.9474,-2.942,-2.921,-2.9,-2.932,-2.8515,-2.7983,-2.7581,-2.6525,-2.5768,-2.5329,-2.513,-2.5034,-2.4986,-2.4923,-2.4814,-2.4737,-2.4595,-2.4561,-2.4727,-2.4903,-2.4972,-2.5037,-2.5182,-2.5303,-2.5303,-2.5313,-2.5428,-2.5447,-2.5486,-2.5332,-2.5351,-2.5466,-2.5505,-2.5332,-2.5486,-2.5447,-2.5341,-2.5313,-2.5313,-2.5313,-2.5313,-2.5313,-2.5313,-2.5313,-2.5313,-2.5313,-2.5313,-2.5312,-2.5387,-2.5472,-2.5492,-2.5554,-2.5625,-2.5644,-2.5664,-2.5703,-2.5703,-2.5703,-2.5703,-2.5703,-2.5703,-2.5703,-2.5703,-2.5703,-2.5703,-2.5703,-2.5605,-2.5493,-2.5387,-2.5332,-2.5313,-2.5303,-2.5293,-2.5313,-2.5313,-2.5313,-2.5313,-2.5313,-2.5274,-2.5264,-2.5253,-2.5171,-2.5024,-2.4858,-2.4708,-2.4649,-2.4539,-2.4303,-2.419,-2.419,-2.4016,-2.3837,-2.361,-2.9292,-2.8975,-2.8975,-2.8975,-2.9049,-2.9507,-2.9434,-2.903,-2.8975,-2.8975,-2.8975,-2.8998,-2.9062,-2.9134,-2.9138,-2.9181,-2.9251,-2.9203,-2.9246,-2.9351,-2.9394,-2.9455,-2.9401,-2.9362,-2.9324,-2.9307,-2.8544,-2.7796,-2.7389,-2.6638,-2.5842,-2.5321,-2.5106,-2.5111,-2.5096,-2.5,-2.4891,-2.4818,-2.4678,-2.4682,-2.4588,-2.4817,-2.4903,-2.4883,-2.503,-2.5192,-2.5274,-2.5303,-2.562,-2.5947,-2.6053,-2.5861,-2.564,-2.588,-2.5784,-2.5505,-2.5697,-2.5736,-2.536,-2.5313,-2.5313,-2.5313,-2.5313,-2.5313,-2.5313,-2.5313,-2.5313,-2.5313,-2.5313,-2.5312,-2.5331,-2.5361,-2.5404,-2.5473,-2.5527,-2.5566,-2.5644,-2.5684,-2.5703,-2.5703,-2.5703,-2.5703,-2.5703,-2.5703,-2.5703,-2.5703,-2.5703,-2.5682,-2.5601,-2.5522,-2.5425,-2.5331,-2.5331,-2.5293,-2.5303,-2.5293,-2.5313,-2.5313,-2.5313,-2.5313,-2.5313,-2.5303,-2.5264,-2.5203,-2.5096,-2.4879,-2.4794,-2.4901,-2.4715,-2.434,-2.4227,-2.419,-2.3937,-2.3649,-2.3455,-2.9365,-2.9365,-2.9384,-2.9214,-2.9085,-2.9604,-2.9507,-2.9067,-2.8975,-2.8975,-2.8975,-2.8975,-2.8975,-2.8975,-2.8998,-2.8998,-2.9044,-2.9021,-2.9115,-2.9225,-2.9372,-2.9474,-2.9514,-2.9398,-2.921,-2.927,-2.8855,-2.8152,-2.807,-2.6971,-2.6303,-2.5745,-2.5158,-2.5063,-2.5061,-2.5065,-2.4981,-2.4968,-2.4907,-2.4865,-2.4712,-2.512,-2.5356,-2.5454,-2.5786,-2.6121,-2.6273,-2.6332,-2.6294,-2.6582,-2.6697,-2.665,-2.6524,-2.6409,-2.6294,-2.6024,-2.5967,-2.6178,-2.5582,-2.5313,-2.5313,-2.5313,-2.5313,-2.5313,-2.5313,-2.5313,-2.5313,-2.5313,-2.5313,-2.5313,-2.5313,-2.5332,-2.539,-2.5464,-2.5402,-2.543,-2.5605,-2.5703,-2.5703,-2.5703,-2.5703,-2.5703,-2.5703,-2.5703,-2.5703,-2.5684,-2.5644,-2.5659,-2.5634,-2.5559,-2.5453,-2.5401,-2.535,-2.5331,-2.5313,-2.5303,-2.5313,-2.5313,-2.5313,-2.5313,-2.5313,-2.5313,-2.5303,-2.5243,-2.5096,-2.4896,-2.4783,-2.4722,-2.4538,-2.4302,-2.4227,-2.419,-2.4074,-2.3795,-2.358,-3.0155,-3.0173,-3.0155,-2.9714,-2.9085,-2.903,-2.9085,-2.9237,-2.9122,-2.9072,-2.8994,-2.8975,-2.8975,-2.8975,-2.8975,-2.8975,-2.8975,-2.8975,-2.9021,-2.9089,-2.9246,-2.9353,-2.923,-2.9027,-2.9064,-2.9306,-2.8688,-2.8316,-2.8985,-2.7288,-2.6653,-2.6372,-2.5643,-2.5012,-2.487,-2.4956,-2.5077,-2.5203,-2.5061,-2.5114,-2.5234,-2.5831,-2.618,-2.6338,-2.681,-2.7144,-2.7209,-2.7251,-2.7174,-2.7198,-2.7621,-2.7775,-2.7928,-2.7783,-2.7168,-2.5976,-2.639,-2.6236,-2.5466,-2.537,-2.5313,-2.5313,-2.5313,-2.5313,-2.5313,-2.5313,-2.5313,-2.5313,-2.5313,-2.5313,-2.5313,-2.5313,-2.537,-2.5399,-2.5324,-2.534,-2.5517,-2.5703,-2.5703,-2.5703,-2.5703,-2.5703,-2.5703,-2.5703,-2.5703,-2.5684,-2.5625,-2.5625,-2.5644,-2.5593,-2.5507,-2.5434,-2.5376,-2.5359,-2.5321,-2.5303,-2.5313,-2.5313,-2.5313,-2.5313,-2.5313,-2.5313,-2.5284,-2.5264,-2.5084,-2.4845,-2.4666,-2.4497,-2.4339,-2.4227,-2.4227,-2.417,-2.4094,-2.3937,-2.3692,-3.021,-3.021,-3.021,-3.0063,-2.9806,-2.9806,-3.0063,-3.0448,-3.0044,-2.9512,-2.9067,-2.8975,-2.8975,-2.8975,-2.8975,-2.8975,-2.8975,-2.8975,-2.8975,-2.8998,-2.9115,-2.9112,-2.9052,-2.8968,-2.8936,-2.8788,-2.8137,-2.7864,-2.8424,-2.7139,-2.6712,-2.6488,-2.6209,-2.559,-2.5032,-2.4855,-2.491,-2.5076,-2.5431,-2.5837,-2.582,-2.6572,-2.7081,-2.6929,-2.7362,-2.7693,-2.7829,-2.788,-2.7872,-2.8011,-2.8522,-2.8832,-2.9083,-2.9006,-2.8302,-2.7475,-2.7678,-2.7036,-2.6246,-2.5774,-2.5313,-2.5313,-2.5313,-2.5313,-2.5313,-2.5313,-2.5313,-2.5313,-2.5313,-2.5313,-2.5313,-2.5313,-2.5332,-2.5332,-2.5302,-2.5293,-2.543,-2.5605,-2.5703,-2.5703,-2.5703,-2.5703,-2.5703,-2.5703,-2.5703,-2.5703,-2.5664,-2.5644,-2.5664,-2.5644,-2.5587,-2.5473,-2.5401,-2.5365,-2.5348,-2.5313,-2.5313,-2.5313,-2.5313,-2.5313,-2.5313,-2.5313,-2.5303,-2.5274,-2.5053,-2.478,-2.4538,-2.4358,-2.4266,-2.419,-2.419,-2.419,-2.4151,-2.3979,-2.3726,-3.0448,-3.021,-3.021,-3.054,-3.0889,-3.0448,-3.0393,-3.054,-3.0265,-2.9751,-2.9127,-2.8975,-2.8975,-2.8975,-2.8975,-2.8975,-2.8975,-2.8975,-2.8975,-2.8975,-2.8998,-2.904,-2.9017,-2.8962,-2.8754,-2.8493,-2.8175,-2.7948,-2.8059,-2.7083,-2.6786,-2.6822,-2.67,-2.6171,-2.5685,-2.56,-2.5521,-2.5691,-2.6062,-2.6536,-2.6734,-2.7222,-2.7763,-2.7781,-2.7972,-2.8231,-2.8271,-2.8346,-2.8441,-2.8983,-2.9294,-2.9483,-2.9648,-2.9679,-2.9159,-2.8764,-2.7832,-2.7064,-2.613,-2.5668,-2.5303,-2.5313,-2.5313,-2.5313,-2.5313,-2.5313,-2.5313,-2.5313,-2.5313,-2.5313,-2.5313,-2.5313,-2.5313,-2.5313,-2.5313,-2.5313,-2.5352,-2.5527,-2.5664,-2.5664,-2.5703,-2.5703,-2.5703,-2.5703,-2.5703,-2.5703,-2.5703,-2.5703,-2.5684,-2.5664,-2.5609,-2.5498,-2.5398,-2.5367,-2.534,-2.5303,-2.5313,-2.5313,-2.5313,-2.5313,-2.5313,-2.5313,-2.5313,-2.5264,-2.5005,-2.4752,-2.4391,-2.419,-2.4209,-2.4209,-2.419,-2.419,-2.4208,-2.4057,-2.3846,-3.0925,-3.0283,-3.0265,-3.1201,-3.2155,-3.1109,-3.0081,-2.9232,-2.9971,-2.9806,-2.9035,-2.8975,-2.8975,-2.8975,-2.8975,-2.8975,-2.8975,-2.8975,-2.8975,-2.8975,-2.8975,-2.8975,-2.8975,-2.8957,-2.8741,-2.8466,-2.8213,-2.8113,-2.7904,-2.7869,-2.7601,-2.7267,-2.7175,-2.6843,-2.6722,-2.6766,-2.6524,-2.6367,-2.6731,-2.714,-2.7349,-2.8018,-2.8428,-2.8586,-2.887,-2.9189,-2.9298,-2.9353,-2.9204,-2.9364,-2.9551,-2.9315,-2.939,-2.9783,-2.9429,-2.8602,-2.7255,-2.6428,-2.564,-2.5341,-2.5322,-2.5313,-2.5313,-2.5313,-2.5313,-2.5313,-2.5313,-2.5313,-2.5313,-2.5313,-2.5313,-2.5313,-2.5313,-2.5313,-2.5313,-2.5303,-2.5322,-2.5449,-2.5566,-2.5644,-2.5684,-2.5703,-2.5703,-2.5703,-2.5703,-2.5703,-2.5703,-2.5703,-2.5684,-2.5664,-2.5603,-2.5526,-2.542,-2.535,-2.5332,-2.5313,-2.5313,-2.5313,-2.5313,-2.5313,-2.5313,-2.5313,-2.5313,-2.5222,-2.4994,-2.4719,-2.4413,-2.4283,-2.4228,-2.4228,-2.419,-2.419,-2.4208,-2.419,-2.4077,-3.1256,-3.1109,-3.1678,-3.2192,-3.2577,-3.2706,-3.1678,-3.0118,-3.0687,-3.032,-2.8975,-2.8975,-2.8975,-2.8975,-2.8975,-2.8975,-2.8975,-2.8975,-2.8975,-2.8975,-2.8975,-2.8975,-2.8975,-2.8957,-2.8815,-2.8576,-2.8411,-2.8429,-2.8576,-2.8688,-2.8651,-2.8423,-2.8125,-2.7879,-2.7809,-2.8055,-2.7405,-2.7062,-2.7494,-2.7737,-2.8072,-2.8706,-2.9024,-2.9305,-2.9289,-2.9533,-2.9607,-2.9514,-2.9398,-2.9715,-2.9813,-2.962,-2.9167,-2.9236,-2.889,-2.743,-2.6688,-2.6255,-2.5505,-2.5313,-2.5313,-2.5313,-2.5313,-2.5313,-2.5313,-2.5313,-2.5313,-2.5313,-2.5313,-2.5313,-2.5313,-2.5313,-2.5313,-2.5313,-2.5313,-2.5303,-2.5313,-2.5404,-2.5527,-2.5644,-2.5684,-2.5703,-2.5703,-2.5703,-2.5703,-2.5703,-2.5703,-2.5703,-2.5684,-2.5664,-2.5598,-2.5522,-2.5454,-2.5376,-2.5332,-2.5313,-2.5313,-2.5313,-2.5313,-2.5313,-2.5313,-2.5313,-2.5313,-2.5182,-2.4956,-2.4745,-2.4506,-2.4376,-2.4247,-2.4228,-2.419,-2.419,-2.419,-2.419,-2.419,-3.0742,-3.0632,-3.1659,-3.2467,-3.3109,-3.3587,-3.2577,-3.0999,-3.1182,-3.0503,-2.9108,-2.8975,-2.8975,-2.8975,-2.8975,-2.8975,-2.8975,-2.8975,-2.8975,-2.8975,-2.8975,-2.8975,-2.8975,-2.8938,-2.87,-2.8539,-2.8429,-2.8448,-2.8682,-2.8902,-2.8962,-2.8906,-2.8975,-2.8723,-2.8521,-2.8558,-2.8411,-2.8092,-2.8104,-2.8373,-2.8736,-2.9077,-2.9303,-2.9436,-2.9312,-2.9355,-2.9435,-2.9291,-2.9476,-2.968,-2.9687,-2.9341,-2.8967,-2.8978,-2.8285,-2.7045,-2.6765,-2.6197,-2.5524,-2.5313,-2.5313,-2.5313,-2.5313,-2.5313,-2.5313,-2.5313,-2.5313,-2.5313,-2.5313,-2.5313,-2.5313,-2.5313,-2.5313,-2.5313,-2.5313,-2.5313,-2.5332,-2.539,-2.5488,-2.5625,-2.5684,-2.5684,-2.5703,-2.5703,-2.5703,-2.5703,-2.5703,-2.5703,-2.5703,-2.5684,-2.5605,-2.5507,-2.548,-2.544,-2.5369,-2.5313,-2.5313,-2.5313,-2.5313,-2.5313,-2.5313,-2.5293,-2.5264,-2.5133,-2.4962,-2.4738,-2.4542,-2.4395,-2.4284,-2.4247,-2.419,-2.419,-2.419,-2.419,-2.419,-2.9861,-2.9434,-3.0907,-3.2394,-3.3495,-3.3568,-3.2706,-3.1384,-3.1201,-3.043,-2.9182,-2.8975,-2.8975,-2.8975,-2.8975,-2.8975,-2.8975,-2.8975,-2.8975,-2.8975,-2.8975,-2.8975,-2.8975,-2.8957,-2.876,-2.8466,-2.8429,-2.865,-2.8319,-2.8594,-2.8975,-2.8975,-2.8975,-2.8865,-2.887,-2.8906,-2.8773,-2.8705,-2.8691,-2.8846,-2.8897,-2.9003,-2.8998,-2.9089,-2.9067,-2.9062,-2.9085,-2.9134,-2.9209,-2.9251,-2.9179,-2.8935,-2.8727,-2.8478,-2.7593,-2.6939,-2.6505,-2.6101,-2.5543,-2.5313,-2.5313,-2.5313,-2.5313,-2.5313,-2.5313,-2.5313,-2.5313,-2.5313,-2.5313,-2.5313,-2.5313,-2.5313,-2.5313,-2.5313,-2.5313,-2.5313,-2.5313,-2.5379,-2.5508,-2.5625,-2.5684,-2.5703,-2.5703,-2.5703,-2.5703,-2.5703,-2.5703,-2.5703,-2.5703,-2.5703,-2.5605,-2.5493,-2.5446,-2.5387,-2.5351,-2.5313,-2.5313,-2.5313,-2.5313,-2.5313,-2.5313,-2.5264,-2.5245,-2.5154,-2.5065,-2.4818,-2.4636,-2.4515,-2.4375,-2.4228,-2.419,-2.419,-2.419,-2.419,-2.419,-3.0448,-3.098,-3.2559,-3.2797,-3.21,-3.2651,-3.199,-3.054,-3.0485,-2.9971,-2.9127,-2.8975,-2.8975,-2.8975,-2.8975,-2.8975,-2.8975,-2.8975,-2.8975,-2.8975,-2.8975,-2.8975,-2.8975,-2.8975,-2.8833,-2.8851,-2.8888,-2.8906,-2.8741,-2.887,-2.8975,-2.8975,-2.8975,-2.8975,-2.8975,-2.8975,-2.8975,-2.8975,-2.8975,-2.8975,-2.8975,-2.9021,-2.9067,-2.9134,-2.9156,-2.9112,-2.9112,-2.9112,-2.9334,-2.9494,-2.9509,-2.9015,-2.823,-2.7514,-2.6659,-2.587,-2.5744,-2.5561,-2.5466,-2.5293,-2.5293,-2.5303,-2.5313,-2.5313,-2.5313,-2.5313,-2.5313,-2.5313,-2.5313,-2.5313,-2.5313,-2.5313,-2.5313,-2.5313,-2.5313,-2.5313,-2.5293,-2.5426,-2.5538,-2.5605,-2.5684,-2.5703,-2.5703,-2.5703,-2.5703,-2.5703,-2.5703,-2.5703,-2.5703,-2.5684,-2.5566,-2.5471,-2.5379,-2.5322,-2.5313,-2.5313,-2.5313,-2.5313,-2.5313,-2.5313,-2.5313,-2.5284,-2.5264,-2.5264,-2.5182,-2.4985,-2.4828,-2.4748,-2.4584,-2.4358,-2.4247,-2.4247,-2.4209,-2.419,-2.419,-2.9934,-3.0485,-3.1678,-3.1916,-3.1531,-3.188,-3.1347,-3.0356,-3.021,-2.9751,-2.9049,-2.8975,-2.8975,-2.8975,-2.8975,-2.8975,-2.8975,-2.8975,-2.8975,-2.8975,-2.8975,-2.8975,-2.8975,-2.8975,-2.8957,-2.8975,-2.8975,-2.8975,-2.8975,-2.8975,-2.8975,-2.8975,-2.8975,-2.8975,-2.8975,-2.8975,-2.8975,-2.8975,-2.8994,-2.8994,-2.8994,-2.904,-2.9044,-2.9134,-2.9134,-2.9134,-2.9112,-2.9089,-2.9314,-2.9303,-2.9121,-2.8202,-2.7248,-2.6354,-2.5707,-2.5271,-2.5084,-2.5057,-2.5198,-2.5288,-2.5329,-2.533,-2.5284,-2.5284,-2.5313,-2.5313,-2.5313,-2.5313,-2.5313,-2.5313,-2.5313,-2.5313,-2.5313,-2.5313,-2.5313,-2.5313,-2.5379,-2.5485,-2.5566,-2.5605,-2.5664,-2.5703,-2.5703,-2.5703,-2.5703,-2.5703,-2.5703,-2.5703,-2.5703,-2.5684,-2.5566,-2.5454,-2.5357,-2.5293,-2.5313,-2.5313,-2.5313,-2.5313,-2.5313,-2.5313,-2.5303,-2.5303,-2.5293,-2.5275,-2.5263,-2.5209,-2.5083,-2.494,-2.4714,-2.4445,-2.4357,-2.4303,-2.4266,-2.419,-2.419,-2.9053,-2.9104,-3.0044,-3.0613,-3.1054,-3.1219,-3.076,-3.0118,-3.0026,-2.9659,-2.9067,-2.8975,-2.8975,-2.8975,-2.8975,-2.8975,-2.8975,-2.8975,-2.8975,-2.8975,-2.8975,-2.8975,-2.8975,-2.8975,-2.8975,-2.8975,-2.8975,-2.8975,-2.8975,-2.8975,-2.8975,-2.8975,-2.8975,-2.8975,-2.8975,-2.8994,-2.8994,-2.8989,-2.8989,-2.8994,-2.8994,-2.8994,-2.8998,-2.8998,-2.8975,-2.8975,-2.8975,-2.9048,-2.9272,-2.9119,-2.8749,-2.7835,-2.6878,-2.5989,-2.5545,-2.5175,-2.5153,-2.5283,-2.54,-2.5425,-2.5421,-2.5393,-2.532,-2.5253,-2.5253,-2.5253,-2.5253,-2.5284,-2.5284,-2.5313,-2.5313,-2.5313,-2.5313,-2.5313,-2.5313,-2.5313,-2.5406,-2.5517,-2.5527,-2.5566,-2.5625,-2.5684,-2.5703,-2.5703,-2.5703,-2.5703,-2.5703,-2.5703,-2.5684,-2.5664,-2.5586,-2.5459,-2.5348,-2.5313,-2.5293,-2.5313,-2.5313,-2.5313,-2.5313,-2.5313,-2.5303,-2.5303,-2.5294,-2.5281,-2.5267,-2.52,-2.5156,-2.5031,-2.4794,-2.4561,-2.4461,-2.4375,-2.4247,-2.419,-2.419,-2.8975,-2.9145,-3.054,-3.0558,-2.9714,-3.0136,-2.9971,-2.9329,-2.925,-2.9104,-2.903,-2.8975,-2.8975,-2.8975,-2.8975,-2.8975,-2.8975,-2.8975,-2.8975,-2.8975,-2.8975,-2.8975,-2.8975,-2.8975,-2.8975,-2.8975,-2.8975,-2.8975,-2.8975,-2.8975,-2.8975,-2.8975,-2.9049,-2.9049,-2.903,-2.9085,-2.9172,-2.9112,-2.908,-2.9099,-2.9002,-2.9007,-2.8994,-2.8975,-2.8975,-2.8975,-2.8975,-2.8975,-2.9181,-2.9118,-2.877,-2.7913,-2.7124,-2.6276,-2.5842,-2.5662,-2.563,-2.5929,-2.608,-2.5861,-2.5825,-2.5691,-2.5545,-2.5106,-2.5106,-2.5087,-2.5134,-2.5253,-2.5274,-2.5284,-2.5313,-2.5313,-2.5313,-2.5313,-2.5313,-2.5313,-2.5357,-2.5395,-2.541,-2.5488,-2.5586,-2.5644,-2.5703,-2.5703,-2.5703,-2.5703,-2.5703,-2.5703,-2.5703,-2.5644,-2.5605,-2.5489,-2.5379,-2.5313,-2.5313,-2.5313,-2.5313,-2.5313,-2.5313,-2.5313,-2.5313,-2.5313,-2.5291,-2.5275,-2.5168,-2.5067,-2.5034,-2.5126,-2.4889,-2.4663,-2.4543,-2.4426,-2.4321,-2.4247,-2.4321]},{"header":{"parameterUnit":"m.s-1","parameterCategory":1,"la1":31.0,"la2":29.5877,"lo1":-88.7671,"lo2":-86.6584,"dy":0.0162,"dx":0.0185,"nx":115,"ny":88,"refTime":"2023-04-28T12:00:00:Z","depth":0,"parameterNumber":3,"parameterNumberName":"V-component_of_WINDS"},"data":[0.0,0.0,0.0,0.0,0.0,0.0,0.0,0.0,0.0,0.0,0.0,0.0,0.0,0.0,0.0,0.0,0.0,0.0,0.0,0.0,0.0,0.0,0.0,0.0,0.0,0.0,0.0,0.0,0.0,0.0,0.0,0.0,0.0,0.0,0.0,0.0,0.0,0.0,0.0,0.0,0.0,0.0,0.0,0.0,0.0,0.0,0.0,0.0,0.0,0.0,0.0,0.0,0.0,0.0,0.0,0.0,0.0,0.0,0.0,0.0,0.0,0.0,0.0,0.0,0.0,0.0,0.0,0.0,0.0,0.0,0.0,0.0,0.0,0.0,0.0,0.0,0.0,0.0,0.0,0.0,0.0,0.0,0.0,0.0,0.0,0.0,0.0,0.0,0.0,0.0,0.0,0.0,0.0,0.0,0.0,0.0,0.0,0.0,0.0,0.0,0.0,0.0,0.0,0.0,0.0,0.0,0.0,0.0,0.0,0.0,0.0,0.0,0.0,0.0,0.0,0.0,0.0,0.0,0.0,0.0,0.0,0.0,0.0,0.0,0.0,0.0,0.0,0.0,0.0,0.0,0.0,0.0,0.0,0.0,0.0,0.0,0.0,0.0,0.0,0.0,0.0,0.0,0.0,0.0,0.0,0.0,0.0,0.0,0.0,0.0,0.0,0.0,0.0,0.0,0.0,0.0,0.0,0.0,0.0,0.0,0.0,0.0,0.0,0.0,0.0,0.0,0.0,0.0,0.0,0.0,0.0,0.0,0.0,0.0,0.0,0.0,0.0,0.0,0.0,0.0,0.0,0.0,0.0,0.0,0.0,0.0,0.0,0.0,0.0,0.0,0.0,0.0,0.0,0.0,0.0,0.0,0.0,0.0,0.0,0.0,0.0,0.0,0.0,0.0,0.0,0.0,0.0,0.0,0.0,0.0,0.0,0.0,0.0,0.0,0.0,0.0,0.0,0.0,0.0,0.0,0.0,0.0,0.0,0.0,0.0,0.0,0.0,0.0,0.0,0.0,0.0,0.0,0.0,0.0,0.0,0.0,0.0,0.0,0.0,0.0,0.0,0.0,0.0,0.0,0.0,0.0,0.0,0.0,0.0,0.0,0.0,0.0,0.0,0.0,0.0,0.0,0.0,0.0,0.0,0.0,0.0,0.0,0.0,0.0,0.0,0.0,0.0,0.0,0.0,0.0,0.0,0.0,0.0,0.0,0.0,0.0,0.0,0.0,0.0,0.0,0.0,0.0,0.0,0.0,0.0,0.0,0.0,0.0,0.0,0.0,0.0,0.0,0.0,0.0,0.0,0.0,0.0,0.0,0.0,0.0,0.0,0.0,0.0,0.0,0.0,0.0,0.0,0.0,0.0,0.0,0.0,0.0,0.0,0.0,0.0,0.0,0.0,0.0,0.0,0.0,0.0,0.0,0.0,0.0,0.0,0.0,0.0,0.0,0.0,0.0,0.0,0.0,0.0,0.0,0.0,0.0,0.0,0.0,0.0,0.0,0.0,0.0,0.0,0.0,0.0,0.0,0.0,0.0,0.0,0.0,0.0,0.0,0.0,0.0,0.0,0.0,0.0,0.0,0.0,0.0,0.0,0.0,0.0,0.0,0.0,0.0,0.0,0.0,0.0,0.0,0.0,0.0,0.0,0.0,0.0,0.0,0.0,0.0,0.0,0.0,0.0,0.0,0.0,0.0,0.0,0.0,0.0,0.0,0.0,0.0,0.0,0.0,0.0,0.0,0.0,0.0,0.0,0.0,0.0,0.0,0.0,0.0,0.0,0.0,0.0,0.0,0.0,0.0,0.0,0.0,0.0,0.0,0.0,0.0,0.0,0.0,0.0,0.0,0.0,0.0,0.0,0.0,0.0,0.0,0.0,0.0,0.0,0.0,0.0,0.0,0.0,0.0,0.0,0.0,0.0,0.0,0.0,0.0,0.0,0.0,0.0,0.0,0.0,0.0,0.0,0.0,0.0,0.0,0.0,0.0,0.0,0.0,0.0,0.0,0.0,0.0,0.0,0.0,0.0,0.0,0.0,0.0,0.0,0.0,0.0,0.0,0.0,0.0,0.0,0.0,0.0,0.0,0.0,0.0,0.0,0.0,0.0,0.0,0.0,0.0,0.0,0.0,0.0,0.0,0.0,0.0,0.0,0.0,0.0,0.0,0.0,0.0,0.0,0.0,0.0,0.0,0.0,0.0,0.0,0.0,0.0,0.0,0.0,0.0,0.0,0.0,0.0,0.0,0.0,0.0,0.0,0.0,0.0,0.0,0.0,0.0,0.0,0.0,0.0,0.0,0.0,0.0,0.0,0.0,0.0,0.0,0.0,0.0,0.0,0.0,0.0,0.0,0.0,0.0,0.0,0.0,0.0,0.0,0.0,0.0,0.0,0.0,0.0,0.0,0.0,0.0,0.0,0.0,0.0,0.0,0.0,0.0,0.0,0.0,0.0,0.0,0.0,0.0,0.0,0.0,0.0,0.0,0.0,0.0,0.0,0.0,0.0,0.0,0.0,0.0,0.0,0.0,0.0,0.0,0.0,0.0,0.0,0.0,0.0,0.0,0.0,0.0,0.0,0.0,0.0,0.0,0.0,0.0,0.0,0.0,0.0,0.0,0.0,0.0,0.0,0.0,0.0,0.0,0.0,0.0,0.0,0.0,0.0,0.0,0.0,0.0,0.0,0.0,0.0,0.0,0.0,0.0,0.0,0.0,0.0,0.0,0.0,0.0,0.0,0.0,0.0,0.0,0.0,0.0,0.0,0.0,0.0,0.0,0.0,0.0,0.0,0.0,0.0,0.0,0.0,0.0,0.0,0.0,0.0,0.0,0.0,0.0,0.0,0.0,0.0,0.0,0.0,0.0,0.0,0.0,0.0,0.0,0.0,0.0,0.0,0.0,0.0,0.0,0.0,0.0,0.0,0.0,0.0,0.0,0.0,0.0,0.0,0.0,0.0,0.0,0.0,0.0,0.0,0.0,0.0,0.0,0.0,0.0,0.0,0.0,0.0,0.0,0.0,0.0,0.0,0.0,0.0,0.0,0.0,0.0,0.0,0.0,0.0,0.0,0.0,0.0,0.0,0.0,0.0,0.0,0.0,0.0,0.0,0.0,0.0,0.0,0.0,0.0,0.0,0.0,0.0,0.0,0.0,0.0,0.0,0.0,0.0,0.0,0.0,0.0,0.0,0.0,0.0,0.0,0.0,0.0,0.0,0.0,0.0,0.0,0.0,0.0,0.0,0.0,0.0,0.0,0.0,0.0,0.0,0.0,0.0,0.0,0.0,0.0,0.0,0.0,0.0,0.0,0.0,0.0,0.0,0.0,0.0,0.0,0.0,0.0,0.0,0.0,0.0,0.0,0.0,0.0,0.0,0.0,0.0,0.0,0.0,0.0,0.0,0.0,0.0,0.0,0.0,0.0,0.0,0.0,0.0,0.0,0.0,0.0,0.0,0.0,0.0,0.0,0.0,0.0,0.0,0.0,0.0,0.0,0.0,0.0,0.0,0.0,0.0,0.0,0.0,0.0,0.0,0.0,0.0,0.0,0.0,0.0,0.0,0.0,0.0,0.0,0.0,0.0,0.0,0.0,0.0,0.0,0.0,0.0,0.0,0.0,0.0,0.0,0.0,0.0,0.0,0.0,0.0,0.0,0.0,0.0,0.0,0.0,0.0,0.0,0.0,0.0,0.0,0.0,0.0,0.0,0.0,0.0,0.0,0.0,0.0,0.0,0.0,0.0,0.0,0.0,0.0,0.0,0.0,0.0,0.0,0.0,0.0,0.0,0.0,0.0,0.0,0.0,0.0,0.0,0.0,0.0,0.0,0.0,0.0,0.0,0.0,0.0,0.0,0.0,0.0,0.0,0.0,0.0,0.0,0.0,0.0,0.0,0.0,0.0,0.0,0.0,0.0,0.0,0.0,0.0,0.0,0.0,0.0,0.0,0.0,0.0,0.0,0.0,0.0,0.0,0.0,0.0,0.0,0.0,0.0,0.0,0.0,0.0,0.0,0.0,0.0,0.0,0.0,0.0,0.0,0.0,0.0,0.0,0.0,0.0,0.0,0.0,0.0,0.0,0.0,0.0,0.0,0.0,0.0,0.0,0.0,0.0,0.0,0.0,0.0,0.0,0.0,0.0,0.0,0.0,0.0,0.0,0.0,0.0,0.0,0.0,0.0,0.0,0.0,0.0,0.0,0.0,0.0,0.0,0.0,0.0,0.0,0.0,0.0,0.0,0.0,0.0,0.0,0.0,0.0,0.0,0.0,0.0,0.9723,0.0,0.0,0.0,0.0,0.0,0.0,0.0,0.0,0.0,0.0,0.0,0.0,0.0,0.0,0.0,0.0,0.0,0.0,0.0,0.0,0.0,0.0,0.0,0.0,0.0,0.0,0.0,0.0,0.0,0.0,0.0,0.0,0.0,0.0,0.0,0.0,0.0,0.0,0.0,0.0,0.0,0.0,0.0,0.0,0.0,0.0,0.0,0.0,0.0,0.0,0.0,0.0,0.0,0.0,0.0,0.0,0.0,0.0,0.0,0.0,0.0,0.0,0.0,0.0,0.0,0.0,0.0,0.0,0.0,0.0,0.0,0.0,0.0,0.0,0.0,0.0,0.0,0.0,0.0,0.0,0.0,0.0,0.0,0.0,0.0,0.0,0.0,0.0,0.0,0.0,0.0,0.0,0.0,0.0,0.0,0.0,0.0,0.0,0.0,0.0,0.0,0.0,0.0,0.0,0.0,0.0,0.0,0.0,0.0,0.0,-0.3952,0.1179,0.6369,0.9171,0.934,0.0,0.0,0.0,0.0,0.0,0.0,0.0,0.0,0.0,0.0,0.0,0.0,0.0,0.0,0.0,0.0,0.0,0.0,0.0,0.0,0.0,0.0,0.0,0.0,0.0,0.0,0.0,0.0,0.0,0.0,0.0,0.0,0.0,0.0,0.0,0.0,0.0,0.0,0.0,0.0,0.0,0.0,0.0,0.0,0.0,0.0,0.0,0.0,0.0,0.0,0.0,0.0,0.0,0.0,0.0,0.0,0.0,0.0,0.0,0.0,0.0,0.0,0.0,0.0,0.0,0.0,0.0,0.0,0.0,0.0,0.0,0.0,0.0,0.0,0.0,0.0,0.0,0.0,0.0,0.0,0.0,0.0,0.0,0.0,0.0,0.0,0.0,0.0,0.0,0.0,0.0,0.0,0.0,0.0,0.0,0.0,0.0,0.0,0.0,0.0,0.0,0.0,0.0,0.0,0.0,0.0,0.0,0.0,0.0,0.0,0.0,0.0,0.629,0.9024,0.9051,0.0,0.0,0.0,0.0,0.0,0.0,0.0,0.0,0.0,0.0,0.0,0.0,0.0,0.0,0.0,0.0,0.0,0.0,0.0,0.0,0.0,0.0,0.0,0.0,0.0,0.0,0.0,0.0,0.0,0.0,0.0,0.0,0.0,0.0,0.0,0.0,0.0,0.0,0.0,0.0,0.0,0.0,0.0,0.0,0.0,0.0,0.0,0.0,0.0,0.0,0.0,0.0,0.0,0.0,0.0,0.0,0.0,0.0,0.0,0.0,0.0,0.0,0.0,0.0,0.0,0.0,0.0,0.0,0.0,0.0,0.0,0.0,0.0,0.0,0.0,0.0,0.0,0.0,0.0,0.0,0.0,0.0,0.0,0.0,0.0,0.0,0.0,0.0,0.0,0.0,0.0,0.0,0.0,0.0,0.0,0.0,0.0,0.0,0.0,0.0,0.0,0.0,0.0,0.0,0.0,0.0,0.0,0.0,0.0,0.0,0.0058,0.1326,0.6095,0.0,0.921,0.0,0.0,0.0,0.0,0.0,0.0,0.0,0.0,0.0,0.0,0.0,0.0,0.0,0.0,0.0,0.0,0.0,0.0,0.0,0.0,0.0,0.0,0.0,0.0,0.0,0.0,0.0,0.0,0.0,0.0,0.0,0.0,0.0,0.0,0.0,0.0,0.0,0.0,0.0,0.0,0.0,0.0,0.0,0.0,0.0,0.0,0.0,0.0,0.0,0.0,0.0,0.0,0.0,0.0,0.0,0.0,0.0,0.0,0.0,0.0,0.0,0.0,0.0,0.0,0.0,0.0,0.0,0.0,0.0,0.0,0.0,0.0,0.0,0.0,0.0,0.0,0.0,0.0,0.0,0.0,0.0,0.0,0.0,0.0,0.0,0.0,0.0,0.0,0.0,0.0,0.0,0.0,0.0,0.0,0.0,0.0,0.0,0.0,0.0,0.0,0.0,0.0,0.0,0.0,0.0,0.0,0.0,0.0,0.0,0.0,0.1857,0.461,0.7485,0.9231,0.0,0.0,0.0,0.0,0.0,0.0,0.0,0.0,0.0,0.0,0.0,0.0,0.0,0.0,0.0,0.0,0.0,0.0,0.0,0.0,0.0,0.0,0.0,0.0,0.0,0.0,0.0,0.0,0.0,0.0,0.0,0.0,0.0,0.0,0.0,0.0,0.0,0.0,0.0,0.0,0.0,0.0,0.0,0.0,0.0,0.0,0.0,0.0,0.0,0.0,0.0,0.0,0.0,0.0,0.0,0.0,0.0,0.0,0.0,0.0,0.0,0.0,0.0,0.0,0.0,0.0,0.0,0.0,0.0,0.0,0.0,0.0,0.0,0.0,0.0,0.0,0.0,0.0,0.0,0.0,0.0,0.0,0.0,0.0,0.0,0.0,0.0,0.0,0.0,0.0,0.0,0.0,0.0,0.0,0.0,0.0,0.0,0.0,0.0,0.0,0.0,0.0,0.0,0.0,0.0,0.0,0.0,0.0,0.0,0.0,-0.1394,0.2941,0.7128,0.8725,0.964,1.0038,0.0,0.0,0.0,0.0,0.0,0.0,0.0,0.0,0.0,0.0,0.0,0.0,0.0,0.0,0.0,0.0,0.0,0.0,0.0,0.0,0.0,0.0,0.0,0.0,0.0,0.0,0.0,0.0,0.0,0.0,0.0,0.0,0.0,0.0,0.0,0.0,0.0,0.0,0.0,0.0,0.0,0.0,0.0,0.0,0.0,0.0,0.0,0.0,0.0,0.0,0.0,0.0,0.0,0.0,0.0,0.0,0.0,0.0,0.0,0.0,0.0,0.0,0.0,0.0,0.0,0.0,0.0,0.0,0.0,0.0,0.0,0.0,0.0,0.0,0.0,0.0,0.0,0.0,0.0,0.0,0.0,0.0,0.0,0.0,0.0,0.0,0.0,0.0,0.0,0.0,0.0,0.0,0.0,0.0,0.0,0.0,0.0,0.0,0.0,0.0,0.0,0.0,0.0,0.0,0.0,0.0,0.0,0.0,-0.2595,-0.0313,0.319,0.8134,0.9262,0.9898,0.0,0.0,0.0,0.0,0.0,0.0,0.0,0.0,0.0,0.0,0.0,0.0,0.0,0.0,0.0,0.0,0.0,0.0,0.0,0.0,0.0,0.0,0.0,0.0,0.0,0.0,0.0,0.0,0.0,0.0,0.0,0.0,0.0,0.0,0.0,0.0,0.0,0.0,0.0,0.0,0.0,0.0,0.0,0.0,0.0,0.0,0.0,0.0,0.0,0.0,0.0,0.0,0.0,0.0,0.0,0.0,0.0,0.0,0.0,0.0,0.0,0.0,0.0,0.0,0.0,0.0,0.0,0.0,0.0,0.0,0.0,0.0,0.0,0.0,0.0,0.0,0.0,0.0,0.0,0.0,0.0,0.0,0.0,0.0,0.0,0.0,0.0,0.0,0.0,0.0,0.0,0.0,0.0,0.0,0.0,0.0,0.0,0.0,0.0,0.0,0.0,0.0,0.0,0.0,0.0,0.0,0.0,0.0,0.0,-0.4374,0.2374,0.6906,0.8656,0.933,0.9751,0.0,0.0,0.0,0.0,0.0,0.0,0.0,0.0,0.0,0.0,0.0,0.0,0.0,0.0,0.0,0.0,0.0,0.0,0.0,0.0,0.0,0.0,0.0,0.0,0.0,0.0,0.0,0.0,0.0,0.0,0.0,0.0,0.0,0.0,0.0,0.0,0.0,0.0,0.0,0.0,0.0,0.0,0.0,0.0,0.0,0.0,0.0,0.0,0.0,0.0,0.0,0.0,0.0,0.0,0.0,0.0,0.0,0.0,0.0,0.0,0.0,0.0,0.0,0.0,0.0,0.0,0.0,0.0,0.0,0.0,0.0,0.0,0.0,0.0,0.0,0.0,0.0,0.0,0.0,0.0,0.0,0.0,0.0,0.0,0.0,0.0,0.0,0.0,0.0,0.0,0.0,0.0,0.0,0.0,0.0,0.0,0.0,0.0,0.0,0.0,0.0,0.0,0.0,0.0,0.0,0.0,0.0,0.0,0.0,-0.5082,0.0,0.6672,0.6932,0.8808,0.9472,0.0,0.0,0.0,0.0,0.0,0.0,0.0,0.0,0.0,0.0,0.0,0.0,0.0,0.0,0.0,0.0,0.0,0.0,0.0,0.0,0.0,0.0,0.0,0.0,0.0,0.0,0.0,0.0,0.0,0.0,0.0,0.0,0.0,0.0,0.0,0.0,0.0,0.0,0.0,0.0,0.0,0.0,0.0,0.0,0.0,0.0,0.0,0.0,0.0,0.0,0.0,0.0,0.0,0.0,0.0,0.0,0.0,0.0,0.0,0.0,0.0,0.0,0.0,0.0,0.0,0.0,0.0,0.0,0.0,0.0,0.0,0.0,0.0,0.0,0.0,0.0,0.0,0.0,0.0,0.0,0.0,0.0,0.0,0.0,0.0,0.0,0.0,0.0,0.0,0.0,0.0,0.0,0.0,0.0,0.0,0.0,0.0,0.0,0.0,0.0,0.0,0.0,0.0,0.0,0.0,0.0,0.0,0.0,-0.7103,-0.3941,-0.038,0.2068,0.2719,0.7466,0.8916,0.0,0.0,0.0,0.0,0.0,0.0,0.0,0.0,0.0,0.0,0.0,0.0,0.0,0.0,0.0,0.0,0.0,0.0,0.0,0.0,0.0,0.0,0.0,0.0,0.0,0.0,0.0,0.0,0.0,0.0,0.0,0.0,0.0,0.0,0.0,0.0,0.0,0.0,0.0,0.0,0.0,0.0,0.0,0.0,0.0,0.0,0.0,0.0,0.0,0.0,0.0,0.0,0.0,0.0,0.0,0.0,0.0,0.0,0.0,0.0,0.0,0.0,0.0,0.0,0.0,0.0,0.0,0.0,0.0,0.0,0.0,0.0,0.0,0.0,0.0,0.0,0.0,0.0,0.0,0.0,0.0,0.0,0.0,0.0,0.0,0.0,0.0,0.0,0.0,0.0,0.0,0.0,0.0,0.0,0.0,0.0,0.0,0.0,0.0,0.0,0.0,0.0,0.0,0.0,0.0,0.0,0.0,0.0,0.0,-0.3094,0.0283,0.2357,0.3035,0.4377,0.4972,0.0,0.0,0.0,0.0,0.0,0.0,0.0,0.0,0.0,0.0,0.0,0.0,0.0,0.0,0.0,0.0,0.0,0.0,0.0,0.0,0.0,0.0,0.0,0.0,0.0,0.0,0.0,0.0,0.0,0.0,0.0,0.0,0.0,0.0,0.0,0.0,0.0,0.0,0.0,0.0,0.0,0.0,0.0,0.0,0.0,0.0,0.0,0.0,0.0,0.0,0.0,0.0,0.0,0.0,0.0,0.0,0.0,0.0,0.0,0.0,0.0,0.0,0.0,0.0,0.0,0.0,0.0,0.0,0.0,0.0,0.0,0.0,0.0,0.0,0.0,0.0,0.0,0.0,0.0,0.0,0.0,0.0,0.0,0.0,0.0,0.0,0.0,0.0,0.0,0.0,0.0,0.0,0.0,0.0,0.0,0.0,0.0,0.0,0.0,0.0,0.0,0.0,0.0,0.0,0.0,0.0,0.0,0.0,0.0,-0.3843,-0.125,0.0205,0.039,0.0653,0.1325,0.2432,0.0,0.0,0.0,0.0,0.0,0.0,0.0,0.0,0.0,0.0,0.0,0.0,0.0,0.0,0.0,0.0,0.0,0.0,0.0,0.0,0.0,0.0,0.0,0.0,0.0,0.0,0.0,0.0,0.0,0.0,0.0,0.0,0.0,0.0,0.0,0.0,0.0,0.0,0.0,0.0,0.0,0.0,0.0,0.0,0.0,0.0,0.0,0.0,0.0,0.0,0.0,0.0,0.0,0.0,0.0,0.0,0.0,0.0,0.0,0.0,0.0,0.0,0.0,0.0,0.0,0.0,0.0,0.0,0.0,0.0,0.0,0.0,0.0,0.0,0.0,0.0,0.0,0.0,0.0,0.0,0.0,0.0,0.0,0.0,0.0,0.0,0.0,0.0,0.0,0.0,0.0,0.0,0.0,0.0,0.0,0.0,0.0,0.0,0.0,0.0,0.0,0.0,0.0,0.0,0.0,0.0,0.0,0.0,-0.5938,-0.4466,-0.3797,-0.4135,-0.3083,-0.178,0.0,0.0,0.0,0.0,0.0,0.0,0.0,0.0,0.0,0.0,0.0,0.0,0.0,0.0,0.0,0.0,0.0,0.0,0.0,0.0,0.0,0.0,0.0,0.0,0.0,0.0,0.0,0.0,0.0,0.0,0.0,0.0,0.0,0.0,0.0,0.0,0.0,0.0,0.0,0.0,0.0,0.0,0.0,0.0,0.0,0.0,0.0,0.0,0.0,0.0,0.0,0.0,0.0,0.0,0.0,0.0,0.0,0.0,0.0,0.0,0.0,0.0,0.0,0.0,0.0,0.0,0.0,0.0,0.0,0.0,0.0,0.0,0.0,0.0,0.0,0.0,0.0,0.0,0.0,0.0,0.0,0.0,0.0,0.0,0.0,0.0,0.0,0.0,0.0,0.0,0.0,0.0,0.0,0.0,0.0,0.0,0.0,0.0,0.0,0.0,0.0,0.0,0.0,0.0,0.0,0.0,0.0,0.0,0.0,-0.7474,-0.4853,-0.3526,-0.3768,-0.2766,-0.1984,0.0,0.0,0.0,0.0,0.0,0.0,0.0,0.0,0.0,0.0,0.0,0.0,0.0,0.0,0.0,0.0,0.0,0.0,0.0,0.0,0.0,0.0,0.0,0.0,0.0,0.0,0.0,0.0,0.0,0.0,0.0,0.0,0.0,0.0,0.0,0.0,0.0,0.0,0.0,0.0,0.0,0.0,0.0,0.0,0.0,0.0,0.0,0.0,0.0,0.0,0.0,0.0,0.0,0.0,0.0,0.0,0.0,0.0,0.0,0.0,0.0,0.0,0.0,0.0,0.0,0.0,0.0,0.0,0.0,0.0,0.0,0.0,0.0,0.0,0.0,0.0,0.0,0.0,0.0,0.0,0.0,0.0,0.0,0.0,0.0,0.0,0.0,0.0,0.0,0.0,0.0,0.0,0.0,0.0,0.0,0.0,0.0,0.0,0.0,0.0,0.0,0.0,0.0,0.0,0.0,0.0,0.0,0.0,-0.6964,-0.8027,-0.5308,-0.3723,-0.3478,-0.2238,-0.1759,0.0,0.0,0.0,0.0,0.0,0.0,0.0,0.0,0.0,0.0,0.0,0.0,0.0,0.0,0.0,0.0,0.0,0.0,0.0,0.0,0.0,0.0,0.0,0.0,0.0,0.0,0.0,0.0,0.0,0.0,0.0,0.0,0.0,0.0,0.0,0.0,0.0,0.0,0.0,0.0,0.0,0.0,0.0,0.0,0.0,0.0,0.0,0.0,0.0,0.0,0.0,0.0,0.0,0.0,0.0,0.0,0.0,0.0,0.0,0.0,0.0,0.0,0.0,0.0,0.0,0.0,0.0,0.0,0.0,0.0,0.0,0.0,0.0,0.0,0.0,0.0,0.0,0.0,0.0,0.0,0.0,0.0,0.0,0.0,0.0,0.0,0.0,0.0,0.0,0.0,0.0,0.0,0.0,0.0,0.0,0.0,0.0,0.0,0.0,0.0,0.0,0.0,0.0,0.0,0.0,0.0,0.0,0.0,-0.7413,-0.8158,-0.5765,-0.4125,-0.3274,-0.1744,-0.1265,0.0,0.0,0.0,0.0,0.0,0.0,0.0,0.0,0.0,0.0,0.0,0.0,0.0,0.0,0.0,0.0,0.0,0.0,0.0,0.0,0.0,0.0,0.0,0.0,0.0,0.0,0.0,0.0,0.0,0.0,0.0,0.0,0.0,0.0,0.0,0.0,0.0,0.0,0.0,0.0,0.0,0.0,0.0,0.0,0.0,0.0,0.0,0.0,0.0,0.0,0.0,0.0,0.0,0.0,0.0,0.0,0.0,0.0,0.0,0.0,0.0,0.0,0.0,0.0,0.0,0.0,0.0,0.0,0.0,0.0,0.0,0.0,0.0,0.0,0.0,0.0,0.0,0.0,0.0,0.0,0.0,0.0,0.0,0.0,0.0,0.0,0.0,0.0,0.0,0.0,0.0,0.0,0.0,0.0,0.0,0.0,0.0,0.0,0.0,0.0,0.0,0.0,0.0,0.0,0.0,0.0,0.0,0.0,-0.8871,-1.0633,-0.6687,-0.4125,-0.34,-0.1688,-0.0631,0.0,0.0,0.0,0.0,0.0,0.0,0.0,0.0,0.0,0.0,0.0,0.0,0.0,0.0,0.0,0.0,0.0,0.0,0.0,0.0,0.0,0.0,0.0,0.0,0.0,0.0,0.0,0.0,0.0,0.0,0.0,0.0,0.0,0.0,0.0,0.0,0.0,0.0,0.0,0.0,0.0,0.0,0.0,0.0,0.0,0.0,0.0,0.0,0.7147,0.0,0.0,0.0,0.0,0.0,0.0,0.0,0.0,0.0,0.0,0.0,0.0,0.0,0.0,0.0,0.0,0.0,0.0,0.0,0.0,0.0,0.0,0.0,0.0,0.0,0.0,0.0,0.0,0.0,0.0,0.0,0.0,0.0,0.0,0.0,0.0,0.0,0.0,0.0,0.0,0.0,0.0,0.0,0.0,0.0,0.0,0.0,0.0,0.0,0.0,0.0,0.0,0.0,0.0,0.0,0.0,0.0,0.0,0.0,-0.8299,-0.8805,-0.5667,-0.3456,-0.2336,-0.0776,0.0191,0.0,0.0,0.0,0.0,0.0,0.0,0.0,0.0,0.0,0.0,0.0,0.0,0.0,0.0,0.0,0.0,0.0,0.0,0.0,0.0,0.0,0.0,0.0,0.0,0.0,0.0,0.0,0.0,0.0,0.0,0.0,0.0,0.0,0.0,0.0,0.0,0.0,0.0,0.0,0.0,0.0,0.0,0.0,0.0,0.0,0.0,0.0,0.0,0.0,0.0,0.0,0.0,0.0,0.0,0.0,0.0,0.0,0.0,0.0,0.0,0.0,0.0,0.0,0.0,0.0,0.0,0.0,0.0,0.0,0.0,0.0,0.0,0.0,0.0,0.0,0.0,0.0,0.0,0.0,0.0,0.0,0.0,0.0,0.0,0.0,0.0,0.0,0.0,0.0,0.0,0.0,0.0,0.0,0.0,0.0,0.0,0.0,0.0,0.0,0.0,0.0,0.0,0.0,0.0,0.0,0.0,0.0,-0.8452,-0.6893,-0.5826,-0.4208,-0.2565,-0.1172,0.0214,0.0944,0.1097,0.0,0.0,0.0,0.0,0.0,0.0,0.0,0.0,0.0,0.0,0.0,0.0,0.0,0.0,0.0,0.0,0.0,0.0,0.0,0.0,0.0,0.0,0.0,0.0,0.0,0.0,0.0,0.0,0.0,0.0,0.0,0.0,0.0,0.0,0.0,0.0,0.0,0.0,-0.9017,-0.939,0.0,0.0,0.0,0.0,0.0,0.0,0.0,0.0,-1.0004,0.0,0.0,0.0,0.0,0.0,0.0,0.0,0.0,0.0,0.0,0.0,0.0,0.0,0.0,0.0,0.0,0.0,0.0,0.0,0.0,0.0,0.0,0.0,0.0,0.0,0.0,0.0,0.0,0.0,0.0,0.0,0.0,0.0,0.0,0.0,0.0,0.0,0.0,0.0,0.0,0.0,0.0,0.0,0.0,0.0,0.0,0.0,0.0,0.0,0.0,0.0,0.0,0.0,0.0,0.0,0.0,-0.9955,-0.7008,-0.5532,-0.5646,-0.4093,-0.2565,-0.1171,0.0105,0.1208,0.224,0.0,0.0,0.0,0.0,0.0,0.0,0.0,0.0,0.0,0.0,0.0,0.0,0.0,0.0,0.0,0.0,0.0,0.0,0.0,0.0,0.0,0.0,0.0,0.0,0.0,0.0,0.0,0.0,0.0,0.0,0.0,0.0,0.0,0.0,0.0,0.0,0.0,0.0,0.0,-1.0468,-0.9094,0.0,0.0,0.0,0.0,0.0,0.0,0.0,0.0,-1.4616,0.0,0.0,0.0,0.0,0.0,0.0,0.0,0.0,0.0,0.0,0.0,0.0,0.0,0.0,0.0,0.0,0.0,0.0,0.0,0.0,0.0,0.0,0.0,0.0,0.0,0.0,0.0,0.0,0.0,0.0,0.0,0.0,0.0,0.0,0.0,0.0,0.0,0.0,0.0,0.0,0.0,0.0,0.0,0.0,0.0,0.0,0.0,0.0,0.0,0.0,0.0,0.0,0.0,0.0,0.0,-0.528,-0.6436,-0.5449,-0.2081,-0.2212,-0.1794,-0.0554,0.0522,0.1398,0.0,0.0,0.0,0.0,0.0,0.0,0.0,0.0,0.0,0.0,0.0,0.0,0.0,0.0,0.0,0.0,0.0,0.0,0.0,0.0,0.0,0.0,0.0,0.0,0.0,0.0,0.0,0.0,0.0,0.0,0.0,0.0,0.0,0.0,0.0,0.0,0.0,0.0,0.0,0.0,-1.1228,-0.964,-1.0737,0.0,0.0,0.0,0.0,0.0,0.0,-1.2858,-1.4027,0.0,0.0,0.0,0.0,0.0,0.0,0.0,0.0,0.0,0.0,0.0,0.0,0.0,0.0,0.0,0.0,0.0,0.0,0.0,0.0,0.0,0.0,0.0,0.0,0.0,0.0,0.0,0.0,0.0,0.0,0.0,0.0,0.0,0.0,0.0,0.0,0.0,0.0,0.0,0.0,0.0,0.0,0.0,0.0,0.0,0.0,0.0,0.0,0.0,0.0,0.0,0.0,0.0,0.0,0.0,-0.2164,-0.6407,-0.547,0.1048,-0.0446,-0.1035,-0.0055,0.0928,0.1382,0.0,0.0,0.0,0.0,0.0,0.0,0.0,0.0,0.0,0.0,0.0,0.0,0.0,0.0,0.0,0.0,0.0,0.0,0.0,0.0,0.0,0.0,0.0,0.0,0.0,0.0,0.0,0.0,0.0,0.0,0.0,0.0,0.0,0.0,0.0,0.0,0.0,0.0,0.0,0.0,0.0,-1.1119,-1.2641,-1.1378,0.0,0.0,0.0,0.0,-1.5251,-1.4895,0.0,0.0,0.0,0.0,0.0,0.0,0.0,0.0,0.0,0.0,0.0,0.0,0.0,0.0,0.0,0.0,0.0,0.0,0.0,0.0,0.0,0.0,0.0,0.0,0.0,0.0,0.0,0.0,0.0,0.0,0.0,0.0,0.0,0.0,0.0,0.0,0.0,0.0,0.0,0.0,0.0,0.0,0.0,0.0,0.0,0.0,0.0,0.0,0.0,0.0,0.0,0.0,0.0,0.0,0.0,0.0,-0.5896,-0.6824,-0.4519,0.1046,-0.0474,-0.1035,0.0,0.0836,0.113,0.0,0.0,0.0,0.0,0.0,0.0,0.0,0.0,0.0,0.0,0.0,0.0,0.0,0.0,0.0,0.0,0.0,0.0,0.0,0.0,0.0,0.0,0.0,0.0,0.0,0.0,0.0,0.0,0.0,0.0,0.0,0.0,0.0,0.0,0.0,0.0,0.0,0.0,0.0,0.0,0.0,-1.4328,-1.2906,-1.594,-1.6824,0.0,0.0,-1.4716,-1.4959,-1.6728,0.0,0.0,0.0,0.0,0.0,0.0,0.0,0.0,0.0,0.0,0.0,0.0,0.0,0.0,0.0,0.0,0.0,0.0,0.0,0.0,0.0,0.0,0.0,0.0,0.0,0.0,0.0,0.0,0.0,0.0,0.0,0.0,0.0,0.0,0.0,0.0,0.0,0.0,0.0,0.0,0.0,0.0,0.0,0.0,0.0,0.0,0.0,0.0,0.0,0.0,0.0,0.0,0.0,0.0,0.0,-0.9156,-0.6193,-0.5898,-0.3445,0.1241,0.0088,-0.0445,0.0,0.0779,0.0895,0.0,0.0,0.0,0.0,0.0,0.0,0.0,0.0,0.0,0.0,0.0,0.0,0.0,0.0,0.0,0.0,0.0,0.0,0.0,0.0,0.0,0.0,0.0,0.0,0.0,0.0,0.0,0.0,0.0,0.0,0.0,0.0,0.0,0.0,0.0,0.0,0.0,0.0,0.0,0.0,0.0,0.0,-1.5766,-1.1726,0.0,0.0,0.0,-1.5839,-1.3939,0.0,0.0,0.0,0.0,0.0,0.0,0.0,0.0,0.0,0.0,0.0,0.0,0.0,0.0,0.0,0.0,0.0,0.0,0.0,0.0,0.0,0.0,0.0,0.0,0.0,0.0,0.0,0.0,0.0,0.0,0.0,0.0,0.0,0.0,0.0,0.0,0.0,0.0,0.0,0.0,0.0,0.0,0.0,0.0,0.0,0.0,0.0,0.0,0.0,0.0,0.0,0.0,0.0,0.0,0.0,0.0,0.0,-0.796,-0.6698,-0.3753,0.0896,0.038,0.0,0.0,0.0682,0.0,0.0,0.0,0.0,0.0,0.0,0.0,0.0,0.0,0.0,0.0,0.0,0.0,0.0,0.0,0.0,0.0,0.0,0.0,0.0,0.0,0.0,0.0,0.0,0.0,0.0,0.0,-0.4752,0.0,0.0,0.0,0.0,0.0,0.0,0.0,0.0,0.0,0.0,0.0,0.0,0.0,0.0,-1.4918,-1.7198,-1.0506,-0.7175,0.0,0.0,-1.6611,-1.4378,-1.5393,-1.5819,0.0,0.0,0.0,0.0,0.0,0.0,0.0,0.0,0.0,0.0,0.0,0.0,0.0,0.0,0.0,0.0,0.0,0.0,0.0,0.0,0.0,0.0,0.0,0.0,0.0,0.0,0.0,0.0,0.0,0.0,0.0,0.0,0.0,0.0,0.0,0.0,0.0,0.0,0.0,0.0,0.0,0.0,0.0,0.0,0.0,0.0,0.0,0.0,0.0,0.0,0.0,0.0,0.0,0.0,0.0,-1.3582,-1.0931,-0.6334,-0.0182,0.0033,0.0,0.0,0.0598,0.1143,0.0,0.0,0.0,0.0,0.0,0.0,0.0,0.0,0.0,0.0,0.0,0.0,0.0,0.0,0.0,0.0,0.0,0.0,0.0,0.0,0.0,0.0,0.0,0.0,0.0,0.0,0.0,0.0,0.0,0.0,0.0,0.0,0.0,0.0,0.0,0.0,0.0,0.0,0.0,0.0,0.0,-1.6137,-1.5251,-1.7682,-1.9012,0.0,0.0,-1.6803,-1.7455,-1.8135,-1.7948,-1.5756,0.0,0.0,0.0,0.0,0.0,0.0,0.0,0.0,0.0,0.0,0.0,0.0,0.0,0.0,0.0,0.0,0.0,0.0,0.0,0.0,0.0,0.0,0.0,0.0,0.0,0.0,0.0,0.0,0.0,0.0,0.0,0.0,0.0,0.0,0.0,0.0,0.0,0.0,0.0,0.0,0.0,0.0,0.0,0.0,0.0,0.0,0.0,0.0,0.0,0.0,0.0,0.0,0.0,-1.3616,-1.3525,-0.9365,-0.4864,0.0,0.0,0.0,0.0,0.0584,0.1057,0.0,0.0,0.0,0.0,0.0,0.0,0.0,0.0,0.0,0.0,0.0,0.0,0.0,0.0,0.0,0.0,0.0,0.0,0.0,0.0,0.0,0.0,0.0,0.0,0.0,0.0,0.0,0.0,-1.2055,-1.2596,-1.489,0.0,0.0,0.0,0.0,0.0,0.0,0.0,0.0,0.0,0.0,-1.6142,-1.6239,-1.7951,0.0,0.0,-1.8135,-1.7948,-1.6508,-1.7378,-1.7312,-1.4676,-1.4835,0.0,0.0,0.0,0.0,0.0,0.0,0.0,0.0,0.0,0.0,0.0,0.0,0.0,0.0,0.0,0.0,0.0,0.0,0.0,0.0,0.0,0.0,0.0,0.0,0.0,0.0,0.0,0.0,0.0,0.0,0.0,0.0,0.0,0.0,0.0,0.0,0.0,0.0,0.0,0.0,0.0,0.0,0.0,0.0,0.0,0.0,0.0,0.0,0.0,0.0,0.0,0.0,-1.2422,-1.2644,-0.7917,-0.3718,0.0,0.0,0.0,0.0,0.0409,0.1078,0.0,0.0,0.0,0.0,0.0,0.0,0.0,0.0,0.0,0.0,0.0,0.0,0.0,0.0,0.0,0.0,0.0,0.0,0.0,0.0,0.0,0.0,0.0,0.0,0.0,0.0,0.0,0.0,-1.3053,-1.2942,-1.6879,0.0,0.0,0.0,0.0,0.0,0.0,0.0,0.0,0.0,0.0,-1.6582,-1.7027,-1.7966,-1.8229,-1.729,-1.7924,-1.7815,-1.5758,-1.6493,-1.6637,-1.479,0.0,0.0,0.0,0.0,0.0,0.0,0.0,0.0,0.0,0.0,0.0,0.0,0.0,0.0,0.0,0.0,0.0,0.0,0.0,0.0,0.0,0.0,0.0,0.0,0.0,0.0,0.0,0.0,0.0,0.0,0.4579,0.0,0.0,0.0,0.0,0.0,0.0,0.0,0.0,0.0,0.0,0.0,0.0,0.0,0.0,0.0,0.0,0.0,0.0,0.0,0.0,0.0,0.0,-1.1287,-1.1336,-0.7454,-0.3716,0.0,0.0,0.0,0.0,0.0,0.1247,0.3734,0.0,0.0,0.0,0.0,0.0,0.0,0.0,0.0,0.0,0.0,0.0,0.0,0.0,0.0,0.0,0.0,0.0,0.0,0.0,0.0,0.0,0.0,0.0,0.0,0.0,0.0,-1.4427,-1.282,-1.1876,0.0,0.0,0.0,0.0,0.0,0.0,0.0,0.0,0.0,0.0,-1.6291,-1.7586,-1.7154,-1.8517,-1.8653,-1.6234,-1.5888,-1.5873,-1.5786,-1.6013,-1.6351,0.0,0.0,0.0,0.0,0.0,0.0,0.0,0.0,0.0,0.0,0.0,0.0,0.0,0.0,0.0,0.0,0.0,0.0,0.0,0.0,0.0,0.0,0.0,0.0,0.0,0.0,0.0,0.347,0.3742,0.0,0.0,0.0,0.0,0.0,0.0,0.0,0.0,0.0,0.0,0.0,0.209,0.2603,0.0,0.0,0.0,0.0,0.0,0.0,0.0,0.0,0.0,0.0,0.0,0.0,-0.9095,-0.7483,-0.6136,-0.3681,0.0,0.0,0.0,0.0,0.0,0.0417,0.1312,0.0,0.0,0.0,0.0,0.0,0.0,0.0,0.0,0.0,0.0,0.0,0.0,0.0,0.0,0.0,0.0,0.0,0.0,0.0,0.0,0.0,0.0,0.0,0.0,0.0,-1.3999,0.0,0.0,0.0,0.0,0.0,0.0,0.0,0.0,0.0,0.0,0.0,-1.5398,-1.5275,-1.5125,-1.5267,-1.5866,-1.6601,-1.6858,0.0,0.0,0.0,0.0,0.0,0.0,0.0,0.0,0.0,0.0,0.0,0.0,0.0,0.0,-1.9997,-1.7675,-1.8348,-1.9148,-1.8743,0.0,0.0,0.0,0.0,0.0,0.0,0.0,0.0,0.0,0.0,0.0,0.0,0.0,0.0,0.3032,0.0,0.3147,0.0,0.0,0.0,0.0,0.0,0.0,0.0,0.0,0.2077,0.2653,0.3077,0.3594,0.3812,0.0,0.239,0.1443,0.0,0.0,0.0,0.0,0.0,0.0,0.0,0.0,-0.7398,-0.5972,-0.5082,-0.3306,-0.0655,-0.0186,0.0,0.0,0.0,0.0,0.0,0.1766,0.2909,0.0,0.0,0.0,0.0,0.0,0.0,0.0,0.0,0.0,0.0,0.0,0.0,0.0,0.0,0.0,0.0,0.0,0.0,0.0,0.0,0.0,0.0,0.0,-1.3107,0.0,0.0,0.0,0.0,0.0,0.0,0.0,0.0,0.0,-1.688,-1.605,-1.5312,-1.5495,-1.4998,-1.455,-1.4399,0.0,0.0,0.0,0.0,0.0,0.0,0.0,-1.5198,-1.5743,-1.6232,-1.7141,-1.8894,-1.8837,-1.8867,-1.9876,0.0,0.0,-1.9181,-1.9798,-2.0803,-2.1227,-2.0731,-2.0114,-1.9703,-1.927,-1.89,0.0,0.0,0.0,0.0,0.0,0.0,0.0,0.0,0.3404,0.3585,0.0,0.3503,0.0,0.0,0.0,0.0,0.0,0.0758,0.0,0.0,0.2704,0.3281,0.3349,0.3868,0.4092,0.4085,0.323,0.2768,0.2605,-0.0418,0.0,0.0,0.0,0.0,0.0,0.0,-0.6262,-0.6507,-0.4433,-0.2711,-0.1494,-0.0515,0.0,0.0,0.0,0.0,0.0,0.0,0.1347,0.4159,0.3332,0.0,0.0,0.0,0.0,0.0,0.0,0.0,0.0,0.0,0.0,0.0,0.0,0.0,0.0,0.0,0.0,0.0,0.0,0.0,0.0,-1.1419,0.0,0.0,0.0,0.0,0.0,0.0,0.0,0.0,0.0,0.0,-1.9807,-1.7883,-1.576,-1.4923,0.0,0.0,0.0,0.0,-1.2698,-1.1626,-1.4905,-1.6518,-1.3555,-1.3506,-1.478,-1.754,0.0,0.0,-2.2212,-2.1688,-2.0898,-2.1276,-2.1612,-2.1589,-2.0666,-2.1051,-2.199,-2.3223,-2.2301,-2.1285,-2.0677,-1.9759,-1.8905,0.1238,0.0,0.0,0.0,0.0,0.3016,0.342,0.3064,0.3649,0.3897,0.3883,0.4057,0.0,0.0,0.0,0.0,0.0,0.0,0.1722,0.2048,0.2247,0.2429,0.2549,0.2682,0.2804,0.2747,0.196,0.1627,0.1572,0.016,-0.0792,-0.13,0.0,0.0,0.0,0.0,-0.4713,-0.4016,-0.3553,-0.2645,-0.1249,-0.0426,0.0,0.0,0.0,0.0,0.0,0.0,0.0395,0.128,0.3003,0.0,0.0,0.0,0.0,0.0,0.0,0.0,0.0,0.0,0.0,0.0,0.0,0.0,0.0,0.0,0.0,0.0,0.0,0.0,-1.1199,-1.2837,-1.3206,0.0,0.0,0.0,0.0,0.0,0.0,0.0,0.0,0.0,-1.6078,-1.5811,-1.4517,0.0,0.0,-1.2334,-1.1663,-1.1395,-1.2002,-1.4044,-1.549,0.0,0.0,-1.6226,-1.6309,-1.8335,-1.9223,-2.0091,-2.1019,-2.1555,-2.191,-2.2005,-2.1607,-2.0965,-2.0247,-2.122,-2.203,-2.1898,-2.1859,-2.1784,-2.1341,-2.0904,-2.055,0.0819,0.0577,0.2273,0.2724,0.2468,0.3595,0.3936,0.3672,0.4036,0.4195,0.4185,0.4289,0.4168,0.3912,0.3576,0.0,0.0,0.0,0.228,0.268,0.2254,0.23,0.2617,0.2341,0.2176,0.2176,0.1453,0.1118,0.1118,0.0331,-0.0105,-0.024,0.0,0.0,-0.2604,-0.3234,-0.3224,-0.2586,-0.2456,-0.2114,-0.1566,-0.084,-0.0304,0.0,0.0,0.0,0.0,0.0,0.0,0.0,0.1734,0.2926,0.0,0.0,0.0,0.0,0.0,0.0,0.0,0.0,0.0,0.0,0.0,-0.424,-0.2949,0.0,0.0,0.0,-1.0876,-1.2837,-1.1849,-1.2834,0.0,0.0,0.0,0.0,0.0,0.0,0.0,-1.213,-1.2412,-1.2922,-1.3722,-1.3891,-1.3563,-1.2633,-1.2648,-1.2513,-1.192,0.0,-1.4583,-1.5754,-1.672,-1.7384,-1.754,-1.7209,-1.7562,-1.942,-2.0249,-2.0671,-2.0733,-2.1335,-2.1761,-2.1639,-2.0743,-1.9837,-1.9728,-2.03,-2.0616,-1.9963,-2.0112,-2.035,-2.0382,-2.0278,-2.0091,0.1118,0.1281,0.2537,0.3464,0.4105,0.4214,0.4338,0.446,0.446,0.4463,0.4508,0.4321,0.421,0.4204,0.3502,0.0,0.3197,0.2554,0.2703,0.3345,0.251,0.251,0.3178,0.2397,0.2063,0.2065,0.134,0.1006,0.0949,0.0326,0.0,0.0,-0.0535,-0.11,-0.1616,-0.1825,-0.1912,-0.1912,-0.1372,-0.1398,-0.2015,-0.1345,-0.0673,0.0,0.0,0.0,0.0,0.0,0.0,0.0,0.0,0.1276,0.3964,0.0,0.0,0.0,0.0,0.0,0.0,0.0,0.0,0.0,0.0,0.0,0.0,0.0,0.0,0.0,-1.0329,0.0,-1.3269,-1.1948,0.0,0.0,0.0,-1.0819,-0.8359,-1.0253,-1.1984,-1.2797,0.0,0.0,-1.2691,-1.2531,-1.3095,-1.5095,-1.5267,-1.4607,-1.3019,-1.6132,-1.8421,-1.6546,-1.8258,-1.8812,-1.6963,-1.7272,-1.853,-2.0325,-2.0939,-2.0894,-2.0798,-2.0846,-2.0879,-2.0909,-1.9307,-1.8096,-1.8999,-1.8391,-1.7923,-1.7814,-1.7733,-1.7857,-1.8423,-1.8373,-1.8182,0.1453,0.1952,0.2268,0.2811,0.3526,0.4187,0.4488,0.4463,0.4463,0.4463,0.4515,0.4426,0.4412,0.4409,0.4263,0.4158,0.4136,0.3416,0.3207,0.3231,0.1953,0.173,0.2397,0.1118,0.0838,0.1284,0.0616,0.028,0.028,0.0111,0.0,0.0,-0.0111,-0.0269,-0.0455,-0.0991,-0.1327,-0.1327,-0.1154,-0.0895,-0.056,-0.0336,-0.0168,0.0,0.0,0.0,0.0,0.0,0.0,0.0,0.0,0.0336,0.1022,0.0839,0.0,0.0,0.0,0.0,0.0,0.0,0.0,0.0,0.0,-0.4538,-0.2377,0.0,-0.257,0.0,-1.0464,-1.3341,-1.1416,-1.2079,0.0,0.0,-1.1268,-1.1771,-1.1697,-1.2226,-1.2701,-1.2851,-1.2736,-1.269,-1.2913,-1.3403,-1.4016,-1.4754,-1.3944,-1.3151,-1.2859,-1.3313,-1.4572,-1.6323,-1.8339,-1.9445,-1.8887,-1.9,-1.933,-1.9903,-2.0249,-2.0333,-2.0008,-1.9984,-2.0,-1.9904,-1.8218,-1.6366,-1.4891,-1.5647,-1.6249,-1.5443,-1.6241,-1.7196,-1.6991,-1.7139,-1.7437,0.2341,0.2732,0.3067,0.3456,0.3846,0.3904,0.3959,0.4012,0.4349,0.4463,0.4463,0.4463,0.4463,0.4463,0.4463,0.4291,0.3959,0.3569,0.3342,0.3231,0.212,0.2009,0.2619,0.1507,0.1006,0.1062,0.0671,0.0336,0.0,0.0,0.0,0.0,0.0,0.0,0.0,-0.0428,-0.0598,-0.0598,-0.0943,-0.0728,-0.0056,-0.0336,-0.0446,-0.0382,-0.0134,0.0,0.0,0.0,0.0,0.0,0.0,0.0,0.0,-0.081,-0.0199,0.0,0.0,0.0,0.0,0.0,0.0,0.0,0.0,0.0,0.0,0.0,-0.5251,-0.6102,-0.9657,-1.1429,-1.0249,-0.8472,-0.837,-1.1072,-1.164,-1.2066,-1.2818,-1.2314,-1.2206,-1.2822,-1.2932,-1.2946,-1.2974,-1.3367,-1.3812,-1.431,-1.3443,-1.3164,-1.4187,-1.424,-1.4849,-1.6923,-1.8627,-1.9698,-1.9708,-1.9309,-1.8992,-1.9004,-1.9197,-1.9207,-1.8948,-1.8555,-1.8363,-1.8698,-1.6991,-1.4856,-1.3314,-1.4485,-1.5382,-1.4264,-1.4756,-1.5624,-1.5624,-1.6071,-1.6494,0.3287,0.3342,0.4067,0.4294,0.4181,0.3566,0.3342,0.3511,0.4184,0.4463,0.4463,0.4463,0.4463,0.4463,0.4405,0.3959,0.3287,0.3234,0.3234,0.3121,0.251,0.2619,0.3231,0.2565,0.1898,0.1397,0.1284,0.0895,0.0168,0.0168,0.0112,0.0,0.0,0.0,0.0,0.0,0.0,0.0,-0.0617,-0.0673,-0.0056,-0.0617,-0.0883,-0.0801,-0.0373,-0.0131,-0.0141,-0.0067,0.0,0.0,0.0,-0.0153,-0.0468,-0.1036,-0.1769,0.0,-0.0988,0.0,0.0,0.0,0.0,0.0,0.0,0.0,0.0,-0.5356,-0.7921,-0.8196,-0.8565,-0.9015,-0.9526,-0.379,-0.3083,-1.0457,-1.0803,-1.055,-1.1094,-1.0795,-1.116,-1.2711,-1.2895,-1.2914,-1.2918,-1.2909,-1.3141,-1.3103,-1.3213,-1.3779,-1.5645,-1.617,-1.6683,-1.7907,-1.8974,-1.9634,-1.9328,-1.8387,-1.771,-1.7942,-1.8051,-1.7973,-1.7866,-1.7151,-1.6722,-1.7233,-1.5608,-1.3757,-1.2997,-1.4026,-1.4441,-1.3256,-1.359,-1.4133,-1.4457,-1.5039,-1.5454,0.3342,0.3342,0.3456,0.3176,0.2676,0.3121,0.3677,0.4291,0.4405,0.4463,0.4463,0.4463,0.4463,0.446,0.3846,0.3456,0.3287,0.2674,0.2399,0.2397,0.2286,0.2563,0.3231,0.2563,0.2454,0.2901,0.2341,0.1619,0.0895,0.0895,0.056,0.0,0.0,0.0,0.0,0.0,0.0,0.0,-0.0168,-0.0112,0.0,-0.0112,-0.0221,-0.016,-0.0693,0.0,-0.0953,-0.0337,0.0,0.0,0.0,0.0,0.0,0.0,0.0,0.0,0.0,0.0,0.0,0.0,0.0,0.0,-0.2561,-0.3687,-0.4448,-0.5529,-0.6754,-0.8191,-0.8597,-0.8846,-0.8888,-0.357,-0.065,-0.2222,0.0,-0.2312,-0.257,-0.6366,-1.0103,-1.2601,-1.2869,-1.2855,-1.2547,-1.2903,-1.2062,-1.0477,-1.2122,-1.393,-1.4484,-1.5724,-1.6782,-1.7598,-1.8627,-1.9301,-1.8517,-1.6688,-1.6068,-1.7143,-1.7505,-1.7192,-1.6802,-1.6579,-1.6009,-1.5628,-1.4122,-1.3112,-1.292,-1.3182,-1.3364,-1.2987,-1.3035,-1.3162,-1.3238,-1.4107,-1.488,0.3901,0.0,0.3901,0.368,0.0,0.3735,0.4125,0.4463,0.4463,0.4463,0.4463,0.4463,0.4463,0.4463,0.407,0.3901,0.3901,0.3511,0.3342,0.3345,0.3342,0.3511,0.3846,0.3511,0.3345,0.3342,0.2952,0.2176,0.1174,0.1118,0.0727,0.0,0.0,0.0,0.0,0.0,0.0,0.0,0.0,0.0,0.0,0.0,-0.011,-0.0427,0.0,0.0,0.0,0.0,0.0,0.0,0.0,0.0,0.0,0.0,0.0,-0.1336,-0.1481,-0.1052,-0.0095,-0.1141,-0.1674,-0.1176,-0.3044,-0.4546,-0.5248,-0.5829,-0.6603,-0.7713,-0.8435,-0.8788,-0.861,-0.3494,0.0,0.0,0.0,0.0,0.0,-0.2582,-0.4959,-0.6554,-0.9049,-0.9841,-0.692,-0.9227,-1.0789,-1.0807,-1.2255,-1.368,-1.4145,-1.5476,-1.6323,-1.5581,-1.7437,-1.827,-1.6731,-1.5617,-1.4905,-1.593,-1.6046,-1.5947,-1.5881,-1.5534,-1.5084,-1.4641,-1.3375,-1.2357,-1.2813,-1.2891,-1.2891,-1.2891,-1.2891,-1.2891,-1.2978,-1.3836,-1.4709,0.4463,0.4463,0.4463,0.4463,0.4463,0.4463,0.4463,0.4463,0.0,0.0,0.0,0.4463,0.4463,0.4463,0.4346,0.4294,0.4294,0.4125,0.407,0.407,0.4239,0.4294,0.4294,0.446,0.4125,0.3511,0.3511,0.2788,0.1507,0.1507,0.1062,0.028,0.0224,0.0112,0.0,0.0,0.0,0.0,0.0,0.0,0.0,0.0,-0.0221,-0.0746,-0.0266,-0.0262,-0.0707,-0.0252,0.0,0.0,0.0,0.0,0.0,0.0,0.0,0.0,-0.0659,-0.0388,0.106,-0.134,-0.2596,-0.1759,-0.3929,-0.5321,-0.5335,-0.6119,-0.6766,-0.7128,-0.8003,-0.85,-0.8485,-0.3414,-0.0225,-0.0664,-0.0336,0.0,0.0,-0.1091,-0.2397,-0.2589,-0.6174,-0.6944,-0.3765,-0.6904,-1.0149,-1.2263,-1.2873,-1.3115,-1.3892,-1.5138,-1.5372,-1.382,-1.5635,-1.6754,-1.5207,-1.4098,-1.4226,-1.4846,-1.4525,-1.4294,-1.4589,-1.4273,-1.4031,-1.4247,-1.2714,-1.2009,-1.2384,-1.2705,-1.2861,-1.2891,-1.2891,-1.2891,-1.2978,-1.3742,-1.4525,0.4463,0.4463,0.4463,0.4463,0.4463,0.4463,0.4463,0.4463,0.4463,0.4463,0.4463,0.4463,0.4463,0.446,0.379,0.3456,0.34,0.2843,0.2508,0.0,0.3178,0.3511,0.3569,0.4239,0.446,0.4349,0.4349,0.3901,0.3065,0.301,0.2341,0.1062,0.095,0.0616,0.0,0.0,0.0,0.0,0.0,0.0,0.0,0.0,-0.0055,-0.0107,0.0,-0.0052,-0.0101,0.0,0.0,0.0,0.0,0.0,0.0,0.0,0.0,0.0,0.0,-0.0031,0.0157,-0.1773,-0.3301,-0.3981,-0.4401,-0.4886,-0.5454,-0.6185,-0.6647,-0.6696,-0.7047,-0.7398,-0.7255,-0.3062,-0.1181,-0.324,-0.1545,0.0,0.0,-0.4429,-0.7972,-0.9941,-0.8301,-0.8274,-1.002,-1.1358,-1.2083,-1.2717,-1.2666,-1.291,-1.3238,-1.416,-1.4297,-1.3416,-1.4157,-1.4937,-1.4334,-1.2725,-1.2628,-1.4882,-1.3392,-1.2434,-1.2998,-1.2969,-1.29,-1.3113,-1.2199,-1.1499,-1.1283,-1.2127,-1.2693,-1.2861,-1.2891,-1.2891,-1.2929,-1.3515,-1.4097,0.4463,0.4463,0.4463,0.4463,0.4463,0.4463,0.4463,0.4463,0.4463,0.4463,0.4463,0.4463,0.4463,0.446,0.4125,0.3959,0.3901,0.3622,0.3456,0.3456,0.379,0.3956,0.4015,0.4346,0.4463,0.4463,0.4463,0.407,0.34,0.3342,0.2563,0.1174,0.0727,0.0336,0.0,0.0,0.0,0.0,0.0,0.0,0.0,0.0,0.0,0.0,0.0,0.0,0.0,0.0,0.0,0.0,0.0,0.0,0.0,0.0,0.0,0.0,0.0,0.0,0.0,-0.1595,-0.2941,-0.3848,-0.4294,-0.4625,-0.4952,-0.5277,-0.5555,-0.5773,-0.576,-0.586,-0.6189,-0.3939,-0.3619,-0.6506,-0.5504,-0.4813,-0.498,-0.6892,-0.9243,-1.039,-0.9875,-0.9858,-1.1541,-1.2072,-1.2013,-1.1604,-1.1591,-1.199,-1.2725,-1.2871,-1.2686,-1.2021,-1.2871,-1.3246,-1.2725,-1.1697,-1.1425,-1.2452,-1.1814,-1.129,-1.1375,-1.1493,-1.1669,-1.1742,-1.1399,-1.1082,-1.0855,-1.1507,-1.2236,-1.2861,-1.2891,-1.2891,-1.2978,-1.3372,-1.4039,0.4545,0.457,0.4514,0.4549,0.4519,0.4463,0.4463,0.4463,0.4463,0.4463,0.4463,0.4463,0.4463,0.4463,0.4463,0.4463,0.4463,0.4463,0.4463,0.4463,0.4463,0.4463,0.4463,0.4463,0.4463,0.4463,0.4463,0.4184,0.368,0.3566,0.2788,0.1396,0.0615,0.0168,0.0,0.0,0.0,0.0,0.0,0.0,0.0,0.0,0.0,0.0,0.0,0.0,0.0,0.0,0.0,0.0,0.0,0.0,0.0,0.0,0.0,0.0,0.0,-0.0168,-0.0504,-0.1396,-0.2343,-0.3345,-0.3901,-0.4233,-0.4239,-0.4405,-0.4629,-0.4901,-0.4714,-0.4735,-0.505,-0.4713,-0.5535,-0.795,-0.8627,-0.8454,-0.8712,-0.8804,-0.8786,-0.8952,-1.0195,-1.0955,-1.1122,-1.1314,-1.1283,-1.0673,-1.0695,-1.1401,-1.2157,-1.1783,-1.1157,-1.0872,-1.1742,-1.2353,-1.1074,-1.0466,-1.0356,-1.0148,-1.0289,-1.0195,-1.0077,-1.0195,-1.0312,-1.0372,-1.0685,-1.0981,-1.1225,-1.1355,-1.1938,-1.2657,-1.2891,-1.2891,-1.2929,-1.3248,-1.3862,0.4789,0.468,0.466,0.4589,0.4522,0.4463,0.4463,0.4463,0.4463,0.4463,0.4463,0.4463,0.4463,0.4463,0.4463,0.4463,0.4463,0.4463,0.4463,0.4463,0.4463,0.4463,0.4463,0.4463,0.4463,0.4463,0.4463,0.446,0.4349,0.4349,0.3569,0.2174,0.134,0.0615,0.0,0.0,0.0,0.0,0.0,0.0,0.0,0.0,0.0,0.0,0.0,0.0,0.0,0.0,0.0,0.0,0.0,0.0,0.0,0.0,0.0,0.0,0.0,-0.0559,-0.1729,-0.1509,-0.1842,-0.3176,-0.3337,-0.3448,-0.3508,-0.407,-0.4519,-0.4574,-0.4515,-0.4509,-0.4594,-0.4537,-0.5177,-0.6754,-0.8058,-0.8804,-0.8804,-0.8804,-0.8786,-0.8793,-0.953,-1.0367,-1.1167,-1.1071,-1.0814,-1.0645,-1.0694,-1.0972,-1.1183,-1.0931,-1.025,-0.9747,-1.104,-1.19,-1.0872,-0.971,-0.9524,-0.994,-0.9532,-0.9211,-0.9152,-0.9099,-0.9008,-0.948,-1.0293,-1.131,-1.2022,-1.2187,-1.1873,-1.2608,-1.2891,-1.2891,-1.2891,-1.2978,-1.3334,0.4775,0.4625,0.4653,0.4602,0.4529,0.4463,0.4463,0.4463,0.4463,0.4463,0.4463,0.4463,0.4463,0.4463,0.4463,0.4463,0.4463,0.4463,0.4463,0.4463,0.4463,0.4463,0.4463,0.4463,0.4463,0.4463,0.4463,0.4463,0.4405,0.4067,0.3289,0.223,0.1452,0.0727,0.0,0.0,0.0,0.0,0.0,0.0224,0.056,0.0224,0.0,0.0,0.0,0.0,0.0,0.0,0.0,0.0,0.0,0.0,0.0,0.0,0.0,0.0,0.0,-0.028,-0.0838,-0.1006,-0.1396,-0.2009,-0.2395,-0.2839,-0.3342,-0.4079,-0.4477,-0.4463,-0.4463,-0.4463,-0.4463,-0.4463,-0.5077,-0.6465,-0.7907,-0.8804,-0.8804,-0.8804,-0.8784,-0.8797,-0.9023,-0.94,-0.9843,-0.9814,-0.9814,-0.9961,-0.9769,-0.9547,-1.0458,-1.0136,-0.9006,-0.7859,-0.787,-0.8495,-0.9176,-0.9263,-0.9022,-0.918,-0.9068,-0.8804,-0.8804,-0.8804,-0.8804,-0.8804,-1.0384,-1.179,-1.2715,-1.2676,-1.251,-1.2881,-1.2891,-1.2891,-1.2891,-1.2891,-1.3065,0.4802,0.4611,0.4602,0.4565,0.4519,0.4463,0.4463,0.4463,0.4463,0.4463,0.4463,0.4463,0.4463,0.4463,0.4463,0.4463,0.4463,0.4463,0.4463,0.4463,0.4463,0.4463,0.4463,0.4463,0.4463,0.4463,0.4463,0.4463,0.446,0.4015,0.3287,0.2508,0.2009,0.1285,0.0392,0.028,0.0224,0.0,0.0,0.0336,0.0894,0.056,0.028,0.0336,0.0504,0.0392,0.0,0.0224,0.0168,0.0,0.0,0.0,0.0,0.0,0.0,0.0,0.0,-0.0112,-0.028,-0.0615,-0.0895,-0.1118,-0.1619,-0.223,-0.3012,-0.3916,-0.4477,-0.4467,-0.4463,-0.4463,-0.4463,-0.4463,-0.5066,-0.6218,-0.7729,-0.8752,-0.8804,-0.8804,-0.8804,-0.8798,-0.8849,-0.877,-0.883,-0.8876,-0.8992,-0.9026,-0.8112,-0.7682,-0.9096,-0.8758,-0.7777,-0.675,-0.5496,-0.5823,-0.7883,-0.8043,-0.8209,-0.8699,-0.8699,-0.848,-0.8699,-0.8804,-0.8804,-0.8976,-1.0869,-1.2106,-1.2713,-1.29,-1.2852,-1.2891,-1.2891,-1.2891,-1.2891,-1.2891,-1.2891,0.4948,0.4674,0.4531,0.4536,0.4463,0.4463,0.4463,0.4463,0.4463,0.4463,0.4463,0.4463,0.4463,0.4463,0.4463,0.4463,0.4463,0.4463,0.4463,0.4463,0.4463,0.4463,0.4463,0.4463,0.4463,0.4463,0.4463,0.4463,0.4463,0.446,0.407,0.3287,0.3121,0.2452,0.1229,0.095,0.0671,0.0,0.0,0.0336,0.1006,0.1062,0.1062,0.1118,0.1675,0.1396,0.0336,0.0728,0.0727,0.0056,0.0,0.0,0.0,0.0,0.0,0.0,0.0,-0.028,-0.0783,-0.0448,-0.0336,-0.0951,-0.1118,-0.1452,-0.2341,-0.34,-0.4184,-0.4463,-0.4463,-0.4463,-0.4463,-0.4463,-0.4802,-0.5593,-0.7413,-0.8427,-0.8765,-0.8434,-0.8752,-0.8811,-0.8752,-0.858,-0.8692,-0.8729,-0.8312,-0.7829,-0.6801,-0.6357,-0.694,-0.6907,-0.6583,-0.6312,-0.5555,-0.5277,-0.7122,-0.7283,-0.7337,-0.7925,-0.819,-0.8049,-0.848,-0.8804,-0.8804,-0.8804,-0.932,-1.0466,-1.2122,-1.289,-1.292,-1.29,-1.29,-1.2891,-1.2891,-1.2891,-1.2891,0.4958,0.4687,0.4629,0.4555,0.4519,0.4463,0.4463,0.4463,0.4463,0.4463,0.4463,0.4463,0.4463,0.4463,0.4463,0.4463,0.4463,0.4463,0.4463,0.4463,0.4463,0.4463,0.4463,0.4463,0.4463,0.4463,0.4463,0.4463,0.4463,0.4463,0.4125,0.34,0.2843,0.2341,0.173,0.0839,0.0448,0.0615,0.028,0.0336,0.1118,0.1563,0.1786,0.1842,0.2063,0.1953,0.1396,0.1673,0.1452,0.0727,0.0727,0.0504,0.0,0.0,0.0,0.0,0.0,-0.0112,-0.0336,-0.0168,-0.0112,-0.0336,-0.0392,-0.095,-0.184,-0.1947,-0.2388,-0.3953,-0.4463,-0.4463,-0.4463,-0.4463,-0.4746,-0.5428,-0.5845,-0.6668,-0.7318,-0.6905,-0.6701,-0.8211,-0.8325,-0.7758,-0.7551,-0.7388,-0.727,-0.7004,-0.623,-0.6013,-0.6249,-0.5882,-0.5336,-0.5226,-0.4901,-0.4952,-0.6209,-0.6583,-0.6735,-0.7416,-0.7782,-0.8143,-0.854,-0.8752,-0.8804,-0.8804,-0.8804,-0.942,-1.1368,-1.249,-1.2586,-1.2783,-1.2832,-1.2891,-1.2891,-1.2891,-1.2891,0.4945,0.4772,0.4711,0.4663,0.4666,0.4558,0.4568,0.4606,0.4666,0.4609,0.4606,0.4618,0.4622,0.4582,0.4507,0.4584,0.4642,0.4573,0.4463,0.4463,0.4463,0.4463,0.4463,0.4463,0.4463,0.4463,0.4463,0.4463,0.4463,0.4463,0.4236,0.3735,0.3176,0.2788,0.2399,0.1284,0.1006,0.1228,0.0727,0.0727,0.1452,0.2176,0.2621,0.2621,0.2788,0.2676,0.2232,0.1953,0.1619,0.1173,0.0895,0.0503,0.0,0.0,0.0,0.0,0.0,0.0,0.0,0.0,0.0,0.0,0.0,-0.0615,-0.1898,-0.0835,-0.1612,-0.3619,-0.4463,-0.4463,-0.4463,-0.4463,-0.4688,-0.5033,-0.4746,-0.503,-0.6193,-0.5317,-0.5517,-0.6786,-0.7225,-0.6939,-0.6647,-0.6509,-0.6401,-0.6367,-0.5701,-0.5487,-0.566,-0.5171,-0.4463,-0.4463,-0.457,-0.4728,-0.5433,-0.5751,-0.6519,-0.7202,-0.7682,-0.809,-0.8487,-0.8699,-0.8804,-0.8804,-0.9061,-0.9517,-1.0431,-1.1642,-1.2255,-1.251,-1.2783,-1.2891,-1.2891,-1.2891,-1.2891,0.4928,0.4891,0.4758,0.4785,0.4853,0.4745,0.4775,0.487,0.4891,0.487,0.484,0.4745,0.4741,0.4816,0.4606,0.4626,0.4796,0.4623,0.4514,0.4507,0.4529,0.4532,0.4504,0.4529,0.4463,0.4463,0.4463,0.4463,0.4463,0.4463,0.446,0.446,0.4236,0.379,0.3287,0.2454,0.2119,0.2063,0.1453,0.1452,0.2174,0.2899,0.3289,0.34,0.3904,0.3622,0.2343,0.173,0.1453,0.1229,0.0615,0.0112,0.0224,0.0,0.0,0.0,0.0,0.0,0.0,0.0,0.0,0.0,0.0,-0.0615,-0.1562,-0.1169,-0.1556,-0.3732,-0.4294,-0.4349,-0.4405,-0.4405,-0.4463,-0.4519,-0.4519,-0.4632,-0.4632,-0.4574,-0.4519,-0.4956,-0.5723,-0.648,-0.648,-0.6086,-0.5814,-0.566,-0.5171,-0.4677,-0.4791,-0.4625,-0.4515,-0.4463,-0.446,-0.4618,-0.4824,-0.5136,-0.618,-0.7058,-0.7492,-0.7937,-0.848,-0.8804,-0.8804,-0.8804,-0.8804,-0.9263,-1.0095,-1.1209,-1.1724,-1.203,-1.2403,-1.2832,-1.2891,-1.2891,-1.2891,0.5108,0.4935,0.4975,0.4962,0.4918,0.4867,0.4877,0.4918,0.4918,0.4918,0.4891,0.4758,0.4775,0.485,0.4707,0.4731,0.4901,0.4816,0.4779,0.4745,0.4622,0.4582,0.4704,0.4562,0.4463,0.4463,0.4463,0.4463,0.4463,0.4463,0.4463,0.4408,0.4015,0.3901,0.4015,0.2899,0.2397,0.2785,0.223,0.2009,0.223,0.2954,0.3342,0.3342,0.3566,0.3622,0.3735,0.3566,0.3176,0.2621,0.2454,0.2119,0.1785,0.2516,0.2069,0.0335,0.0503,0.0504,0.0,0.0,0.0,0.0,0.0,0.0,-0.1509,-0.2406,-0.3019,-0.3683,-0.3287,-0.3234,-0.4128,-0.4015,-0.3959,-0.446,-0.4463,-0.4463,-0.4463,-0.4463,-0.4463,-0.4519,-0.4901,-0.5117,-0.5171,-0.5003,-0.5007,-0.5011,-0.468,-0.4519,-0.4463,-0.4463,-0.4463,-0.4463,-0.446,-0.4567,-0.4831,-0.537,-0.6298,-0.7176,-0.7664,-0.799,-0.8533,-0.8804,-0.8804,-0.8804,-0.8804,-0.912,-0.9955,-1.0549,-1.1074,-1.1607,-1.1981,-1.2403,-1.2774,-1.2891,-1.2891,0.5254,0.5094,0.5118,0.5118,0.5074,0.5026,0.5033,0.5067,0.502,0.4934,0.4962,0.4779,0.4809,0.4921,0.4785,0.4847,0.505,0.4975,0.4979,0.502,0.4772,0.4748,0.4877,0.467,0.4567,0.4525,0.4463,0.4463,0.4463,0.4463,0.4463,0.4405,0.4012,0.4015,0.4349,0.3342,0.301,0.3511,0.301,0.2619,0.273,0.3342,0.3622,0.34,0.3566,0.4012,0.446,0.4463,0.4125,0.34,0.3121,0.245,0.1668,0.3123,0.3411,0.1506,0.0894,0.0783,0.0,0.0,0.0,0.0,0.0,0.0,-0.0838,-0.224,-0.2629,-0.2621,-0.2284,-0.2339,-0.3118,-0.3176,-0.3289,-0.3852,-0.4294,-0.446,-0.4463,-0.4463,-0.4463,-0.4519,-0.4515,-0.4463,-0.4463,-0.4463,-0.4463,-0.4463,-0.4463,-0.4463,-0.4463,-0.4463,-0.4463,-0.4463,-0.446,-0.4622,-0.4948,-0.5601,-0.6426,-0.7241,-0.7889,-0.8268,-0.8699,-0.8752,-0.8804,-0.8804,-0.8804,-0.8804,-0.9532,-1.0028,-1.0509,-1.1015,-1.1616,-1.2187,-1.2618,-1.2881,-1.2891,0.5425,0.5408,0.527,0.5288,0.538,0.5199,0.5213,0.5308,0.5206,0.5145,0.5087,0.4874,0.4891,0.5036,0.4877,0.4969,0.525,0.5101,0.5104,0.5199,0.5047,0.4918,0.4857,0.4724,0.4592,0.4532,0.4463,0.4463,0.4463,0.4463,0.4463,0.446,0.446,0.446,0.4349,0.3738,0.3735,0.4181,0.3732,0.34,0.34,0.4015,0.4181,0.3566,0.407,0.446,0.446,0.446,0.4181,0.34,0.2899,0.2057,0.1054,0.2888,0.3456,0.2063,0.1507,0.0783,0.0,0.0,0.0,0.0,0.0,0.0,0.0,0.0,-0.0949,-0.1561,-0.1449,-0.1504,-0.1838,-0.195,-0.2399,-0.2961,-0.3904,-0.4405,-0.4463,-0.4463,-0.4463,-0.4463,-0.4463,-0.4463,-0.4463,-0.4463,-0.4463,-0.4463,-0.4463,-0.4463,-0.4463,-0.4463,-0.4463,-0.4463,-0.4463,-0.4625,-0.4842,-0.5714,-0.648,-0.6966,-0.7676,-0.8109,-0.8593,-0.8646,-0.8804,-0.8804,-0.8804,-0.8804,-0.8956,-0.951,-1.0167,-1.0813,-1.1425,-1.2039,-1.251,-1.2774,-1.2891,0.6009,0.5488,0.6025,0.5971,0.5422,0.5311,0.5321,0.5422,0.5315,0.5277,0.5243,0.5101,0.5094,0.5264,0.5101,0.5148,0.5353,0.5274,0.5267,0.5318,0.5169,0.4945,0.4785,0.4711,0.4609,0.4536,0.4463,0.4463,0.4463,0.4463,0.4463,0.4463,0.4463,0.4463,0.4408,0.4294,0.4291,0.446,0.4349,0.4125,0.4181,0.4349,0.4405,0.4294,0.4408,0.4463,0.4463,0.4463,0.4405,0.4236,0.4015,0.3224,0.1883,0.2445,0.2674,0.212,0.1507,0.0783,0.0,0.0,0.0,0.0,0.0,0.0,0.0,0.0,0.0,-0.0949,-0.0783,-0.1006,-0.2066,-0.1842,-0.1788,-0.24,-0.3456,-0.4236,-0.4294,-0.4463,-0.4463,-0.4463,-0.4463,-0.4405,-0.4463,-0.4405,-0.446,-0.446,-0.4463,-0.4463,-0.4463,-0.4463,-0.4463,-0.4463,-0.4519,-0.457,-0.4897,-0.5769,-0.6426,-0.675,-0.7235,-0.767,-0.8103,-0.8434,-0.8646,-0.8804,-0.8804,-0.8804,-0.8804,-0.9061,-0.9762,-1.0517,-1.0973,-1.1534,-1.2412,-1.2881,-1.2891,0.6272,0.647,0.6272,0.6075,0.5881,0.5557,0.5325,0.527,0.5264,0.5226,0.5165,0.5084,0.5128,0.5243,0.5169,0.5216,0.5415,0.5428,0.5425,0.5325,0.5131,0.4911,0.4738,0.4691,0.4609,0.4477,0.4463,0.4463,0.4463,0.4463,0.4463,0.4463,0.4463,0.4463,0.4463,0.4463,0.4463,0.4463,0.4463,0.4463,0.4463,0.4463,0.4463,0.4463,0.4463,0.4463,0.4463,0.4463,0.4463,0.4463,0.446,0.4064,0.3274,0.2498,0.1946,0.1392,0.1116,0.0783,0.0,0.0,0.0,0.0,0.0,0.0,0.0,0.0,-0.028,-0.0504,-0.0168,-0.0616,-0.1286,-0.1063,-0.0894,-0.1228,-0.212,0.0,0.0,-0.3067,-0.379,-0.4125,-0.3959,-0.3846,-0.4294,-0.4177,-0.4233,-0.4405,-0.4463,-0.4463,-0.4463,-0.4463,-0.4463,-0.4463,-0.457,-0.4625,-0.4732,-0.5441,-0.6095,-0.6475,-0.6524,-0.7015,-0.7408,-0.7895,-0.8466,-0.8679,-0.8718,-0.8804,-0.8804,-0.8857,-0.9361,-0.9961,-1.0415,-1.1124,-1.2049,-1.2715,-1.2774,0.6666,0.7897,0.6338,0.6079,0.6461,0.5745,0.5294,0.5179,0.5186,0.5121,0.5033,0.4982,0.5094,0.5155,0.5196,0.5237,0.5425,0.5428,0.5404,0.526,0.5087,0.4934,0.4937,0.4707,0.4632,0.4473,0.4463,0.4463,0.4463,0.4463,0.4463,0.4463,0.4463,0.4463,0.4463,0.4463,0.4463,0.4463,0.4463,0.4463,0.4463,0.4463,0.4463,0.4463,0.4463,0.4463,0.4463,0.4463,0.4463,0.4463,0.4463,0.4405,0.4233,0.3106,0.1719,0.0612,0.0725,0.0783,0.0,0.0,0.0,0.0,0.0,0.0,0.0,0.0,0.0,0.0,0.0,0.0,0.0,0.0,0.0,0.0,0.0,0.0,0.0,-0.1174,-0.2508,-0.379,-0.273,-0.3065,-0.3398,-0.3785,-0.3613,-0.4405,-0.4463,-0.4463,-0.4463,-0.4463,-0.4463,-0.4463,-0.457,-0.4736,-0.4842,-0.5054,-0.5601,-0.6036,-0.5869,-0.6086,-0.649,-0.7047,-0.8015,-0.8511,-0.8685,-0.8765,-0.8804,-0.8956,-0.9211,-0.9488,-0.9982,-1.0797,-1.1665,-1.2236,-1.2452,0.8296,0.7962,0.7572,0.7177,0.6588,0.5818,0.5408,0.5301,0.5304,0.527,0.526,0.5257,0.5274,0.5304,0.5298,0.5335,0.5425,0.5422,0.5301,0.5176,0.5135,0.5286,0.5296,0.489,0.4563,0.4519,0.4515,0.4519,0.4519,0.4463,0.4463,0.4463,0.4463,0.4463,0.4463,0.4463,0.4463,0.4463,0.4463,0.4463,0.4463,0.4463,0.4463,0.4463,0.4463,0.4463,0.4463,0.4463,0.4463,0.4463,0.4463,0.4463,0.4405,0.4119,0.2779,0.1058,0.0726,0.0783,0.0,0.0,0.0,0.0,0.0,0.0,0.0,0.0,0.0,0.0,0.0,0.0,0.0,0.0,0.0,0.0,0.0,0.0,0.0,0.0,0.0,0.0,-0.173,-0.1898,-0.1284,-0.2788,-0.3287,-0.4181,-0.446,-0.446,-0.4463,-0.4463,-0.4463,-0.4463,-0.4515,-0.4625,-0.4732,-0.4838,-0.5167,-0.555,-0.5382,-0.5273,-0.5668,-0.595,-0.6786,-0.7776,-0.8751,-0.8785,-0.8811,-0.8804,-0.9001,-0.9273,-0.9658,-1.0485,-1.1266,-1.1774,-1.2344,0.8581,0.9128,0.835,0.7767,0.7177,0.64,0.5705,0.5343,0.5335,0.5318,0.5281,0.5321,0.5425,0.5428,0.5428,0.5425,0.5428,0.5428,0.5321,0.5237,0.5172,0.5227,0.5332,0.5024,0.4791,0.4934,0.5003,0.4842,0.457,0.4519,0.4463,0.4463,0.4463,0.4463,0.4463,0.4463,0.4463,0.4463,0.4463,0.4463,0.4463,0.4463,0.4463,0.4463,0.4463,0.4463,0.4463,0.4463,0.4463,0.4463,0.4463,0.4463,0.4463,0.4463,0.3566,0.2561,0.1228,0.1117,0.0727,0.0615,0.0,0.0727,0.0896,0.0,0.0783,0.0504,0.0448,0.0839,0.0,0.0,0.056,0.0,0.0,0.0,0.0,0.0,0.0,0.0,0.0,0.0,-0.0728,-0.0671,-0.0895,-0.1786,-0.2623,-0.3405,-0.3677,-0.3788,-0.4463,-0.4463,-0.4463,-0.4463,-0.4463,-0.4515,-0.457,-0.4677,-0.4787,-0.4952,-0.4897,-0.4842,-0.4956,-0.5124,-0.5395,-0.6761,-0.8246,-0.8771,-0.8804,-0.8798,-0.8798,-0.904,-0.9496,-1.0254,-1.0914,-1.1466,-1.2138,0.8562,1.0434,0.8865,0.8221,0.8027,0.7302,0.6448,0.5717,0.556,0.5621,0.5399,0.5501,0.5752,0.5686,0.5885,0.5818,0.5818,0.562,0.5731,0.5712,0.5298,0.5463,0.5564,0.5441,0.542,0.5673,0.555,0.5219,0.4853,0.4625,0.4677,0.4515,0.4463,0.4463,0.4463,0.4463,0.4463,0.4463,0.4463,0.4463,0.4463,0.4463,0.4463,0.4463,0.4463,0.4463,0.4463,0.4463,0.4463,0.4463,0.4463,0.4463,0.4463,0.4463,0.4463,0.4291,0.2565,0.173,0.1451,0.1283,0.1228,0.1561,0.2012,0.2179,0.1898,0.1228,0.1172,0.1619,0.1955,0.1677,0.1174,0.0615,0.0224,0.0,0.0,0.0,0.0,0.0,0.0,0.0,0.0,0.0,0.0,-0.0951,-0.1789,-0.2458,-0.2788,-0.3229,-0.3956,-0.4463,-0.4463,-0.4463,-0.4463,-0.4463,-0.4515,-0.457,-0.4677,-0.468,-0.4625,-0.4574,-0.4519,-0.468,-0.5175,-0.6431,-0.7628,-0.8321,-0.8804,-0.8804,-0.8857,-0.891,-0.9211,-0.9865,-1.0466,-1.1166,-1.1841,0.9688,1.0491,0.9524,0.9081,0.8941,0.8156,0.7678,0.7399,0.6702,0.6445,0.642,0.6445,0.6461,0.6593,0.7246,0.7507,0.7051,0.6724,0.6461,0.6268,0.5886,0.5967,0.6535,0.63,0.6315,0.6506,0.6224,0.5651,0.5301,0.5328,0.4893,0.457,0.4463,0.4463,0.457,0.4515,0.4625,0.4625,0.4625,0.457,0.4519,0.4463,0.4463,0.4463,0.4463,0.4463,0.4463,0.4463,0.4463,0.4463,0.4463,0.4463,0.4463,0.4463,0.4463,0.4239,0.34,0.2563,0.2286,0.1783,0.1729,0.2065,0.2625,0.2681,0.2341,0.2058,0.2114,0.2173,0.2343,0.2011,0.1174,0.0894,0.0559,0.0,0.0,0.0,0.0,0.0,0.0,0.0,0.0,0.0,0.0,-0.0504,-0.1174,-0.1789,-0.2065,-0.2676,-0.3458,-0.407,-0.4463,-0.4463,-0.4463,-0.4463,-0.4519,-0.4515,-0.457,-0.457,-0.4574,-0.4625,-0.4574,-0.4519,-0.5117,-0.6436,-0.7574,-0.854,-0.8804,-0.8804,-0.8804,-0.8857,-0.9113,-0.9413,-1.0072,-1.0771,-1.1384,0.9608,1.0575,1.011,0.9722,0.9268,0.8877,0.842,0.7962,0.7572,0.7372,0.7372,0.7372,0.7111,0.6915,0.7042,0.7302,0.7307,0.7502,0.7111,0.6724,0.6719,0.6689,0.7281,0.7026,0.7173,0.7175,0.6783,0.5923,0.5081,0.4948,0.4842,0.457,0.4519,0.468,0.4948,0.5054,0.5003,0.5003,0.5003,0.4842,0.4574,0.4519,0.4519,0.4519,0.4463,0.4463,0.4463,0.4463,0.4463,0.4463,0.4463,0.4463,0.4463,0.4463,0.4463,0.4349,0.379,0.3398,0.3234,0.2896,0.2785,0.3345,0.3627,0.3683,0.3511,0.3448,0.3335,0.334,0.3342,0.3012,0.2233,0.1228,0.0447,0.0,0.0,0.0,0.0,0.0,0.0,0.0,0.0,0.0,0.0,-0.0336,-0.0728,-0.1119,-0.1397,-0.2122,-0.2903,-0.3796,-0.4467,-0.4463,-0.4463,-0.4463,-0.4463,-0.4463,-0.4463,-0.4463,-0.4515,-0.457,-0.4791,-0.4791,-0.5344,-0.6391,-0.7467,-0.8699,-0.8804,-0.8804,-0.8804,-0.8804,-0.8956,-0.9211,-0.9769,-1.0372,-1.0931,0.9405,1.0618,1.0618,1.0168,0.9658,0.953,0.9198,0.8544,0.8355,0.8285,0.8285,0.8221,0.7892,0.7372,0.7242,0.7237,0.7046,0.7702,0.7567,0.7307,0.7572,0.7562,0.7562,0.7603,0.7937,0.7859,0.699,0.6276,0.523,0.4916,0.4677,0.4625,0.457,0.4948,0.5378,0.5601,0.5651,0.5706,0.571,0.5386,0.4901,0.4688,0.4632,0.4519,0.4463,0.4463,0.4463,0.4463,0.4463,0.4463,0.4463,0.4463,0.4463,0.4463,0.4463,0.4405,0.3846,0.4012,0.407,0.3959,0.3732,0.4181,0.4405,0.446,0.4405,0.4236,0.4349,0.4463,0.4405,0.379,0.2621,0.1393,0.0502,0.0,0.0,0.0,0.0,0.0,0.0,0.0,0.0,0.0,0.0,-0.0056,-0.0448,-0.0504,-0.0783,-0.1341,-0.2289,-0.3802,-0.4473,-0.4467,-0.4463,-0.4463,-0.4463,-0.4463,-0.4463,-0.4463,-0.4515,-0.457,-0.4842,-0.5113,-0.5832,-0.6549,-0.7788,-0.8804,-0.8804,-0.8804,-0.8804,-0.8804,-0.8804,-0.9113,-0.9718,-0.9969,-1.0269,0.9849,1.0618,1.0618,1.0555,1.0428,1.0364,1.0364,1.0104,0.9396,0.9139,0.9134,0.9139,0.9075,0.8812,0.8812,0.8484,0.8091,0.8086,0.8086,0.7767,0.8027,0.8291,0.8619,0.8221,0.8302,0.8161,0.7067,0.6239,0.5571,0.5357,0.5058,0.4732,0.5003,0.5433,0.5487,0.6036,0.6475,0.648,0.6426,0.6095,0.5496,0.5356,0.503,0.4688,0.4519,0.4463,0.4463,0.4463,0.4463,0.4463,0.4463,0.4463,0.4463,0.4463,0.4463,0.4463,0.4405,0.4405,0.446,0.4294,0.4236,0.446,0.4463,0.4463,0.4463,0.4463,0.4463,0.4463,0.4463,0.4015,0.2956,0.2062,0.1228,0.0,0.0,0.0,0.0,0.0,0.0,0.0,0.0,0.0,0.0,0.0,-0.0056,-0.0056,0.0,0.0,-0.1732,-0.3352,-0.4477,-0.4467,-0.4463,-0.4463,-0.4463,-0.4463,-0.4463,-0.4463,-0.4515,-0.4625,-0.4948,-0.5332,-0.5987,-0.681,-0.7937,-0.8646,-0.8804,-0.8804,-0.8804,-0.8804,-0.8804,-0.9159,-0.9666,-0.9762,-0.971,1.0341,1.0561,1.0618,1.0618,1.0618,1.0618,1.0618,1.0498,1.0244,1.0047,1.0047,1.0047,0.9786,0.9396,0.9332,0.9081,0.8877,0.9134,0.8801,0.8291,0.842,0.842,0.7897,0.7962,0.827,0.8038,0.7154,0.6358,0.5902,0.543,0.4893,0.5054,0.5003,0.5109,0.5542,0.6258,0.6534,0.6593,0.6544,0.6431,0.6109,0.5745,0.5364,0.5058,0.468,0.4515,0.4463,0.4463,0.4463,0.4463,0.4463,0.4463,0.4463,0.4463,0.4463,0.4463,0.4463,0.446,0.4463,0.4463,0.4463,0.4463,0.4463,0.4463,0.4463,0.4463,0.4463,0.4463,0.4463,0.407,0.3121,0.189,0.0892,0.0,0.0,0.0,0.0,0.0,0.0,0.0,0.0,0.0,0.0,0.0,0.0,0.0,0.0,0.0,0.0,-0.3012,-0.3962,-0.4463,-0.4463,-0.4463,-0.4463,-0.4463,-0.4463,-0.4463,-0.4463,-0.4625,-0.5003,-0.5492,-0.5878,-0.6204,-0.6794,-0.7551,-0.8427,-0.8699,-0.8646,-0.8699,-0.8804,-0.9113,-0.9361,-0.9309,-0.951,1.0692,1.0618,1.0618,1.0618,1.0618,1.0618,1.0618,1.0618,1.0555,1.0555,1.0618,1.0561,1.011,0.9466,0.9268,0.9145,0.8947,0.9856,0.946,0.8941,0.8748,0.8549,0.8066,0.7991,0.796,0.8011,0.7236,0.6918,0.663,0.5953,0.5448,0.5277,0.5058,0.5109,0.5542,0.6199,0.6588,0.6642,0.6853,0.6799,0.6485,0.6073,0.5736,0.534,0.4897,0.4463,0.4463,0.4463,0.4463,0.4463,0.4463,0.4463,0.4463,0.4463,0.4463,0.4463,0.4463,0.4463,0.4463,0.4463,0.4463,0.4463,0.4463,0.4463,0.4463,0.4463,0.4463,0.4463,0.4463,0.4408,0.3849,0.2223,0.1561,0.0838,0.0,0.0,0.0,0.0,0.0,0.0,0.0,0.0,0.0,0.0,0.0,0.0,0.0,0.0,0.0,0.0,-0.3735,-0.4408,-0.4405,-0.446,-0.4463,-0.4463,-0.4463,-0.4463,-0.4463,-0.457,-0.4842,-0.4948,-0.5117,-0.5496,-0.5928,-0.7209,-0.8551,-0.8519,-0.854,-0.8699,-0.8804,-0.8804,-0.891,-0.8956,-0.9406,1.0808,1.0618,1.0618,1.0618,1.0624,1.0618,1.0631,1.0618,1.0618,1.0618,1.0618,1.0555,1.011,0.9524,0.9396,0.9069,0.8285,0.9005,0.9204,0.9268,0.921,0.9011,0.8506,0.8101,0.7906,0.7994,0.7374,0.7629,0.7974,0.6798,0.5772,0.4809,0.5113,0.5378,0.5597,0.6041,0.6475,0.6686,0.7052,0.7101,0.6799,0.644,0.6168,0.555,0.4952,0.4519,0.4519,0.4463,0.4484,0.4487,0.4494,0.4467,0.447,0.449,0.4497,0.4467,0.4494,0.4487,0.4525,0.4463,0.4463,0.4463,0.4463,0.4463,0.4463,0.4463,0.4463,0.4463,0.4463,0.4236,0.4021,0.358,0.2792,0.1899,0.0,0.0,0.0,0.0,0.0,0.0,0.0,0.0,0.0,0.0,0.0,0.0,0.0,0.0,0.0,-0.2399,-0.3624,-0.4353,-0.4349,-0.4405,-0.446,-0.4463,-0.4463,-0.4463,-0.4463,-0.4463,-0.457,-0.4625,-0.468,-0.5007,-0.5605,-0.7128,-0.8267,-0.8009,-0.8032,-0.8546,-0.8804,-0.8804,-0.9159,-0.951,-0.9961,1.0661,1.0618,1.0618,1.0618,1.0645,1.0813,1.0786,1.0638,1.0618,1.0618,1.0618,1.0555,1.0434,1.0174,1.0104,0.9977,0.9646,0.9913,0.9786,0.9466,0.9268,0.9005,0.85,0.8281,0.8201,0.8334,0.7648,0.7189,0.7724,0.7138,0.6145,0.544,0.5508,0.5109,0.5277,0.5714,0.6091,0.6534,0.6902,0.6961,0.7283,0.6766,0.644,0.6204,0.5492,0.4897,0.457,0.4519,0.4518,0.4575,0.4535,0.4502,0.4521,0.4505,0.4488,0.4497,0.4531,0.4538,0.4529,0.4463,0.4463,0.4463,0.4463,0.4463,0.4463,0.4463,0.4463,0.4463,0.4463,0.4236,0.4239,0.4301,0.391,0.2959,0.0,0.0,0.0,0.0,0.0,0.0,0.0,0.0,0.0,0.0,0.0,0.0,0.0,-0.028,-0.1118,-0.2065,-0.3347,-0.4239,-0.4239,-0.4346,-0.4405,-0.446,-0.4463,-0.4463,-0.4463,-0.4463,-0.4463,-0.4519,-0.4625,-0.4842,-0.5277,-0.6608,-0.7344,-0.7258,-0.7674,-0.85,-0.8758,-0.8804,-0.9309,-0.9917,-1.032,1.0688,1.0688,1.0695,1.0705,1.0658,1.0775,1.0813,1.0651,1.0618,1.0618,1.0618,1.0618,1.0618,1.0618,1.0555,1.0555,1.0428,1.0491,1.0168,0.9849,0.9402,0.8941,0.8463,0.8153,0.8101,0.8462,0.8138,0.7675,0.8182,0.7101,0.6802,0.6538,0.5982,0.5614,0.5441,0.5328,0.571,0.5937,0.6268,0.6431,0.6853,0.6614,0.6322,0.617,0.5599,0.5137,0.4751,0.4643,0.4636,0.4687,0.4707,0.4639,0.4677,0.4657,0.4636,0.4589,0.4579,0.4616,0.4511,0.4463,0.4463,0.4463,0.4463,0.4463,0.4463,0.4463,0.4463,0.4463,0.4463,0.4463,0.4463,0.4467,0.4477,0.3635,0.3063,0.0,0.0,0.0,0.0,0.0,0.0,0.0,0.0,0.0,0.0,0.0,0.0,-0.0504,-0.0727,-0.1843,-0.3125,-0.3796,-0.4128,-0.4239,-0.4349,-0.4405,-0.4463,-0.4463,-0.4463,-0.4463,-0.4463,-0.4463,-0.4519,-0.4736,-0.5277,-0.615,-0.6815,-0.7382,-0.7973,-0.8606,-0.8758,-0.8804,-0.9061,-0.9614,-1.0131,1.0975,1.0982,1.0975,1.0815,1.0658,1.0638,1.0658,1.0641,1.0672,1.0581,1.0624,1.0618,1.0618,1.0618,1.0618,1.0618,1.0618,1.0618,1.0491,1.0301,0.9786,0.9396,0.9006,0.8667,0.854,0.8265,0.8226,0.8522,0.907,0.8278,0.8149,0.8,0.7293,0.6643,0.649,0.5819,0.5273,0.4842,0.5441,0.574,0.6,0.6023,0.5984,0.6081,0.576,0.5399,0.5166,0.5051,0.5036,0.4796,0.487,0.4897,0.4925,0.4961,0.4852,0.4639,0.4653,0.4626,0.449,0.4473,0.4463,0.4463,0.4463,0.4463,0.4463,0.4463,0.4463,0.4463,0.4463,0.4463,0.4463,0.4463,0.4473,0.4307,0.3785,0.3392,0.2738,0.0,0.0,0.0,0.0,0.0,0.0,0.0,0.0,0.0,0.0,0.0,0.0,-0.1285,-0.2456,-0.3574,-0.3962,-0.4073,-0.4181,-0.4405,-0.4463,-0.4463,-0.4463,-0.4463,-0.4463,-0.4463,-0.4515,-0.4625,-0.5332,-0.6195,-0.7015,-0.7783,-0.8321,-0.8758,-0.8758,-0.8857,-0.9008,-0.9309,-0.9814,1.0995,1.0995,1.0995,1.0942,1.0848,1.0848,1.0942,1.1082,1.0935,1.0742,1.0651,1.0618,1.0618,1.0618,1.0618,1.0618,1.0618,1.0618,1.0618,1.0555,1.0168,1.0238,0.9933,0.9693,0.9542,0.9493,0.9346,0.8986,0.903,0.8687,0.855,0.8352,0.839,0.7885,0.6942,0.6312,0.6095,0.5905,0.593,0.5906,0.6318,0.6196,0.6252,0.6714,0.6506,0.6203,0.5852,0.5799,0.5544,0.5128,0.5158,0.5084,0.5128,0.5114,0.5054,0.4906,0.488,0.4585,0.4569,0.4545,0.4463,0.4463,0.4463,0.4463,0.4463,0.4463,0.4463,0.4463,0.4463,0.4463,0.4463,0.4463,0.4467,0.4467,0.4177,0.4233,0.0,0.0,0.0,0.0,0.0,0.0,0.0,0.0,0.0,0.0,0.0,0.0,0.0,0.0,-0.1397,-0.2959,-0.3796,-0.3904,-0.4015,-0.4349,-0.4463,-0.4463,-0.4463,-0.4463,-0.4463,-0.4463,-0.4519,-0.457,-0.5382,-0.6293,-0.7385,-0.8268,-0.8533,-0.8804,-0.8804,-0.8804,-0.891,-0.9145,-0.9526,1.1082,1.0995,1.0995,1.1116,1.1243,1.1082,1.1062,1.1116,1.1015,1.0828,1.0601,1.0618,1.0618,1.0618,1.0618,1.0618,1.0618,1.0618,1.0618,1.0618,1.0555,1.0498,1.0561,1.0541,1.0253,1.023,0.9839,0.9419,0.9456,0.88,0.8574,0.878,0.9324,0.882,0.7975,0.7583,0.7078,0.6824,0.6559,0.6678,0.6852,0.6913,0.6922,0.7249,0.7365,0.7301,0.6983,0.6675,0.6436,0.5765,0.5495,0.5331,0.5294,0.5233,0.5142,0.5137,0.4908,0.465,0.4549,0.4584,0.4519,0.4463,0.4463,0.4463,0.4463,0.4463,0.4463,0.4463,0.4463,0.4463,0.4463,0.4463,0.4463,0.4463,0.4463,0.4463,0.0,0.0,0.0,0.0,0.0,0.0,0.0,0.0,0.0,0.0,0.0,0.0,0.0,0.0,-0.0894,-0.2343,-0.3683,-0.4018,-0.4184,-0.4405,-0.4463,-0.4463,-0.4463,-0.4463,-0.4463,-0.4463,-0.4463,-0.4625,-0.5601,-0.6632,-0.7984,-0.8804,-0.8752,-0.8752,-0.8804,-0.8804,-0.8811,-0.8995,-0.9273,1.1256,1.1022,1.1015,1.1356,1.1703,1.1323,1.0949,1.0712,1.0909,1.0848,1.0568,1.0618,1.0618,1.0618,1.0618,1.0618,1.0618,1.0618,1.0618,1.0618,1.0618,1.0618,1.0618,1.0611,1.0461,1.0361,1.0199,0.9956,1.0019,0.9528,0.9101,0.8991,0.9623,0.9506,0.9201,0.8826,0.8236,0.781,0.7539,0.7527,0.7649,0.7573,0.7551,0.7793,0.7939,0.7958,0.785,0.7797,0.7281,0.6779,0.6484,0.5898,0.5513,0.5319,0.5189,0.5043,0.4806,0.466,0.4521,0.4525,0.4522,0.4463,0.4463,0.4463,0.4463,0.4463,0.4463,0.4463,0.4463,0.4463,0.4463,0.4463,0.4463,0.4463,0.4463,0.4405,0.4294,0.0,0.0,0.0,0.0,0.0,0.0,0.0,0.0,0.0,0.0,0.0,0.0,0.0,-0.1062,-0.2009,-0.3234,-0.4128,-0.4353,-0.4463,-0.4463,-0.4463,-0.4463,-0.4463,-0.4463,-0.4463,-0.4463,-0.4846,-0.5828,-0.6972,-0.8287,-0.8718,-0.8639,-0.8699,-0.8804,-0.8804,-0.8811,-0.8804,-0.8942,1.1376,1.1323,1.153,1.1717,1.1857,1.1904,1.153,1.0962,1.1169,1.1035,1.0618,1.0618,1.0618,1.0618,1.0618,1.0618,1.0618,1.0618,1.0618,1.0618,1.0618,1.0618,1.0618,1.0611,1.0488,1.0401,1.0341,1.0347,1.0401,1.0089,1.0076,1.0135,1.0098,1.0147,1.0053,1.0004,0.9436,0.8989,0.8603,0.848,0.8382,0.8231,0.8186,0.8196,0.8676,0.8678,0.842,0.8742,0.8153,0.6997,0.6746,0.6161,0.5209,0.5155,0.5094,0.4713,0.4646,0.4629,0.4497,0.4463,0.4463,0.4463,0.4463,0.4463,0.4463,0.4463,0.4463,0.4463,0.4463,0.4463,0.4463,0.4463,0.4463,0.4463,0.4463,0.4405,0.4349,0.391,0.0,0.0,0.0,0.0,0.0,0.0,0.0,0.0,0.0,0.0,0.0,0.0,-0.1174,-0.2065,-0.2956,-0.3962,-0.4353,-0.4463,-0.4463,-0.4463,-0.4463,-0.4463,-0.4463,-0.4463,-0.4463,-0.4952,-0.5819,-0.7095,-0.8498,-0.8692,-0.8586,-0.8699,-0.8804,-0.8804,-0.8804,-0.8804,-0.8804,1.1189,1.1149,1.1523,1.1817,1.2051,1.2225,1.1857,1.1283,1.1349,1.1102,1.0595,1.0618,1.0618,1.0618,1.0618,1.0618,1.0618,1.0618,1.0618,1.0618,1.0618,1.0618,1.0618,1.0604,1.0517,1.0388,1.0347,1.0354,1.051,1.0591,1.0541,1.0521,1.0618,1.0454,1.0381,1.0394,1.0341,1.0017,0.9746,0.9562,0.9337,0.9168,0.9099,0.9,0.9524,0.9326,0.9069,0.9588,0.8801,0.7469,0.7196,0.6438,0.5434,0.5044,0.4924,0.4647,0.4659,0.4619,0.4501,0.4463,0.4463,0.4463,0.4463,0.4463,0.4463,0.4463,0.4463,0.4463,0.4463,0.4463,0.4463,0.4463,0.4463,0.4463,0.4463,0.4463,0.4467,0.4477,0.0,0.0,0.0,0.0,0.0,0.0,0.0,0.0,0.0,0.0,0.0,0.0,0.0,-0.2007,-0.2903,-0.3802,-0.4132,-0.4463,-0.4463,-0.4463,-0.4463,-0.4463,-0.4463,-0.446,-0.4512,-0.4999,-0.5706,-0.6977,-0.8211,-0.8459,-0.848,-0.8646,-0.8804,-0.8804,-0.8804,-0.8804,-0.8804,1.0868,1.0786,1.1249,1.179,1.2191,1.2218,1.1904,1.1423,1.1356,1.1076,1.0621,1.0618,1.0618,1.0618,1.0618,1.0618,1.0618,1.0618,1.0618,1.0618,1.0618,1.0618,1.0618,1.0611,1.0468,1.0361,1.0347,1.0428,1.0307,1.0408,1.0618,1.0618,1.0618,1.0577,1.0508,1.0521,1.0544,1.0448,1.0372,1.0286,1.0375,1.0485,1.0555,1.0301,1.0364,1.0434,1.0371,1.0174,0.9773,0.8526,0.7614,0.6813,0.5649,0.4957,0.4803,0.4689,0.4674,0.4602,0.4504,0.4463,0.4463,0.4463,0.4463,0.4463,0.4463,0.4463,0.4463,0.4463,0.4463,0.4463,0.4463,0.4463,0.4463,0.4463,0.4463,0.4463,0.4463,0.419,0.0,0.0,0.0,0.0,0.0,0.0,0.0,0.0,0.0,0.0,0.0,0.0,0.0,-0.2174,-0.3181,-0.4021,-0.4242,-0.4463,-0.4463,-0.4463,-0.4463,-0.4463,-0.4463,-0.4512,-0.4508,-0.4889,-0.5328,-0.6534,-0.7532,-0.7788,-0.8215,-0.8699,-0.8804,-0.8804,-0.8804,-0.8804,-0.8804,1.1082,1.1276,1.185,1.1937,1.1683,1.1884,1.1643,1.1116,1.1096,1.0909,1.0601,1.0618,1.0618,1.0618,1.0618,1.0618,1.0618,1.0618,1.0618,1.0618,1.0618,1.0618,1.0618,1.0618,1.0494,1.0501,1.0514,1.0521,1.0461,1.0508,1.0618,1.0618,1.0618,1.0618,1.0618,1.0618,1.0618,1.0618,1.0618,1.0618,1.0618,1.0491,1.0364,1.0174,1.011,1.0238,1.0238,1.0238,0.939,0.8318,0.8045,0.6899,0.5232,0.4913,0.4701,0.4562,0.4713,0.4737,0.4605,0.4574,0.4574,0.4519,0.4463,0.4463,0.4463,0.4463,0.4463,0.4463,0.4463,0.4463,0.4463,0.4463,0.4463,0.4463,0.4463,0.4463,0.446,0.363,0.291,0.0,0.0,0.0,0.0,0.0,0.0,0.0,0.0,0.0,0.0,0.0,0.0,-0.2621,-0.368,-0.4408,-0.4463,-0.4463,-0.4463,-0.4463,-0.4463,-0.4463,-0.4463,-0.4515,-0.4512,-0.4512,-0.4952,-0.6114,-0.6944,-0.7155,-0.7634,-0.8328,-0.8646,-0.8586,-0.8752,-0.8804,-0.8804,1.0895,1.1096,1.153,1.1617,1.1476,1.1603,1.141,1.1049,1.0995,1.0828,1.0645,1.0618,1.0618,1.0618,1.0618,1.0618,1.0618,1.0618,1.0618,1.0618,1.0618,1.0618,1.0618,1.0618,1.0611,1.0618,1.0618,1.0618,1.0618,1.0618,1.0618,1.0618,1.0618,1.0618,1.0618,1.0618,1.0618,1.0618,1.0624,1.0624,1.0624,1.0498,1.0428,1.0174,1.0174,1.0174,1.0238,1.0301,0.9454,0.8058,0.7126,0.6252,0.5173,0.5063,0.5113,0.5199,0.5332,0.5269,0.5069,0.4916,0.4809,0.4695,0.4515,0.4515,0.4463,0.4463,0.4463,0.4463,0.4463,0.4463,0.4463,0.4463,0.4463,0.4463,0.4463,0.4463,0.368,0.2679,0.0,0.0,0.0,0.0,0.0,0.0,0.0,0.0,0.0,0.0,0.0,0.0,0.0,-0.2956,-0.3959,-0.446,-0.4463,-0.4463,-0.4463,-0.4463,-0.4463,-0.4463,-0.4519,-0.4519,-0.4574,-0.5085,-0.5428,-0.5762,-0.637,-0.6683,-0.7203,-0.7943,-0.8209,-0.8368,-0.8533,-0.8804,-0.8804,1.0575,1.0665,1.0935,1.1142,1.1303,1.1363,1.1196,1.0962,1.0929,1.0795,1.0651,1.0618,1.0618,1.0618,1.0618,1.0618,1.0618,1.0618,1.0618,1.0618,1.0618,1.0618,1.0618,1.0618,1.0618,1.0618,1.0618,1.0618,1.0618,1.0618,1.0618,1.0618,1.0618,1.0618,1.0618,1.0624,1.0624,1.0694,1.0694,1.0624,1.0624,1.0624,1.0555,1.0555,1.0618,1.0618,1.0618,1.0358,0.9582,0.835,0.6836,0.5917,0.553,0.5583,0.5956,0.616,0.633,0.6128,0.5806,0.5695,0.5345,0.4993,0.475,0.468,0.468,0.468,0.468,0.4515,0.4515,0.4463,0.4463,0.4463,0.4463,0.4463,0.4463,0.4463,0.3345,0.2345,0.0,0.0,0.0,0.0,0.0,0.0,0.0,0.0,0.0,0.0,0.0,0.0,0.0,-0.2732,-0.4015,-0.4349,-0.446,-0.4463,-0.4463,-0.4463,-0.4463,-0.4463,-0.4519,-0.4519,-0.5089,-0.6303,-0.6593,-0.6225,-0.6156,-0.6415,-0.6993,-0.7509,-0.783,-0.8156,-0.8586,-0.8804,-0.8804,1.0618,1.0608,1.1116,1.1122,1.0815,1.0969,1.0909,1.0675,1.0719,1.0665,1.0638,1.0618,1.0618,1.0618,1.0618,1.0618,1.0618,1.0618,1.0618,1.0618,1.0618,1.0618,1.0618,1.0618,1.0618,1.0618,1.0618,1.0618,1.0618,1.0618,1.0618,1.0618,1.0645,1.0645,1.0638,1.0658,1.0762,1.0812,1.0728,1.0735,1.0771,1.0701,1.0624,1.0618,1.0618,1.0618,1.0618,1.0618,0.9977,0.8972,0.7709,0.6637,0.6324,0.643,0.6864,0.7298,0.741,0.7069,0.6805,0.6869,0.6619,0.5754,0.5605,0.5508,0.5508,0.5504,0.5285,0.468,0.457,0.4515,0.4463,0.4463,0.4463,0.4463,0.4463,0.4463,0.3959,0.3569,0.0,0.0,0.0,0.0,0.0,0.0,0.0,0.0,0.0,0.0,0.0,0.0,0.0,-0.223,-0.368,-0.4349,-0.4463,-0.4463,-0.4463,-0.4463,-0.4463,-0.4463,-0.4463,-0.4463,-0.5203,-0.6243,-0.6509,-0.6192,-0.6242,-0.6032,-0.6495,-0.6956,-0.7503,-0.7937,-0.8374,-0.8586,-0.8374]}]]